<?xml version="1.0" encoding="UTF-8"?>
<gpx version="1.0" creator="Trackator" xmlns:xsi="http://www.w3.org/2001/XMLSchema-instance" xmlns="http://www.topografix.com/GPX/1/0" xmlns:topografix="http://www.topografix.com/GPX/Private/TopoGrafix/0/1" xsi:schemaLocation="http://www.topografix.com/GPX/1/0 http://www.topografix.com/GPX/1/0/gpx.xsd http://www.topografix.com/GPX/Private/TopoGrafix/0/1 http://www.topografix.com/GPX/Private/TopoGrafix/0/1/topografix.xsd">
<metadata>
<link href="http://www.trackator.com">
<text>Trackator</text>
</link>
</metadata>
<time>2013-10-16T:35:27Z</time>
<trk>
<name>Track: </name>
<desc>Paragliding</desc>
<trkseg>
<trkpt lat="42.88559125924974" lon="-2.876635152023979">
<ele>902</ele>
<time>2013-10-16T:35:27Z</time>
</trkpt>
<trkpt lat="42.88562768645693" lon="-2.8765371784285896">
<ele>902</ele>
<time>2013-10-16T16:35:29Z</time>
</trkpt>
<trkpt lat="42.88562768645693" lon="-2.8765371784285896">
<ele>902</ele>
<time>2013-10-16T16:35:31Z</time>
</trkpt>
<trkpt lat="42.88562768645693" lon="-2.8765371784285896">
<ele>902</ele>
<time>2013-10-16T16:35:33Z</time>
</trkpt>
<trkpt lat="42.88562768645693" lon="-2.8765371784285896">
<ele>904</ele>
<time>2013-10-16T16:35:35Z</time>
</trkpt>
<trkpt lat="42.88562768645693" lon="-2.8765371784285896">
<ele>907</ele>
<time>2013-10-16T16:35:37Z</time>
</trkpt>
<trkpt lat="42.88562768645693" lon="-2.8765371784285896">
<ele>906</ele>
<time>2013-10-16T16:35:39Z</time>
</trkpt>
<trkpt lat="42.88562768645693" lon="-2.8765371784285896">
<ele>905</ele>
<time>2013-10-16T16:35:41Z</time>
</trkpt>
<trkpt lat="42.88562768645693" lon="-2.8765371784285896">
<ele>901</ele>
<time>2013-10-16T16:35:43Z</time>
</trkpt>
<trkpt lat="42.88562768645693" lon="-2.8765371784285896">
<ele>900</ele>
<time>2013-10-16T16:35:45Z</time>
</trkpt>
<trkpt lat="42.88562768645693" lon="-2.8765371784285896">
<ele>900</ele>
<time>2013-10-16T16:35:47Z</time>
</trkpt>
<trkpt lat="42.88562768645693" lon="-2.8765371784285896">
<ele>900</ele>
<time>2013-10-16T16:35:49Z</time>
</trkpt>
<trkpt lat="42.88562768645693" lon="-2.8765371784285896">
<ele>900</ele>
<time>2013-10-16T16:35:51Z</time>
</trkpt>
<trkpt lat="42.88562768645693" lon="-2.8765371784285896">
<ele>900</ele>
<time>2013-10-16T16:35:53Z</time>
</trkpt>
<trkpt lat="42.88562768645693" lon="-2.8765371784285896">
<ele>900</ele>
<time>2013-10-16T16:35:55Z</time>
</trkpt>
<trkpt lat="42.88562768645693" lon="-2.8765371784285896">
<ele>900</ele>
<time>2013-10-16T16:35:57Z</time>
</trkpt>
<trkpt lat="42.88562768645693" lon="-2.8765371784285896">
<ele>900</ele>
<time>2013-10-16T16:35:59Z</time>
</trkpt>
<trkpt lat="42.88562768645693" lon="-2.8765371784285896">
<ele>900</ele>
<time>2013-10-16T16:36:01Z</time>
</trkpt>
<trkpt lat="42.88562768645693" lon="-2.8765371784285896">
<ele>900</ele>
<time>2013-10-16T16:36:03Z</time>
</trkpt>
<trkpt lat="42.885630827193" lon="-2.8765330669821814">
<ele>900</ele>
<time>2013-10-16T16:36:05Z</time>
</trkpt>
<trkpt lat="42.88563092243595" lon="-2.876534747135653">
<ele>900</ele>
<time>2013-10-16T16:36:07Z</time>
</trkpt>
<trkpt lat="42.88563169513826" lon="-2.8765390172554306">
<ele>900</ele>
<time>2013-10-16T16:36:09Z</time>
</trkpt>
<trkpt lat="42.88563135323828" lon="-2.876540225916748">
<ele>900</ele>
<time>2013-10-16T16:36:11Z</time>
</trkpt>
<trkpt lat="42.8856284262099" lon="-2.876537209711577">
<ele>900</ele>
<time>2013-10-16T16:36:13Z</time>
</trkpt>
<trkpt lat="42.88562565064767" lon="-2.876542560903014">
<ele>900</ele>
<time>2013-10-16T16:36:15Z</time>
</trkpt>
<trkpt lat="42.88562645313149" lon="-2.876544114857989">
<ele>900</ele>
<time>2013-10-16T16:36:17Z</time>
</trkpt>
<trkpt lat="42.885629596467986" lon="-2.8765448056323675">
<ele>900</ele>
<time>2013-10-16T16:36:19Z</time>
</trkpt>
<trkpt lat="42.88563129403447" lon="-2.8765391897622905">
<ele>900</ele>
<time>2013-10-16T16:36:21Z</time>
</trkpt>
<trkpt lat="42.88563470899439" lon="-2.876534174446002">
<ele>900</ele>
<time>2013-10-16T16:36:23Z</time>
</trkpt>
<trkpt lat="42.88563701043644" lon="-2.8765344805324524">
<ele>900</ele>
<time>2013-10-16T16:36:25Z</time>
</trkpt>
<trkpt lat="42.88563814060074" lon="-2.876533497671832">
<ele>900</ele>
<time>2013-10-16T16:36:27Z</time>
</trkpt>
<trkpt lat="42.885641027467784" lon="-2.876534303790906">
<ele>900</ele>
<time>2013-10-16T16:36:29Z</time>
</trkpt>
<trkpt lat="42.885641894743245" lon="-2.876533948307833">
<ele>900</ele>
<time>2013-10-16T16:36:31Z</time>
</trkpt>
<trkpt lat="42.88564303241149" lon="-2.8765316637719796">
<ele>900</ele>
<time>2013-10-16T16:36:33Z</time>
</trkpt>
<trkpt lat="42.88564259158587" lon="-2.8765255558728087">
<ele>900</ele>
<time>2013-10-16T16:36:35Z</time>
</trkpt>
<trkpt lat="42.8856416636394" lon="-2.876525188190409">
<ele>900</ele>
<time>2013-10-16T16:36:37Z</time>
</trkpt>
<trkpt lat="42.88563980186832" lon="-2.8765283557274444">
<ele>900</ele>
<time>2013-10-16T16:36:39Z</time>
</trkpt>
<trkpt lat="42.88564086250939" lon="-2.87652781831882">
<ele>900</ele>
<time>2013-10-16T16:36:41Z</time>
</trkpt>
<trkpt lat="42.88564205531818" lon="-2.876524756301118">
<ele>900</ele>
<time>2013-10-16T16:36:43Z</time>
</trkpt>
<trkpt lat="42.885641390141686" lon="-2.876522278618812">
<ele>900</ele>
<time>2013-10-16T16:36:45Z</time>
</trkpt>
<trkpt lat="42.88564020864058" lon="-2.876520229038965">
<ele>900</ele>
<time>2013-10-16T16:36:47Z</time>
</trkpt>
<trkpt lat="42.88563146387125" lon="-2.876512535333496">
<ele>900</ele>
<time>2013-10-16T16:36:49Z</time>
</trkpt>
<trkpt lat="42.88560669776051" lon="-2.8765462316300874">
<ele>900</ele>
<time>2013-10-16T16:36:51Z</time>
</trkpt>
<trkpt lat="42.88560474832695" lon="-2.8765496761751033">
<ele>900</ele>
<time>2013-10-16T16:36:53Z</time>
</trkpt>
<trkpt lat="42.88560450371949" lon="-2.876542004694105">
<ele>900</ele>
<time>2013-10-16T16:36:55Z</time>
</trkpt>
<trkpt lat="42.885608952889285" lon="-2.87653286186093">
<ele>900</ele>
<time>2013-10-16T16:36:57Z</time>
</trkpt>
<trkpt lat="42.88561212019714" lon="-2.876526938749399">
<ele>900</ele>
<time>2013-10-16T16:36:59Z</time>
</trkpt>
<trkpt lat="42.88561409405178" lon="-2.8765247040326556">
<ele>900</ele>
<time>2013-10-16T16:37:01Z</time>
</trkpt>
<trkpt lat="42.885616880513844" lon="-2.8765245930950956">
<ele>900</ele>
<time>2013-10-16T16:37:03Z</time>
</trkpt>
<trkpt lat="42.88561902457154" lon="-2.876525938912383">
<ele>900</ele>
<time>2013-10-16T16:37:05Z</time>
</trkpt>
<trkpt lat="42.88561620695978" lon="-2.876531265813295">
<ele>900</ele>
<time>2013-10-16T16:37:07Z</time>
</trkpt>
<trkpt lat="42.88561466348548" lon="-2.876533028551241">
<ele>900</ele>
<time>2013-10-16T16:37:09Z</time>
</trkpt>
<trkpt lat="42.88561521010805" lon="-2.8765295101730812">
<ele>900</ele>
<time>2013-10-16T16:37:11Z</time>
</trkpt>
<trkpt lat="42.88561536656561" lon="-2.8765290671200443">
<ele>900</ele>
<time>2013-10-16T16:37:13Z</time>
</trkpt>
<trkpt lat="42.885613960126214" lon="-2.8765277469088737">
<ele>900</ele>
<time>2013-10-16T16:37:15Z</time>
</trkpt>
<trkpt lat="42.885610803559565" lon="-2.8765246095841293">
<ele>900</ele>
<time>2013-10-16T16:37:17Z</time>
</trkpt>
<trkpt lat="42.88561100609221" lon="-2.876521657118958">
<ele>900</ele>
<time>2013-10-16T16:37:19Z</time>
</trkpt>
<trkpt lat="42.88561024499918" lon="-2.8764863838478063">
<ele>900</ele>
<time>2013-10-16T16:37:21Z</time>
</trkpt>
<trkpt lat="42.885610185343786" lon="-2.87646967633596">
<ele>900</ele>
<time>2013-10-16T16:37:23Z</time>
</trkpt>
<trkpt lat="42.88560849891467" lon="-2.876482357877666">
<ele>900</ele>
<time>2013-10-16T16:37:25Z</time>
</trkpt>
<trkpt lat="42.88560974661349" lon="-2.87649119144602">
<ele>900</ele>
<time>2013-10-16T16:37:27Z</time>
</trkpt>
<trkpt lat="42.88561423483124" lon="-2.8765366190560915">
<ele>900</ele>
<time>2013-10-16T16:37:29Z</time>
</trkpt>
<trkpt lat="42.88564368770421" lon="-2.87655462078456">
<ele>900</ele>
<time>2013-10-16T16:37:31Z</time>
</trkpt>
<trkpt lat="42.885647955805744" lon="-2.8765690683573433">
<ele>901</ele>
<time>2013-10-16T16:37:33Z</time>
</trkpt>
<trkpt lat="42.88564397669415" lon="-2.876600415962571">
<ele>901</ele>
<time>2013-10-16T16:37:35Z</time>
</trkpt>
<trkpt lat="42.88564599772161" lon="-2.876642758847594">
<ele>901</ele>
<time>2013-10-16T16:37:37Z</time>
</trkpt>
<trkpt lat="42.8856526322113" lon="-2.876676456093445">
<ele>901</ele>
<time>2013-10-16T16:37:39Z</time>
</trkpt>
<trkpt lat="42.88563434022435" lon="-2.8767179403255247">
<ele>901</ele>
<time>2013-10-16T16:37:41Z</time>
</trkpt>
<trkpt lat="42.88557999818955" lon="-2.876760781743862">
<ele>902</ele>
<time>2013-10-16T16:37:43Z</time>
</trkpt>
<trkpt lat="42.885533456053" lon="-2.8767784743692477">
<ele>902</ele>
<time>2013-10-16T16:37:45Z</time>
</trkpt>
<trkpt lat="42.88547435451703" lon="-2.876792126567344">
<ele>902</ele>
<time>2013-10-16T16:37:47Z</time>
</trkpt>
<trkpt lat="42.88540529293444" lon="-2.8768091349486626">
<ele>902</ele>
<time>2013-10-16T16:37:49Z</time>
</trkpt>
<trkpt lat="42.88535081524301" lon="-2.876854168143141">
<ele>903</ele>
<time>2013-10-16T16:37:51Z</time>
</trkpt>
<trkpt lat="42.88529603416868" lon="-2.8769625466450925">
<ele>904</ele>
<time>2013-10-16T16:37:53Z</time>
</trkpt>
<trkpt lat="42.88520938737415" lon="-2.877010462217729">
<ele>906</ele>
<time>2013-10-16T16:37:55Z</time>
</trkpt>
<trkpt lat="42.88506534918748" lon="-2.8769747120310036">
<ele>910</ele>
<time>2013-10-16T16:37:57Z</time>
</trkpt>
<trkpt lat="42.88490614260044" lon="-2.87691963270289">
<ele>913</ele>
<time>2013-10-16T16:37:59Z</time>
</trkpt>
<trkpt lat="42.88473892309341" lon="-2.87687938319429">
<ele>915</ele>
<time>2013-10-16T16:38:01Z</time>
</trkpt>
<trkpt lat="42.884596438998074" lon="-2.876857061118546">
<ele>916</ele>
<time>2013-10-16T16:38:03Z</time>
</trkpt>
<trkpt lat="42.88445391132512" lon="-2.876821877394578">
<ele>918</ele>
<time>2013-10-16T16:38:05Z</time>
</trkpt>
<trkpt lat="42.88429098108675" lon="-2.876761687392437">
<ele>919</ele>
<time>2013-10-16T16:38:07Z</time>
</trkpt>
<trkpt lat="42.88412448710839" lon="-2.8767006460154194">
<ele>921</ele>
<time>2013-10-16T16:38:09Z</time>
</trkpt>
<trkpt lat="42.88398165983612" lon="-2.876659113761743">
<ele>924</ele>
<time>2013-10-16T16:38:11Z</time>
</trkpt>
<trkpt lat="42.88385717573751" lon="-2.8766190656572577">
<ele>926</ele>
<time>2013-10-16T16:38:13Z</time>
</trkpt>
<trkpt lat="42.88369730558394" lon="-2.8765527345925466">
<ele>927</ele>
<time>2013-10-16T16:38:15Z</time>
</trkpt>
<trkpt lat="42.88353347660255" lon="-2.8764824461711798">
<ele>928</ele>
<time>2013-10-16T16:38:17Z</time>
</trkpt>
<trkpt lat="42.88337184034089" lon="-2.876414364299828">
<ele>929</ele>
<time>2013-10-16T16:38:19Z</time>
</trkpt>
<trkpt lat="42.88322690660202" lon="-2.876362154123766">
<ele>929</ele>
<time>2013-10-16T16:38:21Z</time>
</trkpt>
<trkpt lat="42.88307866681719" lon="-2.8763180058602993">
<ele>930</ele>
<time>2013-10-16T16:38:23Z</time>
</trkpt>
<trkpt lat="42.88289405410072" lon="-2.876265148161611">
<ele>930</ele>
<time>2013-10-16T16:38:25Z</time>
</trkpt>
<trkpt lat="42.882717725723026" lon="-2.876225855245596">
<ele>931</ele>
<time>2013-10-16T16:38:27Z</time>
</trkpt>
<trkpt lat="42.88258376833838" lon="-2.8762156013081888">
<ele>935</ele>
<time>2013-10-16T16:38:29Z</time>
</trkpt>
<trkpt lat="42.88249971322938" lon="-2.8762263119500964">
<ele>939</ele>
<time>2013-10-16T16:38:31Z</time>
</trkpt>
<trkpt lat="42.882399142449884" lon="-2.8762341737607575">
<ele>943</ele>
<time>2013-10-16T16:38:33Z</time>
</trkpt>
<trkpt lat="42.88231388850225" lon="-2.8762654885964327">
<ele>946</ele>
<time>2013-10-16T16:38:35Z</time>
</trkpt>
<trkpt lat="42.882301888514306" lon="-2.8763574858076613">
<ele>946</ele>
<time>2013-10-16T16:38:37Z</time>
</trkpt>
<trkpt lat="42.88235186981524" lon="-2.8764623498486666">
<ele>945</ele>
<time>2013-10-16T16:38:39Z</time>
</trkpt>
<trkpt lat="42.882457504539175" lon="-2.8765017140508937">
<ele>944</ele>
<time>2013-10-16T16:38:41Z</time>
</trkpt>
<trkpt lat="42.88260397603771" lon="-2.876502280729275">
<ele>943</ele>
<time>2013-10-16T16:38:43Z</time>
</trkpt>
<trkpt lat="42.88276738476193" lon="-2.876498107047211">
<ele>944</ele>
<time>2013-10-16T16:38:45Z</time>
</trkpt>
<trkpt lat="42.882937746256765" lon="-2.8765000633295634">
<ele>946</ele>
<time>2013-10-16T16:38:47Z</time>
</trkpt>
<trkpt lat="42.88309084218329" lon="-2.8765171088219246">
<ele>949</ele>
<time>2013-10-16T16:38:49Z</time>
</trkpt>
<trkpt lat="42.8832154764604" lon="-2.876541119817752">
<ele>953</ele>
<time>2013-10-16T16:38:51Z</time>
</trkpt>
<trkpt lat="42.88333866952166" lon="-2.8765691032786744">
<ele>956</ele>
<time>2013-10-16T16:38:53Z</time>
</trkpt>
<trkpt lat="42.88343369471914" lon="-2.8766072341071878">
<ele>959</ele>
<time>2013-10-16T16:38:55Z</time>
</trkpt>
<trkpt lat="42.88343763056692" lon="-2.876771304095438">
<ele>960</ele>
<time>2013-10-16T16:38:57Z</time>
</trkpt>
<trkpt lat="42.88332053315085" lon="-2.8769536049523925">
<ele>963</ele>
<time>2013-10-16T16:38:59Z</time>
</trkpt>
<trkpt lat="42.88317739774641" lon="-2.877050068418954">
<ele>966</ele>
<time>2013-10-16T16:39:01Z</time>
</trkpt>
<trkpt lat="42.88302803662059" lon="-2.8770791078005593">
<ele>971</ele>
<time>2013-10-16T16:39:03Z</time>
</trkpt>
<trkpt lat="42.882872854717576" lon="-2.877070535945355">
<ele>977</ele>
<time>2013-10-16T16:39:05Z</time>
</trkpt>
<trkpt lat="42.88271991043946" lon="-2.8770565975984406">
<ele>981</ele>
<time>2013-10-16T16:39:07Z</time>
</trkpt>
<trkpt lat="42.88256317826039" lon="-2.8770514722674982">
<ele>983</ele>
<time>2013-10-16T16:39:09Z</time>
</trkpt>
<trkpt lat="42.88241198635997" lon="-2.8770653725318707">
<ele>985</ele>
<time>2013-10-16T16:39:11Z</time>
</trkpt>
<trkpt lat="42.88227908066282" lon="-2.8770910947987685">
<ele>986</ele>
<time>2013-10-16T16:39:13Z</time>
</trkpt>
<trkpt lat="42.882129323808456" lon="-2.8771298312538747">
<ele>987</ele>
<time>2013-10-16T16:39:15Z</time>
</trkpt>
<trkpt lat="42.881982609686375" lon="-2.8771692365590034">
<ele>988</ele>
<time>2013-10-16T16:39:17Z</time>
</trkpt>
<trkpt lat="42.88183600948352" lon="-2.8772029470166625">
<ele>988</ele>
<time>2013-10-16T16:39:19Z</time>
</trkpt>
<trkpt lat="42.8816971713225" lon="-2.8772297001509743">
<ele>988</ele>
<time>2013-10-16T16:39:21Z</time>
</trkpt>
<trkpt lat="42.88154744555943" lon="-2.877243482848283">
<ele>987</ele>
<time>2013-10-16T16:39:23Z</time>
</trkpt>
<trkpt lat="42.881378553673976" lon="-2.8772456714544195">
<ele>985</ele>
<time>2013-10-16T16:39:25Z</time>
</trkpt>
<trkpt lat="42.88119291033543" lon="-2.8772278791157397">
<ele>984</ele>
<time>2013-10-16T16:39:27Z</time>
</trkpt>
<trkpt lat="42.88101682769369" lon="-2.877192718927317">
<ele>982</ele>
<time>2013-10-16T16:39:29Z</time>
</trkpt>
<trkpt lat="42.88086164889196" lon="-2.877146260785632">
<ele>980</ele>
<time>2013-10-16T16:39:31Z</time>
</trkpt>
<trkpt lat="42.88068310721217" lon="-2.877116553438343">
<ele>979</ele>
<time>2013-10-16T16:39:33Z</time>
</trkpt>
<trkpt lat="42.88050069391223" lon="-2.877114134716606">
<ele>977</ele>
<time>2013-10-16T16:39:35Z</time>
</trkpt>
<trkpt lat="42.88032890985495" lon="-2.8771148770372723">
<ele>976</ele>
<time>2013-10-16T16:39:37Z</time>
</trkpt>
<trkpt lat="42.880146798329356" lon="-2.8770976456238317">
<ele>975</ele>
<time>2013-10-16T16:39:39Z</time>
</trkpt>
<trkpt lat="42.87995397645708" lon="-2.8770643129758615">
<ele>973</ele>
<time>2013-10-16T16:39:41Z</time>
</trkpt>
<trkpt lat="42.879761817043885" lon="-2.877022571547244">
<ele>972</ele>
<time>2013-10-16T16:39:43Z</time>
</trkpt>
<trkpt lat="42.87956698863602" lon="-2.876969788497731">
<ele>970</ele>
<time>2013-10-16T16:39:45Z</time>
</trkpt>
<trkpt lat="42.879373606150615" lon="-2.8768964445855865">
<ele>968</ele>
<time>2013-10-16T16:39:47Z</time>
</trkpt>
<trkpt lat="42.87917578592029" lon="-2.8767936166050703">
<ele>965</ele>
<time>2013-10-16T16:39:49Z</time>
</trkpt>
<trkpt lat="42.87898550448488" lon="-2.876671905907262">
<ele>964</ele>
<time>2013-10-16T16:39:51Z</time>
</trkpt>
<trkpt lat="42.87879397173397" lon="-2.8765375299398577">
<ele>963</ele>
<time>2013-10-16T16:39:53Z</time>
</trkpt>
<trkpt lat="42.87862125393116" lon="-2.8764088949379825">
<ele>962</ele>
<time>2013-10-16T16:39:55Z</time>
</trkpt>
<trkpt lat="42.87844997568791" lon="-2.876260062070917">
<ele>962</ele>
<time>2013-10-16T16:39:57Z</time>
</trkpt>
<trkpt lat="42.878279773795285" lon="-2.8761075055370764">
<ele>961</ele>
<time>2013-10-16T16:39:59Z</time>
</trkpt>
<trkpt lat="42.87810703154812" lon="-2.875948044439992">
<ele>961</ele>
<time>2013-10-16T16:40:01Z</time>
</trkpt>
<trkpt lat="42.87793960848483" lon="-2.8757997979897905">
<ele>959</ele>
<time>2013-10-16T16:40:03Z</time>
</trkpt>
<trkpt lat="42.87775774857967" lon="-2.8756280590927883">
<ele>958</ele>
<time>2013-10-16T16:40:05Z</time>
</trkpt>
<trkpt lat="42.87757716150939" lon="-2.8754453284417916">
<ele>957</ele>
<time>2013-10-16T16:40:07Z</time>
</trkpt>
<trkpt lat="42.87740491873994" lon="-2.8752673207140433">
<ele>956</ele>
<time>2013-10-16T16:40:09Z</time>
</trkpt>
<trkpt lat="42.87725078297264" lon="-2.8751155272475173">
<ele>956</ele>
<time>2013-10-16T16:40:11Z</time>
</trkpt>
<trkpt lat="42.877093593709525" lon="-2.874981725553841">
<ele>956</ele>
<time>2013-10-16T16:40:13Z</time>
</trkpt>
<trkpt lat="42.87693261692949" lon="-2.874850785337841">
<ele>956</ele>
<time>2013-10-16T16:40:15Z</time>
</trkpt>
<trkpt lat="42.87676914705242" lon="-2.8747237039969957">
<ele>957</ele>
<time>2013-10-16T16:40:17Z</time>
</trkpt>
<trkpt lat="42.87660708405215" lon="-2.874610183273469">
<ele>958</ele>
<time>2013-10-16T16:40:19Z</time>
</trkpt>
<trkpt lat="42.876435344207096" lon="-2.8745000541126355">
<ele>959</ele>
<time>2013-10-16T16:40:21Z</time>
</trkpt>
<trkpt lat="42.87627077463318" lon="-2.8744161027576256">
<ele>960</ele>
<time>2013-10-16T16:40:23Z</time>
</trkpt>
<trkpt lat="42.87611000408705" lon="-2.87432313849075">
<ele>961</ele>
<time>2013-10-16T16:40:25Z</time>
</trkpt>
<trkpt lat="42.87592853696205" lon="-2.8741971544901244">
<ele>961</ele>
<time>2013-10-16T16:40:27Z</time>
</trkpt>
<trkpt lat="42.875755609761406" lon="-2.8740782456226524">
<ele>961</ele>
<time>2013-10-16T16:40:29Z</time>
</trkpt>
<trkpt lat="42.87559364202485" lon="-2.8739850684786825">
<ele>962</ele>
<time>2013-10-16T16:40:31Z</time>
</trkpt>
<trkpt lat="42.875405346166445" lon="-2.8738672790604243">
<ele>963</ele>
<time>2013-10-16T16:40:33Z</time>
</trkpt>
<trkpt lat="42.875233866193845" lon="-2.873740102496607">
<ele>964</ele>
<time>2013-10-16T16:40:35Z</time>
</trkpt>
<trkpt lat="42.8750789349715" lon="-2.8736308279530984">
<ele>965</ele>
<time>2013-10-16T16:40:37Z</time>
</trkpt>
<trkpt lat="42.87492071137328" lon="-2.873529045612965">
<ele>966</ele>
<time>2013-10-16T16:40:39Z</time>
</trkpt>
<trkpt lat="42.8747572779841" lon="-2.8734261731069024">
<ele>967</ele>
<time>2013-10-16T16:40:41Z</time>
</trkpt>
<trkpt lat="42.87459420921637" lon="-2.8733343358927654">
<ele>969</ele>
<time>2013-10-16T16:40:43Z</time>
</trkpt>
<trkpt lat="42.8744566388683" lon="-2.8732528926408785">
<ele>971</ele>
<time>2013-10-16T16:40:45Z</time>
</trkpt>
<trkpt lat="42.874294712833176" lon="-2.873176010532116">
<ele>972</ele>
<time>2013-10-16T16:40:47Z</time>
</trkpt>
<trkpt lat="42.8741298403884" lon="-2.8730970674463725">
<ele>974</ele>
<time>2013-10-16T16:40:49Z</time>
</trkpt>
<trkpt lat="42.87398993867142" lon="-2.8730253544456934">
<ele>975</ele>
<time>2013-10-16T16:40:51Z</time>
</trkpt>
<trkpt lat="42.87384644633911" lon="-2.872960650951281">
<ele>977</ele>
<time>2013-10-16T16:40:53Z</time>
</trkpt>
<trkpt lat="42.873687761962636" lon="-2.8728995627747236">
<ele>979</ele>
<time>2013-10-16T16:40:55Z</time>
</trkpt>
<trkpt lat="42.8735276228017" lon="-2.872848471254901">
<ele>981</ele>
<time>2013-10-16T16:40:57Z</time>
</trkpt>
<trkpt lat="42.873379622572045" lon="-2.8728591891189805">
<ele>984</ele>
<time>2013-10-16T16:40:59Z</time>
</trkpt>
<trkpt lat="42.873243529554124" lon="-2.8728674138904884">
<ele>988</ele>
<time>2013-10-16T16:41:01Z</time>
</trkpt>
<trkpt lat="42.87311565767371" lon="-2.8729119205739626">
<ele>991</ele>
<time>2013-10-16T16:41:03Z</time>
</trkpt>
<trkpt lat="42.873052438894035" lon="-2.8730707810053895">
<ele>994</ele>
<time>2013-10-16T16:41:05Z</time>
</trkpt>
<trkpt lat="42.87311773869695" lon="-2.873185271921249">
<ele>997</ele>
<time>2013-10-16T16:41:07Z</time>
</trkpt>
<trkpt lat="42.87325567085201" lon="-2.8731394331390496">
<ele>999</ele>
<time>2013-10-16T16:41:09Z</time>
</trkpt>
<trkpt lat="42.873339674848246" lon="-2.8730931626860037">
<ele>1000</ele>
<time>2013-10-16T16:41:11Z</time>
</trkpt>
<trkpt lat="42.87341035075703" lon="-2.8731057540891958">
<ele>1000</ele>
<time>2013-10-16T16:41:13Z</time>
</trkpt>
<trkpt lat="42.87348374707427" lon="-2.8731385411439208">
<ele>1003</ele>
<time>2013-10-16T16:41:15Z</time>
</trkpt>
<trkpt lat="42.87356084809394" lon="-2.8731707088338636">
<ele>1005</ele>
<time>2013-10-16T16:41:17Z</time>
</trkpt>
<trkpt lat="42.87364880455261" lon="-2.8731985509914417">
<ele>1007</ele>
<time>2013-10-16T16:41:19Z</time>
</trkpt>
<trkpt lat="42.87372591838423" lon="-2.8732287238494583">
<ele>1009</ele>
<time>2013-10-16T16:41:21Z</time>
</trkpt>
<trkpt lat="42.87380425046024" lon="-2.873264310082484">
<ele>1012</ele>
<time>2013-10-16T16:41:23Z</time>
</trkpt>
<trkpt lat="42.87389205326325" lon="-2.873307836091904">
<ele>1015</ele>
<time>2013-10-16T16:41:25Z</time>
</trkpt>
<trkpt lat="42.87395538305281" lon="-2.873369515193195">
<ele>1015</ele>
<time>2013-10-16T16:41:27Z</time>
</trkpt>
<trkpt lat="42.87400920110856" lon="-2.873439756159973">
<ele>1015</ele>
<time>2013-10-16T16:41:29Z</time>
</trkpt>
<trkpt lat="42.8740692815052" lon="-2.8735129651737967">
<ele>1019</ele>
<time>2013-10-16T16:41:31Z</time>
</trkpt>
<trkpt lat="42.87413196718112" lon="-2.8735904932431477">
<ele>1022</ele>
<time>2013-10-16T16:41:33Z</time>
</trkpt>
<trkpt lat="42.87418953392997" lon="-2.8736782006342736">
<ele>1025</ele>
<time>2013-10-16T16:41:36Z</time>
</trkpt>
<trkpt lat="42.874239288029145" lon="-2.8737430363131162">
<ele>1028</ele>
<time>2013-10-16T16:41:38Z</time>
</trkpt>
<trkpt lat="42.87431984481509" lon="-2.8738039068710264">
<ele>1029</ele>
<time>2013-10-16T16:41:40Z</time>
</trkpt>
<trkpt lat="42.87441222578373" lon="-2.8738609801647925">
<ele>1030</ele>
<time>2013-10-16T16:41:42Z</time>
</trkpt>
<trkpt lat="42.87451336202403" lon="-2.873919650459637">
<ele>1031</ele>
<time>2013-10-16T16:41:44Z</time>
</trkpt>
<trkpt lat="42.87461004700665" lon="-2.8739556367180463">
<ele>1032</ele>
<time>2013-10-16T16:41:46Z</time>
</trkpt>
<trkpt lat="42.874708750931994" lon="-2.8739800821015895">
<ele>1032</ele>
<time>2013-10-16T16:41:48Z</time>
</trkpt>
<trkpt lat="42.87482994616572" lon="-2.8740152177507183">
<ele>1032</ele>
<time>2013-10-16T16:41:50Z</time>
</trkpt>
<trkpt lat="42.87494786251801" lon="-2.8740693179877717">
<ele>1032</ele>
<time>2013-10-16T16:41:52Z</time>
</trkpt>
<trkpt lat="42.87495305955793" lon="-2.874217452454176">
<ele>1033</ele>
<time>2013-10-16T16:41:54Z</time>
</trkpt>
<trkpt lat="42.87484027829385" lon="-2.8743562433166074">
<ele>1033</ele>
<time>2013-10-16T16:41:56Z</time>
</trkpt>
<trkpt lat="42.874650043299376" lon="-2.8744204030996547">
<ele>1034</ele>
<time>2013-10-16T16:41:58Z</time>
</trkpt>
<trkpt lat="42.87444548175409" lon="-2.8743881601007164">
<ele>1035</ele>
<time>2013-10-16T16:42:00Z</time>
</trkpt>
<trkpt lat="42.87424839688768" lon="-2.8743283359033054">
<ele>1036</ele>
<time>2013-10-16T16:42:02Z</time>
</trkpt>
<trkpt lat="42.87405276619378" lon="-2.8742539052373877">
<ele>1038</ele>
<time>2013-10-16T16:42:04Z</time>
</trkpt>
<trkpt lat="42.87388263820981" lon="-2.874193377173064">
<ele>1041</ele>
<time>2013-10-16T16:42:06Z</time>
</trkpt>
<trkpt lat="42.87370667139225" lon="-2.874139846354815">
<ele>1043</ele>
<time>2013-10-16T16:42:08Z</time>
</trkpt>
<trkpt lat="42.87353273865023" lon="-2.874089524340072">
<ele>1046</ele>
<time>2013-10-16T16:42:10Z</time>
</trkpt>
<trkpt lat="42.87336147972638" lon="-2.87404891009589">
<ele>1049</ele>
<time>2013-10-16T16:42:12Z</time>
</trkpt>
<trkpt lat="42.87319612939211" lon="-2.8740227932185056">
<ele>1052</ele>
<time>2013-10-16T16:42:14Z</time>
</trkpt>
<trkpt lat="42.87303455339736" lon="-2.8740571696167763">
<ele>1055</ele>
<time>2013-10-16T16:42:16Z</time>
</trkpt>
<trkpt lat="42.87290888335961" lon="-2.874138614479052">
<ele>1057</ele>
<time>2013-10-16T16:42:18Z</time>
</trkpt>
<trkpt lat="42.87280365107761" lon="-2.874255434577857">
<ele>1058</ele>
<time>2013-10-16T16:42:20Z</time>
</trkpt>
<trkpt lat="42.872754024545515" lon="-2.874368629176376">
<ele>1059</ele>
<time>2013-10-16T16:42:22Z</time>
</trkpt>
<trkpt lat="42.87278225435267" lon="-2.874510899402935">
<ele>1059</ele>
<time>2013-10-16T16:42:24Z</time>
</trkpt>
<trkpt lat="42.872869645759515" lon="-2.8746321181440613">
<ele>1059</ele>
<time>2013-10-16T16:42:26Z</time>
</trkpt>
<trkpt lat="42.8730127300742" lon="-2.8746668311664894">
<ele>1059</ele>
<time>2013-10-16T16:42:28Z</time>
</trkpt>
<trkpt lat="42.87316619516279" lon="-2.874613487054032">
<ele>1058</ele>
<time>2013-10-16T16:42:30Z</time>
</trkpt>
<trkpt lat="42.87331837309459" lon="-2.874490735585205">
<ele>1057</ele>
<time>2013-10-16T16:42:32Z</time>
</trkpt>
<trkpt lat="42.87343208182959" lon="-2.874251235950277">
<ele>1056</ele>
<time>2013-10-16T16:42:34Z</time>
</trkpt>
<trkpt lat="42.87343718913997" lon="-2.8739403414837965">
<ele>1055</ele>
<time>2013-10-16T16:42:36Z</time>
</trkpt>
<trkpt lat="42.873364296776565" lon="-2.8736226506659976">
<ele>1054</ele>
<time>2013-10-16T16:42:38Z</time>
</trkpt>
<trkpt lat="42.87324561987238" lon="-2.8733824359176348">
<ele>1054</ele>
<time>2013-10-16T16:42:40Z</time>
</trkpt>
<trkpt lat="42.873087778370746" lon="-2.873184406332341">
<ele>1056</ele>
<time>2013-10-16T16:42:42Z</time>
</trkpt>
<trkpt lat="42.87291541823986" lon="-2.873055976740871">
<ele>1057</ele>
<time>2013-10-16T16:42:44Z</time>
</trkpt>
<trkpt lat="42.87275902198769" lon="-2.8729771046459995">
<ele>1060</ele>
<time>2013-10-16T16:42:46Z</time>
</trkpt>
<trkpt lat="42.87259655344101" lon="-2.872909306280346">
<ele>1062</ele>
<time>2013-10-16T16:42:48Z</time>
</trkpt>
<trkpt lat="42.87243842488866" lon="-2.872869952843645">
<ele>1064</ele>
<time>2013-10-16T16:42:50Z</time>
</trkpt>
<trkpt lat="42.87228747760839" lon="-2.872845222779001">
<ele>1065</ele>
<time>2013-10-16T16:42:52Z</time>
</trkpt>
<trkpt lat="42.8721314523272" lon="-2.8728227263440114">
<ele>1066</ele>
<time>2013-10-16T16:42:54Z</time>
</trkpt>
<trkpt lat="42.87197865026815" lon="-2.87280648836701">
<ele>1067</ele>
<time>2013-10-16T16:42:56Z</time>
</trkpt>
<trkpt lat="42.871832724648876" lon="-2.8728012041203104">
<ele>1068</ele>
<time>2013-10-16T16:42:58Z</time>
</trkpt>
<trkpt lat="42.871693873305404" lon="-2.872811987642753">
<ele>1070</ele>
<time>2013-10-16T16:43:00Z</time>
</trkpt>
<trkpt lat="42.871556548446705" lon="-2.8728394218551387">
<ele>1072</ele>
<time>2013-10-16T16:43:02Z</time>
</trkpt>
<trkpt lat="42.87138920723489" lon="-2.872881894194465">
<ele>1074</ele>
<time>2013-10-16T16:43:04Z</time>
</trkpt>
<trkpt lat="42.87120687716871" lon="-2.8729145998207577">
<ele>1078</ele>
<time>2013-10-16T16:43:06Z</time>
</trkpt>
<trkpt lat="42.87105966633332" lon="-2.872940300400426">
<ele>1082</ele>
<time>2013-10-16T16:43:08Z</time>
</trkpt>
<trkpt lat="42.87093126143454" lon="-2.8729765933179183">
<ele>1086</ele>
<time>2013-10-16T16:43:10Z</time>
</trkpt>
<trkpt lat="42.870838284254845" lon="-2.8730592169591196">
<ele>1090</ele>
<time>2013-10-16T16:43:12Z</time>
</trkpt>
<trkpt lat="42.87081703151164" lon="-2.87320196079496">
<ele>1094</ele>
<time>2013-10-16T16:43:14Z</time>
</trkpt>
<trkpt lat="42.87091278502827" lon="-2.8733262350307425">
<ele>1096</ele>
<time>2013-10-16T16:43:16Z</time>
</trkpt>
<trkpt lat="42.87103993608962" lon="-2.8733954457246256">
<ele>1097</ele>
<time>2013-10-16T16:43:18Z</time>
</trkpt>
<trkpt lat="42.87119728420487" lon="-2.8733586808743516">
<ele>1097</ele>
<time>2013-10-16T16:43:20Z</time>
</trkpt>
<trkpt lat="42.87137658842905" lon="-2.8732083827829697">
<ele>1097</ele>
<time>2013-10-16T16:43:22Z</time>
</trkpt>
<trkpt lat="42.87149270299762" lon="-2.87294432179553">
<ele>1096</ele>
<time>2013-10-16T16:43:24Z</time>
</trkpt>
<trkpt lat="42.87151204933148" lon="-2.8726343084988426">
<ele>1094</ele>
<time>2013-10-16T16:43:26Z</time>
</trkpt>
<trkpt lat="42.87146436199479" lon="-2.8723187309516347">
<ele>1094</ele>
<time>2013-10-16T16:43:28Z</time>
</trkpt>
<trkpt lat="42.871351488107116" lon="-2.872104200661275">
<ele>1094</ele>
<time>2013-10-16T16:43:30Z</time>
</trkpt>
<trkpt lat="42.87117165508901" lon="-2.8720459831623386">
<ele>1096</ele>
<time>2013-10-16T16:43:32Z</time>
</trkpt>
<trkpt lat="42.87100133642185" lon="-2.8720174771382077">
<ele>1100</ele>
<time>2013-10-16T16:43:34Z</time>
</trkpt>
<trkpt lat="42.87084227049661" lon="-2.8720320358178544">
<ele>1103</ele>
<time>2013-10-16T16:43:36Z</time>
</trkpt>
<trkpt lat="42.87069670723998" lon="-2.8720722374257837">
<ele>1107</ele>
<time>2013-10-16T16:43:38Z</time>
</trkpt>
<trkpt lat="42.87057043876847" lon="-2.8721373317679397">
<ele>1110</ele>
<time>2013-10-16T16:43:40Z</time>
</trkpt>
<trkpt lat="42.870462706920065" lon="-2.872212803204433">
<ele>1113</ele>
<time>2013-10-16T16:43:42Z</time>
</trkpt>
<trkpt lat="42.87035853122368" lon="-2.8722942842425883">
<ele>1116</ele>
<time>2013-10-16T16:43:44Z</time>
</trkpt>
<trkpt lat="42.87025967357188" lon="-2.8723723309542653">
<ele>1119</ele>
<time>2013-10-16T16:43:46Z</time>
</trkpt>
<trkpt lat="42.87016601983538" lon="-2.8724548833131585">
<ele>1122</ele>
<time>2013-10-16T16:43:48Z</time>
</trkpt>
<trkpt lat="42.87007192688539" lon="-2.872541113197197">
<ele>1125</ele>
<time>2013-10-16T16:43:50Z</time>
</trkpt>
<trkpt lat="42.86997342138587" lon="-2.8726188276838363">
<ele>1128</ele>
<time>2013-10-16T16:43:52Z</time>
</trkpt>
<trkpt lat="42.8698491673892" lon="-2.872687424912634">
<ele>1129</ele>
<time>2013-10-16T16:43:54Z</time>
</trkpt>
<trkpt lat="42.86972616197375" lon="-2.8727304320126406">
<ele>1129</ele>
<time>2013-10-16T16:43:56Z</time>
</trkpt>
<trkpt lat="42.86960215558309" lon="-2.872762696257067">
<ele>1129</ele>
<time>2013-10-16T16:43:58Z</time>
</trkpt>
<trkpt lat="42.869502594689536" lon="-2.8727933204533556">
<ele>1131</ele>
<time>2013-10-16T16:44:00Z</time>
</trkpt>
<trkpt lat="42.86942224474254" lon="-2.872860326909493">
<ele>1132</ele>
<time>2013-10-16T16:44:02Z</time>
</trkpt>
<trkpt lat="42.86934746556028" lon="-2.8729433370157187">
<ele>1133</ele>
<time>2013-10-16T16:44:04Z</time>
</trkpt>
<trkpt lat="42.86928627535859" lon="-2.8730307439258533">
<ele>1135</ele>
<time>2013-10-16T16:44:06Z</time>
</trkpt>
<trkpt lat="42.86927398791032" lon="-2.8731365679814673">
<ele>1136</ele>
<time>2013-10-16T16:44:08Z</time>
</trkpt>
<trkpt lat="42.869312672582296" lon="-2.8732603396175">
<ele>1137</ele>
<time>2013-10-16T16:44:10Z</time>
</trkpt>
<trkpt lat="42.869425912993606" lon="-2.8733226547816635">
<ele>1138</ele>
<time>2013-10-16T16:44:12Z</time>
</trkpt>
<trkpt lat="42.86958871205314" lon="-2.8733149793163215">
<ele>1139</ele>
<time>2013-10-16T16:44:14Z</time>
</trkpt>
<trkpt lat="42.86975363482808" lon="-2.8732305805802625">
<ele>1138</ele>
<time>2013-10-16T16:44:16Z</time>
</trkpt>
<trkpt lat="42.869920306284236" lon="-2.8730170733207148">
<ele>1138</ele>
<time>2013-10-16T16:44:18Z</time>
</trkpt>
<trkpt lat="42.870006584627106" lon="-2.872734862779535">
<ele>1138</ele>
<time>2013-10-16T16:44:20Z</time>
</trkpt>
<trkpt lat="42.87000715942835" lon="-2.872398102195184">
<ele>1139</ele>
<time>2013-10-16T16:44:22Z</time>
</trkpt>
<trkpt lat="42.86991371157417" lon="-2.8721362810636473">
<ele>1140</ele>
<time>2013-10-16T16:44:24Z</time>
</trkpt>
<trkpt lat="42.86978129494009" lon="-2.871965662698166">
<ele>1140</ele>
<time>2013-10-16T16:44:26Z</time>
</trkpt>
<trkpt lat="42.86964242246801" lon="-2.871928540014139">
<ele>1142</ele>
<time>2013-10-16T16:44:28Z</time>
</trkpt>
<trkpt lat="42.86950970439801" lon="-2.8719750741285206">
<ele>1143</ele>
<time>2013-10-16T16:44:30Z</time>
</trkpt>
<trkpt lat="42.86943025767279" lon="-2.8720524087792576">
<ele>1145</ele>
<time>2013-10-16T16:44:32Z</time>
</trkpt>
<trkpt lat="42.869369626257544" lon="-2.872147374446361">
<ele>1147</ele>
<time>2013-10-16T16:44:34Z</time>
</trkpt>
<trkpt lat="42.869323859978934" lon="-2.872261780699209">
<ele>1150</ele>
<time>2013-10-16T16:44:36Z</time>
</trkpt>
<trkpt lat="42.86929657580264" lon="-2.8723818438756243">
<ele>1153</ele>
<time>2013-10-16T16:44:38Z</time>
</trkpt>
<trkpt lat="42.86934303838602" lon="-2.8725213147345134">
<ele>1155</ele>
<time>2013-10-16T16:44:40Z</time>
</trkpt>
<trkpt lat="42.86943919586389" lon="-2.8726005716360814">
<ele>1157</ele>
<time>2013-10-16T16:44:42Z</time>
</trkpt>
<trkpt lat="42.86958632740587" lon="-2.872619201631872">
<ele>1159</ele>
<time>2013-10-16T16:44:44Z</time>
</trkpt>
<trkpt lat="42.869769025976076" lon="-2.8725468341865388">
<ele>1160</ele>
<time>2013-10-16T16:44:46Z</time>
</trkpt>
<trkpt lat="42.86994615381713" lon="-2.8723295737705685">
<ele>1160</ele>
<time>2013-10-16T16:44:48Z</time>
</trkpt>
<trkpt lat="42.87000178736992" lon="-2.872027377990051">
<ele>1160</ele>
<time>2013-10-16T16:44:50Z</time>
</trkpt>
<trkpt lat="42.86995038784472" lon="-2.8716992907871783">
<ele>1159</ele>
<time>2013-10-16T16:44:52Z</time>
</trkpt>
<trkpt lat="42.86983943813875" lon="-2.8714735065014168">
<ele>1158</ele>
<time>2013-10-16T16:44:54Z</time>
</trkpt>
<trkpt lat="42.86967002628612" lon="-2.871380057836859">
<ele>1158</ele>
<time>2013-10-16T16:44:56Z</time>
</trkpt>
<trkpt lat="42.86951552137988" lon="-2.871381140354127">
<ele>1159</ele>
<time>2013-10-16T16:44:58Z</time>
</trkpt>
<trkpt lat="42.86940808358201" lon="-2.8714130244442835">
<ele>1162</ele>
<time>2013-10-16T16:45:00Z</time>
</trkpt>
<trkpt lat="42.869322600885035" lon="-2.871489550120307">
<ele>1165</ele>
<time>2013-10-16T16:45:02Z</time>
</trkpt>
<trkpt lat="42.86925757537146" lon="-2.8715920055294943">
<ele>1167</ele>
<time>2013-10-16T16:45:04Z</time>
</trkpt>
<trkpt lat="42.869223299273685" lon="-2.871669111252551">
<ele>1167</ele>
<time>2013-10-16T16:45:06Z</time>
</trkpt>
<trkpt lat="42.8691810234412" lon="-2.8717642514506854">
<ele>1168</ele>
<time>2013-10-16T16:45:08Z</time>
</trkpt>
<trkpt lat="42.869135355934816" lon="-2.871868648814429">
<ele>1169</ele>
<time>2013-10-16T16:45:10Z</time>
</trkpt>
<trkpt lat="42.86909264702198" lon="-2.8719702752331715">
<ele>1170</ele>
<time>2013-10-16T16:45:12Z</time>
</trkpt>
<trkpt lat="42.86905805801169" lon="-2.872065552124316">
<ele>1170</ele>
<time>2013-10-16T16:45:14Z</time>
</trkpt>
<trkpt lat="42.86902033622345" lon="-2.872165275079983">
<ele>1171</ele>
<time>2013-10-16T16:45:16Z</time>
</trkpt>
<trkpt lat="42.86898151633063" lon="-2.872260160831463">
<ele>1173</ele>
<time>2013-10-16T16:45:18Z</time>
</trkpt>
<trkpt lat="42.8689330943098" lon="-2.8723732217362974">
<ele>1175</ele>
<time>2013-10-16T16:45:20Z</time>
</trkpt>
<trkpt lat="42.86891321869469" lon="-2.872472643488581">
<ele>1177</ele>
<time>2013-10-16T16:45:22Z</time>
</trkpt>
<trkpt lat="42.868939065419255" lon="-2.8725578335828374">
<ele>1177</ele>
<time>2013-10-16T16:45:24Z</time>
</trkpt>
<trkpt lat="42.869010990826105" lon="-2.872626398127384">
<ele>1179</ele>
<time>2013-10-16T16:45:26Z</time>
</trkpt>
<trkpt lat="42.86914453727534" lon="-2.87265896855402">
<ele>1179</ele>
<time>2013-10-16T16:45:28Z</time>
</trkpt>
<trkpt lat="42.869325157523356" lon="-2.872584935168856">
<ele>1179</ele>
<time>2013-10-16T16:45:30Z</time>
</trkpt>
<trkpt lat="42.8694925265627" lon="-2.872387718798107">
<ele>1178</ele>
<time>2013-10-16T16:45:32Z</time>
</trkpt>
<trkpt lat="42.869591361867755" lon="-2.8720342695849976">
<ele>1177</ele>
<time>2013-10-16T16:45:34Z</time>
</trkpt>
<trkpt lat="42.869589626647816" lon="-2.871645320593286">
<ele>1176</ele>
<time>2013-10-16T16:45:36Z</time>
</trkpt>
<trkpt lat="42.86948369407949" lon="-2.871380074928698">
<ele>1175</ele>
<time>2013-10-16T16:45:38Z</time>
</trkpt>
<trkpt lat="42.869317486473726" lon="-2.8712707267864492">
<ele>1175</ele>
<time>2013-10-16T16:45:40Z</time>
</trkpt>
<trkpt lat="42.86916578230769" lon="-2.8712612516848126">
<ele>1176</ele>
<time>2013-10-16T16:45:42Z</time>
</trkpt>
<trkpt lat="42.8690795091893" lon="-2.871346066337376">
<ele>1176</ele>
<time>2013-10-16T16:45:44Z</time>
</trkpt>
<trkpt lat="42.8690421897893" lon="-2.87143912998815">
<ele>1177</ele>
<time>2013-10-16T16:45:46Z</time>
</trkpt>
<trkpt lat="42.86898765069535" lon="-2.8715307657324813">
<ele>1179</ele>
<time>2013-10-16T16:45:48Z</time>
</trkpt>
<trkpt lat="42.86893289194244" lon="-2.871621810298308">
<ele>1180</ele>
<time>2013-10-16T16:45:50Z</time>
</trkpt>
<trkpt lat="42.8688786928267" lon="-2.8717087179161207">
<ele>1181</ele>
<time>2013-10-16T16:45:52Z</time>
</trkpt>
<trkpt lat="42.86882765350769" lon="-2.871795076836645">
<ele>1182</ele>
<time>2013-10-16T16:45:54Z</time>
</trkpt>
<trkpt lat="42.86876525986614" lon="-2.8718999759960155">
<ele>1182</ele>
<time>2013-10-16T16:45:56Z</time>
</trkpt>
<trkpt lat="42.86870655618068" lon="-2.8720096045851844">
<ele>1181</ele>
<time>2013-10-16T16:45:58Z</time>
</trkpt>
<trkpt lat="42.868672177111755" lon="-2.8721066835855256">
<ele>1180</ele>
<time>2013-10-16T16:46:00Z</time>
</trkpt>
<trkpt lat="42.868648019159636" lon="-2.87220822690985">
<ele>1180</ele>
<time>2013-10-16T16:46:02Z</time>
</trkpt>
<trkpt lat="42.8686313510263" lon="-2.8723277403786645">
<ele>1180</ele>
<time>2013-10-16T16:46:04Z</time>
</trkpt>
<trkpt lat="42.86861548321171" lon="-2.8724589443564335">
<ele>1179</ele>
<time>2013-10-16T16:46:06Z</time>
</trkpt>
<trkpt lat="42.86856441219971" lon="-2.872555484931441">
<ele>1179</ele>
<time>2013-10-16T16:46:08Z</time>
</trkpt>
<trkpt lat="42.86846094293861" lon="-2.872608893359187">
<ele>1178</ele>
<time>2013-10-16T16:46:10Z</time>
</trkpt>
<trkpt lat="42.86831278550263" lon="-2.87265327876948">
<ele>1178</ele>
<time>2013-10-16T16:46:12Z</time>
</trkpt>
<trkpt lat="42.86818658112728" lon="-2.8726926167891156">
<ele>1179</ele>
<time>2013-10-16T16:46:14Z</time>
</trkpt>
<trkpt lat="42.86804647648955" lon="-2.8727335880268856">
<ele>1178</ele>
<time>2013-10-16T16:46:16Z</time>
</trkpt>
<trkpt lat="42.86790217098893" lon="-2.872780007229636">
<ele>1177</ele>
<time>2013-10-16T16:46:18Z</time>
</trkpt>
<trkpt lat="42.86776857903602" lon="-2.8728261796837287">
<ele>1175</ele>
<time>2013-10-16T16:46:20Z</time>
</trkpt>
<trkpt lat="42.86762450918368" lon="-2.8728734553020114">
<ele>1174</ele>
<time>2013-10-16T16:46:22Z</time>
</trkpt>
<trkpt lat="42.86748727097436" lon="-2.8729156161367895">
<ele>1173</ele>
<time>2013-10-16T16:46:24Z</time>
</trkpt>
<trkpt lat="42.86733825360453" lon="-2.8729668837048936">
<ele>1172</ele>
<time>2013-10-16T16:46:26Z</time>
</trkpt>
<trkpt lat="42.86717318215653" lon="-2.87301960047459">
<ele>1172</ele>
<time>2013-10-16T16:46:28Z</time>
</trkpt>
<trkpt lat="42.867019577925234" lon="-2.8730593555180075">
<ele>1172</ele>
<time>2013-10-16T16:46:30Z</time>
</trkpt>
<trkpt lat="42.86687415441263" lon="-2.873091244190815">
<ele>1172</ele>
<time>2013-10-16T16:46:32Z</time>
</trkpt>
<trkpt lat="42.86670767928948" lon="-2.8731258288289996">
<ele>1170</ele>
<time>2013-10-16T16:46:34Z</time>
</trkpt>
<trkpt lat="42.86655130381089" lon="-2.8731595560656964">
<ele>1169</ele>
<time>2013-10-16T16:46:36Z</time>
</trkpt>
<trkpt lat="42.86639685364856" lon="-2.8731826074266005">
<ele>1167</ele>
<time>2013-10-16T16:46:38Z</time>
</trkpt>
<trkpt lat="42.866235249629135" lon="-2.8731960668137266">
<ele>1166</ele>
<time>2013-10-16T16:46:40Z</time>
</trkpt>
<trkpt lat="42.86606694884174" lon="-2.8731941040676316">
<ele>1165</ele>
<time>2013-10-16T16:46:42Z</time>
</trkpt>
<trkpt lat="42.86588217106276" lon="-2.8731889164602378">
<ele>1165</ele>
<time>2013-10-16T16:46:44Z</time>
</trkpt>
<trkpt lat="42.86571795004098" lon="-2.873201141512832">
<ele>1165</ele>
<time>2013-10-16T16:46:46Z</time>
</trkpt>
<trkpt lat="42.8655544056255" lon="-2.8732291433483774">
<ele>1166</ele>
<time>2013-10-16T16:46:48Z</time>
</trkpt>
<trkpt lat="42.86539392034717" lon="-2.8732674682332067">
<ele>1165</ele>
<time>2013-10-16T16:46:50Z</time>
</trkpt>
<trkpt lat="42.8652354382159" lon="-2.8733273109191844">
<ele>1165</ele>
<time>2013-10-16T16:46:52Z</time>
</trkpt>
<trkpt lat="42.86508413649632" lon="-2.873407122538985">
<ele>1165</ele>
<time>2013-10-16T16:46:54Z</time>
</trkpt>
<trkpt lat="42.86491970733616" lon="-2.8734951367997743">
<ele>1165</ele>
<time>2013-10-16T16:46:56Z</time>
</trkpt>
<trkpt lat="42.86474072569367" lon="-2.873577718933508">
<ele>1164</ele>
<time>2013-10-16T16:46:58Z</time>
</trkpt>
<trkpt lat="42.86455668405317" lon="-2.873643697270247">
<ele>1163</ele>
<time>2013-10-16T16:47:00Z</time>
</trkpt>
<trkpt lat="42.86437450898792" lon="-2.8736976513575465">
<ele>1161</ele>
<time>2013-10-16T16:47:02Z</time>
</trkpt>
<trkpt lat="42.86418236794252" lon="-2.873745086954388">
<ele>1160</ele>
<time>2013-10-16T16:47:04Z</time>
</trkpt>
<trkpt lat="42.86399560817967" lon="-2.8737807965569258">
<ele>1159</ele>
<time>2013-10-16T16:47:06Z</time>
</trkpt>
<trkpt lat="42.86381108565642" lon="-2.873807531407056">
<ele>1157</ele>
<time>2013-10-16T16:47:08Z</time>
</trkpt>
<trkpt lat="42.86360782122944" lon="-2.8738251557442367">
<ele>1156</ele>
<time>2013-10-16T16:47:10Z</time>
</trkpt>
<trkpt lat="42.86341343683623" lon="-2.8738319131195276">
<ele>1155</ele>
<time>2013-10-16T16:47:12Z</time>
</trkpt>
<trkpt lat="42.86322213396525" lon="-2.873839249783634">
<ele>1155</ele>
<time>2013-10-16T16:47:14Z</time>
</trkpt>
<trkpt lat="42.86304266613343" lon="-2.8738481459174805">
<ele>1155</ele>
<time>2013-10-16T16:47:16Z</time>
</trkpt>
<trkpt lat="42.86286250258979" lon="-2.8738549637196167">
<ele>1155</ele>
<time>2013-10-16T16:47:18Z</time>
</trkpt>
<trkpt lat="42.86267628562472" lon="-2.873860802661654">
<ele>1155</ele>
<time>2013-10-16T16:47:20Z</time>
</trkpt>
<trkpt lat="42.862491857090575" lon="-2.8738738984636307">
<ele>1155</ele>
<time>2013-10-16T16:47:22Z</time>
</trkpt>
<trkpt lat="42.8623080331738" lon="-2.873890069184386">
<ele>1154</ele>
<time>2013-10-16T16:47:24Z</time>
</trkpt>
<trkpt lat="42.86213695582302" lon="-2.873903349924906">
<ele>1154</ele>
<time>2013-10-16T16:47:26Z</time>
</trkpt>
<trkpt lat="42.861960326957416" lon="-2.8739130887654296">
<ele>1152</ele>
<time>2013-10-16T16:47:28Z</time>
</trkpt>
<trkpt lat="42.861760581038844" lon="-2.873917551892638">
<ele>1151</ele>
<time>2013-10-16T16:47:30Z</time>
</trkpt>
<trkpt lat="42.86155488343634" lon="-2.873928822054442">
<ele>1151</ele>
<time>2013-10-16T16:47:32Z</time>
</trkpt>
<trkpt lat="42.8613707179961" lon="-2.8739797008043104">
<ele>1151</ele>
<time>2013-10-16T16:47:34Z</time>
</trkpt>
<trkpt lat="42.861196077123566" lon="-2.874050008198492">
<ele>1151</ele>
<time>2013-10-16T16:47:36Z</time>
</trkpt>
<trkpt lat="42.86102653866603" lon="-2.8741222976970593">
<ele>1152</ele>
<time>2013-10-16T16:47:38Z</time>
</trkpt>
<trkpt lat="42.86087300895701" lon="-2.874181486181603">
<ele>1152</ele>
<time>2013-10-16T16:47:40Z</time>
</trkpt>
<trkpt lat="42.86075319649278" lon="-2.8742427298352244">
<ele>1153</ele>
<time>2013-10-16T16:47:42Z</time>
</trkpt>
<trkpt lat="42.860683426116324" lon="-2.8743636214200152">
<ele>1152</ele>
<time>2013-10-16T16:47:44Z</time>
</trkpt>
<trkpt lat="42.86068446897081" lon="-2.8745366604452616">
<ele>1150</ele>
<time>2013-10-16T16:47:46Z</time>
</trkpt>
<trkpt lat="42.860757215830176" lon="-2.8746730190961567">
<ele>1148</ele>
<time>2013-10-16T16:47:48Z</time>
</trkpt>
<trkpt lat="42.86085054816361" lon="-2.8747520795307366">
<ele>1147</ele>
<time>2013-10-16T16:47:50Z</time>
</trkpt>
<trkpt lat="42.860965691407216" lon="-2.8747954592102953">
<ele>1145</ele>
<time>2013-10-16T16:47:52Z</time>
</trkpt>
<trkpt lat="42.86109631013275" lon="-2.8747952655597806">
<ele>1143</ele>
<time>2013-10-16T16:47:54Z</time>
</trkpt>
<trkpt lat="42.861224208973425" lon="-2.874725598399915">
<ele>1142</ele>
<time>2013-10-16T16:47:56Z</time>
</trkpt>
<trkpt lat="42.861348853600845" lon="-2.8746103163230647">
<ele>1141</ele>
<time>2013-10-16T16:47:58Z</time>
</trkpt>
<trkpt lat="42.86145303645992" lon="-2.874412992669854">
<ele>1140</ele>
<time>2013-10-16T16:48:00Z</time>
</trkpt>
<trkpt lat="42.86150706103229" lon="-2.874146446528792">
<ele>1140</ele>
<time>2013-10-16T16:48:02Z</time>
</trkpt>
<trkpt lat="42.86150819079303" lon="-2.873851525685023">
<ele>1139</ele>
<time>2013-10-16T16:48:04Z</time>
</trkpt>
<trkpt lat="42.861428442540266" lon="-2.873561105272259">
<ele>1139</ele>
<time>2013-10-16T16:48:06Z</time>
</trkpt>
<trkpt lat="42.861301059477796" lon="-2.873303820868559">
<ele>1140</ele>
<time>2013-10-16T16:48:08Z</time>
</trkpt>
<trkpt lat="42.86113829983267" lon="-2.8731330841283405">
<ele>1140</ele>
<time>2013-10-16T16:48:10Z</time>
</trkpt>
<trkpt lat="42.860954913884825" lon="-2.8730656203341023">
<ele>1141</ele>
<time>2013-10-16T16:48:12Z</time>
</trkpt>
<trkpt lat="42.860774797225126" lon="-2.87309155664854">
<ele>1142</ele>
<time>2013-10-16T16:48:14Z</time>
</trkpt>
<trkpt lat="42.86060647789523" lon="-2.8731852924745565">
<ele>1144</ele>
<time>2013-10-16T16:48:16Z</time>
</trkpt>
<trkpt lat="42.860506166286406" lon="-2.873318960302511">
<ele>1146</ele>
<time>2013-10-16T16:48:18Z</time>
</trkpt>
<trkpt lat="42.86045321620927" lon="-2.87346992604299">
<ele>1147</ele>
<time>2013-10-16T16:48:20Z</time>
</trkpt>
<trkpt lat="42.8604405033983" lon="-2.8736093483979555">
<ele>1147</ele>
<time>2013-10-16T16:48:22Z</time>
</trkpt>
<trkpt lat="42.860489561358776" lon="-2.873749674468895">
<ele>1146</ele>
<time>2013-10-16T16:48:24Z</time>
</trkpt>
<trkpt lat="42.860571073070524" lon="-2.873851266483855">
<ele>1146</ele>
<time>2013-10-16T16:48:26Z</time>
</trkpt>
<trkpt lat="42.86068305084043" lon="-2.8739177476571203">
<ele>1145</ele>
<time>2013-10-16T16:48:28Z</time>
</trkpt>
<trkpt lat="42.86082513861938" lon="-2.8739184443205548">
<ele>1145</ele>
<time>2013-10-16T16:48:30Z</time>
</trkpt>
<trkpt lat="42.860967188899444" lon="-2.8738618288279327">
<ele>1144</ele>
<time>2013-10-16T16:48:32Z</time>
</trkpt>
<trkpt lat="42.86112393528893" lon="-2.8737252470964716">
<ele>1142</ele>
<time>2013-10-16T16:48:34Z</time>
</trkpt>
<trkpt lat="42.86125269216006" lon="-2.8735288061394653">
<ele>1141</ele>
<time>2013-10-16T16:48:36Z</time>
</trkpt>
<trkpt lat="42.86130768563748" lon="-2.873225359656143">
<ele>1138</ele>
<time>2013-10-16T16:48:38Z</time>
</trkpt>
<trkpt lat="42.861269271865275" lon="-2.8729007367703017">
<ele>1136</ele>
<time>2013-10-16T16:48:40Z</time>
</trkpt>
<trkpt lat="42.86112094962924" lon="-2.872655926821435">
<ele>1134</ele>
<time>2013-10-16T16:48:42Z</time>
</trkpt>
<trkpt lat="42.860910177058734" lon="-2.87250992541622">
<ele>1134</ele>
<time>2013-10-16T16:48:44Z</time>
</trkpt>
<trkpt lat="42.86070707858282" lon="-2.872477542477434">
<ele>1135</ele>
<time>2013-10-16T16:48:46Z</time>
</trkpt>
<trkpt lat="42.860539796036974" lon="-2.8724980930907353">
<ele>1135</ele>
<time>2013-10-16T16:48:48Z</time>
</trkpt>
<trkpt lat="42.86038682703932" lon="-2.872546776868982">
<ele>1136</ele>
<time>2013-10-16T16:48:50Z</time>
</trkpt>
<trkpt lat="42.86022608283848" lon="-2.8726141299158625">
<ele>1136</ele>
<time>2013-10-16T16:48:52Z</time>
</trkpt>
<trkpt lat="42.860068994070126" lon="-2.872703461908027">
<ele>1137</ele>
<time>2013-10-16T16:48:54Z</time>
</trkpt>
<trkpt lat="42.85993353499698" lon="-2.872801957498236">
<ele>1137</ele>
<time>2013-10-16T16:48:56Z</time>
</trkpt>
<trkpt lat="42.859807442140664" lon="-2.8729019107711387">
<ele>1137</ele>
<time>2013-10-16T16:48:58Z</time>
</trkpt>
<trkpt lat="42.859694124828586" lon="-2.873007859250005">
<ele>1137</ele>
<time>2013-10-16T16:49:00Z</time>
</trkpt>
<trkpt lat="42.85958281789082" lon="-2.8731289939566036">
<ele>1136</ele>
<time>2013-10-16T16:49:02Z</time>
</trkpt>
<trkpt lat="42.8594849751887" lon="-2.8732553026992864">
<ele>1135</ele>
<time>2013-10-16T16:49:04Z</time>
</trkpt>
<trkpt lat="42.85940527564417" lon="-2.873377817926878">
<ele>1135</ele>
<time>2013-10-16T16:49:06Z</time>
</trkpt>
<trkpt lat="42.85933925084423" lon="-2.8734938136601564">
<ele>1135</ele>
<time>2013-10-16T16:49:08Z</time>
</trkpt>
<trkpt lat="42.85925761552325" lon="-2.8736292081988903">
<ele>1135</ele>
<time>2013-10-16T16:49:10Z</time>
</trkpt>
<trkpt lat="42.85915991806834" lon="-2.8737655402035784">
<ele>1135</ele>
<time>2013-10-16T16:49:12Z</time>
</trkpt>
<trkpt lat="42.85905609694264" lon="-2.8738845113566276">
<ele>1135</ele>
<time>2013-10-16T16:49:14Z</time>
</trkpt>
<trkpt lat="42.85893886440047" lon="-2.8739978961653243">
<ele>1135</ele>
<time>2013-10-16T16:49:16Z</time>
</trkpt>
<trkpt lat="42.85881547279916" lon="-2.8741130905657406">
<ele>1135</ele>
<time>2013-10-16T16:49:18Z</time>
</trkpt>
<trkpt lat="42.858697603478454" lon="-2.8742293398321714">
<ele>1135</ele>
<time>2013-10-16T16:49:20Z</time>
</trkpt>
<trkpt lat="42.85859120457167" lon="-2.8743410722540963">
<ele>1136</ele>
<time>2013-10-16T16:49:22Z</time>
</trkpt>
<trkpt lat="42.85846883529605" lon="-2.8744632758326976">
<ele>1137</ele>
<time>2013-10-16T16:49:24Z</time>
</trkpt>
<trkpt lat="42.85834838667984" lon="-2.874582974001349">
<ele>1138</ele>
<time>2013-10-16T16:49:26Z</time>
</trkpt>
<trkpt lat="42.85827328183083" lon="-2.874713726741504">
<ele>1138</ele>
<time>2013-10-16T16:49:28Z</time>
</trkpt>
<trkpt lat="42.8582317263508" lon="-2.874872626106583">
<ele>1138</ele>
<time>2013-10-16T16:49:30Z</time>
</trkpt>
<trkpt lat="42.85825146832439" lon="-2.8750236038039008">
<ele>1138</ele>
<time>2013-10-16T16:49:32Z</time>
</trkpt>
<trkpt lat="42.85832786626463" lon="-2.875123363460054">
<ele>1137</ele>
<time>2013-10-16T16:49:34Z</time>
</trkpt>
<trkpt lat="42.85843582692752" lon="-2.8751602116829615">
<ele>1136</ele>
<time>2013-10-16T16:49:36Z</time>
</trkpt>
<trkpt lat="42.85856546299589" lon="-2.875097240333849">
<ele>1135</ele>
<time>2013-10-16T16:49:38Z</time>
</trkpt>
<trkpt lat="42.858677850268926" lon="-2.8749082586168555">
<ele>1133</ele>
<time>2013-10-16T16:49:40Z</time>
</trkpt>
<trkpt lat="42.85872669033402" lon="-2.874654666327253">
<ele>1131</ele>
<time>2013-10-16T16:49:42Z</time>
</trkpt>
<trkpt lat="42.8586993399296" lon="-2.874376160089189">
<ele>1128</ele>
<time>2013-10-16T16:49:44Z</time>
</trkpt>
<trkpt lat="42.858588523823876" lon="-2.8741065051548134">
<ele>1126</ele>
<time>2013-10-16T16:49:46Z</time>
</trkpt>
<trkpt lat="42.85842734772722" lon="-2.8739029900151123">
<ele>1124</ele>
<time>2013-10-16T16:49:48Z</time>
</trkpt>
<trkpt lat="42.85824364209544" lon="-2.8737664944039394">
<ele>1123</ele>
<time>2013-10-16T16:49:50Z</time>
</trkpt>
<trkpt lat="42.858031653859506" lon="-2.873740747613843">
<ele>1122</ele>
<time>2013-10-16T16:49:52Z</time>
</trkpt>
<trkpt lat="42.85788260909155" lon="-2.8737928170943583">
<ele>1122</ele>
<time>2013-10-16T16:49:54Z</time>
</trkpt>
<trkpt lat="42.85772497232858" lon="-2.8738898532153145">
<ele>1122</ele>
<time>2013-10-16T16:49:56Z</time>
</trkpt>
<trkpt lat="42.85758140973432" lon="-2.8740048714572954">
<ele>1124</ele>
<time>2013-10-16T16:49:58Z</time>
</trkpt>
<trkpt lat="42.85746731076923" lon="-2.8741246300326035">
<ele>1125</ele>
<time>2013-10-16T16:50:00Z</time>
</trkpt>
<trkpt lat="42.857355680219506" lon="-2.8742636298671105">
<ele>1126</ele>
<time>2013-10-16T16:50:02Z</time>
</trkpt>
<trkpt lat="42.8572526084766" lon="-2.874408824634798">
<ele>1124</ele>
<time>2013-10-16T16:50:04Z</time>
</trkpt>
<trkpt lat="42.85717013902755" lon="-2.874538502250853">
<ele>1122</ele>
<time>2013-10-16T16:50:06Z</time>
</trkpt>
<trkpt lat="42.85709006858279" lon="-2.874668143606955">
<ele>1120</ele>
<time>2013-10-16T16:50:08Z</time>
</trkpt>
<trkpt lat="42.85700757493491" lon="-2.874815714245699">
<ele>1118</ele>
<time>2013-10-16T16:50:10Z</time>
</trkpt>
<trkpt lat="42.85691720042993" lon="-2.8749587144186393">
<ele>1117</ele>
<time>2013-10-16T16:50:12Z</time>
</trkpt>
<trkpt lat="42.8568304366535" lon="-2.875080694357679">
<ele>1115</ele>
<time>2013-10-16T16:50:14Z</time>
</trkpt>
<trkpt lat="42.85672103956554" lon="-2.875220792579041">
<ele>1113</ele>
<time>2013-10-16T16:50:16Z</time>
</trkpt>
<trkpt lat="42.856614581833846" lon="-2.8753695535006263">
<ele>1110</ele>
<time>2013-10-16T16:50:18Z</time>
</trkpt>
<trkpt lat="42.85650832992546" lon="-2.875530187666279">
<ele>1108</ele>
<time>2013-10-16T16:50:20Z</time>
</trkpt>
<trkpt lat="42.856425956634816" lon="-2.875684610030043">
<ele>1107</ele>
<time>2013-10-16T16:50:22Z</time>
</trkpt>
<trkpt lat="42.856337206375926" lon="-2.8758439061108425">
<ele>1106</ele>
<time>2013-10-16T16:50:24Z</time>
</trkpt>
<trkpt lat="42.856235159994036" lon="-2.876010552178273">
<ele>1105</ele>
<time>2013-10-16T16:50:26Z</time>
</trkpt>
<trkpt lat="42.85613544641861" lon="-2.876168441924762">
<ele>1103</ele>
<time>2013-10-16T16:50:28Z</time>
</trkpt>
<trkpt lat="42.856028751690914" lon="-2.876340263315965">
<ele>1102</ele>
<time>2013-10-16T16:50:30Z</time>
</trkpt>
<trkpt lat="42.85593335354479" lon="-2.8765165984553716">
<ele>1101</ele>
<time>2013-10-16T16:50:32Z</time>
</trkpt>
<trkpt lat="42.85584662046251" lon="-2.87669305349877">
<ele>1100</ele>
<time>2013-10-16T16:50:34Z</time>
</trkpt>
<trkpt lat="42.855744160619956" lon="-2.8768749634749318">
<ele>1099</ele>
<time>2013-10-16T16:50:36Z</time>
</trkpt>
<trkpt lat="42.85563408592483" lon="-2.8770497203542265">
<ele>1098</ele>
<time>2013-10-16T16:50:38Z</time>
</trkpt>
<trkpt lat="42.85553671008903" lon="-2.8772115944529864">
<ele>1097</ele>
<time>2013-10-16T16:50:40Z</time>
</trkpt>
<trkpt lat="42.855435721462534" lon="-2.8773837849141355">
<ele>1096</ele>
<time>2013-10-16T16:50:42Z</time>
</trkpt>
<trkpt lat="42.85532086809983" lon="-2.8775470153366025">
<ele>1095</ele>
<time>2013-10-16T16:50:44Z</time>
</trkpt>
<trkpt lat="42.85520397681611" lon="-2.877691127012087">
<ele>1095</ele>
<time>2013-10-16T16:50:46Z</time>
</trkpt>
<trkpt lat="42.855085059061125" lon="-2.877829456440193">
<ele>1095</ele>
<time>2013-10-16T16:50:48Z</time>
</trkpt>
<trkpt lat="42.854972055656766" lon="-2.877962041445558">
<ele>1096</ele>
<time>2013-10-16T16:50:50Z</time>
</trkpt>
<trkpt lat="42.854855421767915" lon="-2.8780905078960073">
<ele>1096</ele>
<time>2013-10-16T16:50:52Z</time>
</trkpt>
<trkpt lat="42.85473763775828" lon="-2.878216445518667">
<ele>1096</ele>
<time>2013-10-16T16:50:54Z</time>
</trkpt>
<trkpt lat="42.854620656952726" lon="-2.878351680450521">
<ele>1095</ele>
<time>2013-10-16T16:50:56Z</time>
</trkpt>
<trkpt lat="42.854491430127744" lon="-2.878491461845071">
<ele>1094</ele>
<time>2013-10-16T16:50:58Z</time>
</trkpt>
<trkpt lat="42.854353520533344" lon="-2.878626108254559">
<ele>1093</ele>
<time>2013-10-16T16:51:00Z</time>
</trkpt>
<trkpt lat="42.85419955973394" lon="-2.878754408371815">
<ele>1093</ele>
<time>2013-10-16T16:51:02Z</time>
</trkpt>
<trkpt lat="42.85403183854924" lon="-2.878873900319698">
<ele>1092</ele>
<time>2013-10-16T16:51:04Z</time>
</trkpt>
<trkpt lat="42.85387682201641" lon="-2.878978936778474">
<ele>1092</ele>
<time>2013-10-16T16:51:06Z</time>
</trkpt>
<trkpt lat="42.85373449725957" lon="-2.8790785276667283">
<ele>1091</ele>
<time>2013-10-16T16:51:08Z</time>
</trkpt>
<trkpt lat="42.85359767957201" lon="-2.8791711244733422">
<ele>1090</ele>
<time>2013-10-16T16:51:10Z</time>
</trkpt>
<trkpt lat="42.85346075613266" lon="-2.879271519133263">
<ele>1089</ele>
<time>2013-10-16T16:51:12Z</time>
</trkpt>
<trkpt lat="42.853325463738074" lon="-2.87937745178721">
<ele>1088</ele>
<time>2013-10-16T16:51:14Z</time>
</trkpt>
<trkpt lat="42.85318888097581" lon="-2.879472106949169">
<ele>1086</ele>
<time>2013-10-16T16:51:16Z</time>
</trkpt>
<trkpt lat="42.853042419771256" lon="-2.8795593467612512">
<ele>1085</ele>
<time>2013-10-16T16:51:18Z</time>
</trkpt>
<trkpt lat="42.85289726472652" lon="-2.879637608101128">
<ele>1083</ele>
<time>2013-10-16T16:51:20Z</time>
</trkpt>
<trkpt lat="42.85275117339771" lon="-2.879709493397762">
<ele>1082</ele>
<time>2013-10-16T16:51:22Z</time>
</trkpt>
<trkpt lat="42.852615682250345" lon="-2.8798158596655963">
<ele>1080</ele>
<time>2013-10-16T16:51:24Z</time>
</trkpt>
<trkpt lat="42.852501584711" lon="-2.879939218331778">
<ele>1078</ele>
<time>2013-10-16T16:51:26Z</time>
</trkpt>
<trkpt lat="42.85238562493554" lon="-2.8800572699131637">
<ele>1078</ele>
<time>2013-10-16T16:51:28Z</time>
</trkpt>
<trkpt lat="42.85225214403227" lon="-2.8801697455926507">
<ele>1078</ele>
<time>2013-10-16T16:51:30Z</time>
</trkpt>
<trkpt lat="42.85210836579102" lon="-2.8802797559714963">
<ele>1079</ele>
<time>2013-10-16T16:51:32Z</time>
</trkpt>
<trkpt lat="42.85197356939946" lon="-2.880382863642629">
<ele>1080</ele>
<time>2013-10-16T16:51:34Z</time>
</trkpt>
<trkpt lat="42.851897815485884" lon="-2.88051963074486">
<ele>1079</ele>
<time>2013-10-16T16:51:36Z</time>
</trkpt>
<trkpt lat="42.85189120087978" lon="-2.8807135116625977">
<ele>1077</ele>
<time>2013-10-16T16:51:38Z</time>
</trkpt>
<trkpt lat="42.85193710998493" lon="-2.880887696649136">
<ele>1077</ele>
<time>2013-10-16T16:51:40Z</time>
</trkpt>
<trkpt lat="42.852056716276046" lon="-2.8809386698669486">
<ele>1075</ele>
<time>2013-10-16T16:51:42Z</time>
</trkpt>
<trkpt lat="42.85220576914966" lon="-2.880861572785928">
<ele>1074</ele>
<time>2013-10-16T16:51:44Z</time>
</trkpt>
<trkpt lat="42.85234704816322" lon="-2.8807343571528072">
<ele>1073</ele>
<time>2013-10-16T16:51:46Z</time>
</trkpt>
<trkpt lat="42.85248546393258" lon="-2.8805658729740853">
<ele>1070</ele>
<time>2013-10-16T16:51:48Z</time>
</trkpt>
<trkpt lat="42.85262596586323" lon="-2.880364166917657">
<ele>1067</ele>
<time>2013-10-16T16:51:50Z</time>
</trkpt>
<trkpt lat="42.85275767508501" lon="-2.8801592125335302">
<ele>1065</ele>
<time>2013-10-16T16:51:52Z</time>
</trkpt>
<trkpt lat="42.85288191172672" lon="-2.879965721187312">
<ele>1063</ele>
<time>2013-10-16T16:51:54Z</time>
</trkpt>
<trkpt lat="42.85300229562279" lon="-2.879779823165263">
<ele>1062</ele>
<time>2013-10-16T16:51:56Z</time>
</trkpt>
<trkpt lat="42.85311823189814" lon="-2.879608878080768">
<ele>1061</ele>
<time>2013-10-16T16:51:58Z</time>
</trkpt>
<trkpt lat="42.85323438783234" lon="-2.879440059470687">
<ele>1060</ele>
<time>2013-10-16T16:52:00Z</time>
</trkpt>
<trkpt lat="42.85334858001458" lon="-2.8792774210340233">
<ele>1060</ele>
<time>2013-10-16T16:52:02Z</time>
</trkpt>
<trkpt lat="42.85346185681554" lon="-2.879127797975574">
<ele>1059</ele>
<time>2013-10-16T16:52:04Z</time>
</trkpt>
<trkpt lat="42.853579604147946" lon="-2.878971240994985">
<ele>1058</ele>
<time>2013-10-16T16:52:06Z</time>
</trkpt>
<trkpt lat="42.85369632871645" lon="-2.8787761523315303">
<ele>1056</ele>
<time>2013-10-16T16:52:08Z</time>
</trkpt>
<trkpt lat="42.853787375930764" lon="-2.878586368086961">
<ele>1053</ele>
<time>2013-10-16T16:52:10Z</time>
</trkpt>
<trkpt lat="42.853888010615904" lon="-2.8783797147927985">
<ele>1049</ele>
<time>2013-10-16T16:52:12Z</time>
</trkpt>
<trkpt lat="42.85397201742989" lon="-2.878175202929733">
<ele>1046</ele>
<time>2013-10-16T16:52:14Z</time>
</trkpt>
<trkpt lat="42.85407154710036" lon="-2.8779396858099604">
<ele>1044</ele>
<time>2013-10-16T16:52:16Z</time>
</trkpt>
<trkpt lat="42.854159014391264" lon="-2.8777146249117265">
<ele>1041</ele>
<time>2013-10-16T16:52:18Z</time>
</trkpt>
<trkpt lat="42.85425215232707" lon="-2.877480861256804">
<ele>1038</ele>
<time>2013-10-16T16:52:20Z</time>
</trkpt>
<trkpt lat="42.85435216990142" lon="-2.8772429397432724">
<ele>1037</ele>
<time>2013-10-16T16:52:22Z</time>
</trkpt>
<trkpt lat="42.85442892466175" lon="-2.8770452510534392">
<ele>1036</ele>
<time>2013-10-16T16:52:24Z</time>
</trkpt>
<trkpt lat="42.854499238183415" lon="-2.876866563737356">
<ele>1036</ele>
<time>2013-10-16T16:52:26Z</time>
</trkpt>
<trkpt lat="42.85457867288592" lon="-2.8766807056192634">
<ele>1036</ele>
<time>2013-10-16T16:52:28Z</time>
</trkpt>
<trkpt lat="42.85467150899172" lon="-2.8764942104417393">
<ele>1037</ele>
<time>2013-10-16T16:52:30Z</time>
</trkpt>
<trkpt lat="42.854773977997404" lon="-2.876296611776677">
<ele>1038</ele>
<time>2013-10-16T16:52:32Z</time>
</trkpt>
<trkpt lat="42.854874380816575" lon="-2.8760908763820514">
<ele>1039</ele>
<time>2013-10-16T16:52:34Z</time>
</trkpt>
<trkpt lat="42.85497012405924" lon="-2.875898503249732">
<ele>1041</ele>
<time>2013-10-16T16:52:36Z</time>
</trkpt>
<trkpt lat="42.855055681439005" lon="-2.875723720204413">
<ele>1042</ele>
<time>2013-10-16T16:52:38Z</time>
</trkpt>
<trkpt lat="42.855138875798886" lon="-2.8755543641153225">
<ele>1044</ele>
<time>2013-10-16T16:52:40Z</time>
</trkpt>
<trkpt lat="42.85522223460503" lon="-2.875388113431811">
<ele>1045</ele>
<time>2013-10-16T16:52:42Z</time>
</trkpt>
<trkpt lat="42.85530869492018" lon="-2.875224950727297">
<ele>1046</ele>
<time>2013-10-16T16:52:44Z</time>
</trkpt>
<trkpt lat="42.85540038614035" lon="-2.8750581426938737">
<ele>1046</ele>
<time>2013-10-16T16:52:46Z</time>
</trkpt>
<trkpt lat="42.855501428060194" lon="-2.8748890237414533">
<ele>1048</ele>
<time>2013-10-16T16:52:48Z</time>
</trkpt>
<trkpt lat="42.85559260687849" lon="-2.8747228654050434">
<ele>1049</ele>
<time>2013-10-16T16:52:50Z</time>
</trkpt>
<trkpt lat="42.855677201494736" lon="-2.8745460125240045">
<ele>1050</ele>
<time>2013-10-16T16:52:52Z</time>
</trkpt>
<trkpt lat="42.85575822661603" lon="-2.8743739644498634">
<ele>1050</ele>
<time>2013-10-16T16:52:54Z</time>
</trkpt>
<trkpt lat="42.85583828991276" lon="-2.874238877008676">
<ele>1052</ele>
<time>2013-10-16T16:52:56Z</time>
</trkpt>
<trkpt lat="42.85592964711831" lon="-2.8741216085001158">
<ele>1053</ele>
<time>2013-10-16T16:52:58Z</time>
</trkpt>
<trkpt lat="42.856036387400415" lon="-2.8740423903086567">
<ele>1055</ele>
<time>2013-10-16T16:53:00Z</time>
</trkpt>
<trkpt lat="42.85615811539212" lon="-2.873969703661367">
<ele>1057</ele>
<time>2013-10-16T16:53:02Z</time>
</trkpt>
<trkpt lat="42.856286087634764" lon="-2.8738873177340087">
<ele>1059</ele>
<time>2013-10-16T16:53:04Z</time>
</trkpt>
<trkpt lat="42.85639807642243" lon="-2.8737989783279936">
<ele>1061</ele>
<time>2013-10-16T16:53:06Z</time>
</trkpt>
<trkpt lat="42.85651315109375" lon="-2.873713541623054">
<ele>1062</ele>
<time>2013-10-16T16:53:08Z</time>
</trkpt>
<trkpt lat="42.85662966734462" lon="-2.8736471270935833">
<ele>1064</ele>
<time>2013-10-16T16:53:10Z</time>
</trkpt>
<trkpt lat="42.856729344778145" lon="-2.873606819745919">
<ele>1065</ele>
<time>2013-10-16T16:53:12Z</time>
</trkpt>
<trkpt lat="42.85684609961107" lon="-2.8735741532242707">
<ele>1066</ele>
<time>2013-10-16T16:53:14Z</time>
</trkpt>
<trkpt lat="42.856969320597955" lon="-2.873554010349053">
<ele>1067</ele>
<time>2013-10-16T16:53:16Z</time>
</trkpt>
<trkpt lat="42.8570845662061" lon="-2.8735380265640296">
<ele>1068</ele>
<time>2013-10-16T16:53:18Z</time>
</trkpt>
<trkpt lat="42.857210028883145" lon="-2.8735164399642397">
<ele>1069</ele>
<time>2013-10-16T16:53:20Z</time>
</trkpt>
<trkpt lat="42.85736303175062" lon="-2.8734827918742956">
<ele>1069</ele>
<time>2013-10-16T16:53:22Z</time>
</trkpt>
<trkpt lat="42.85747842557274" lon="-2.873457562112754">
<ele>1070</ele>
<time>2013-10-16T16:53:24Z</time>
</trkpt>
<trkpt lat="42.857552522293496" lon="-2.873494721532985">
<ele>1071</ele>
<time>2013-10-16T16:53:26Z</time>
</trkpt>
<trkpt lat="42.85756942608724" lon="-2.8736390856741987">
<ele>1072</ele>
<time>2013-10-16T16:53:28Z</time>
</trkpt>
<trkpt lat="42.8574836569645" lon="-2.873767611932652">
<ele>1073</ele>
<time>2013-10-16T16:53:30Z</time>
</trkpt>
<trkpt lat="42.85730968399096" lon="-2.8738020666697524">
<ele>1074</ele>
<time>2013-10-16T16:53:32Z</time>
</trkpt>
<trkpt lat="42.857119671074024" lon="-2.873723701335818">
<ele>1075</ele>
<time>2013-10-16T16:53:34Z</time>
</trkpt>
<trkpt lat="42.856933577669" lon="-2.873608633248782">
<ele>1076</ele>
<time>2013-10-16T16:53:36Z</time>
</trkpt>
<trkpt lat="42.85675204355894" lon="-2.873547382967353">
<ele>1077</ele>
<time>2013-10-16T16:53:38Z</time>
</trkpt>
<trkpt lat="42.85658210678407" lon="-2.8735954368878036">
<ele>1078</ele>
<time>2013-10-16T16:53:40Z</time>
</trkpt>
<trkpt lat="42.85648295990437" lon="-2.8737495146734178">
<ele>1079</ele>
<time>2013-10-16T16:53:42Z</time>
</trkpt>
<trkpt lat="42.8564712666252" lon="-2.8739027673272184">
<ele>1079</ele>
<time>2013-10-16T16:53:44Z</time>
</trkpt>
<trkpt lat="42.856514621725125" lon="-2.8740183696818913">
<ele>1080</ele>
<time>2013-10-16T16:53:46Z</time>
</trkpt>
<trkpt lat="42.85662868096276" lon="-2.8740639743694327">
<ele>1081</ele>
<time>2013-10-16T16:53:48Z</time>
</trkpt>
<trkpt lat="42.85676439542531" lon="-2.874043391573011">
<ele>1082</ele>
<time>2013-10-16T16:53:50Z</time>
</trkpt>
<trkpt lat="42.856914841857424" lon="-2.8739738189555974">
<ele>1082</ele>
<time>2013-10-16T16:53:52Z</time>
</trkpt>
<trkpt lat="42.857055706047696" lon="-2.8738259353501445">
<ele>1083</ele>
<time>2013-10-16T16:53:54Z</time>
</trkpt>
<trkpt lat="42.857189036455125" lon="-2.873642091247549">
<ele>1085</ele>
<time>2013-10-16T16:53:56Z</time>
</trkpt>
<trkpt lat="42.85730760011979" lon="-2.873463469329453">
<ele>1087</ele>
<time>2013-10-16T16:53:58Z</time>
</trkpt>
<trkpt lat="42.857445777989604" lon="-2.8732643647380347">
<ele>1089</ele>
<time>2013-10-16T16:54:00Z</time>
</trkpt>
<trkpt lat="42.8575732353116" lon="-2.8730747896216613">
<ele>1091</ele>
<time>2013-10-16T16:54:02Z</time>
</trkpt>
<trkpt lat="42.85769603556057" lon="-2.872925795879254">
<ele>1093</ele>
<time>2013-10-16T16:54:04Z</time>
</trkpt>
<trkpt lat="42.8578082630781" lon="-2.8728381540022614">
<ele>1095</ele>
<time>2013-10-16T16:54:06Z</time>
</trkpt>
<trkpt lat="42.85788668779429" lon="-2.872798180812894">
<ele>1098</ele>
<time>2013-10-16T16:54:08Z</time>
</trkpt>
<trkpt lat="42.85791364831948" lon="-2.8728775301186524">
<ele>1101</ele>
<time>2013-10-16T16:54:10Z</time>
</trkpt>
<trkpt lat="42.85785377253562" lon="-2.8730419524974598">
<ele>1109</ele>
<time>2013-10-16T16:54:12Z</time>
</trkpt>
<trkpt lat="42.85773458741147" lon="-2.8731915357303563">
<ele>1114</ele>
<time>2013-10-16T16:54:14Z</time>
</trkpt>
<trkpt lat="42.85757019789618" lon="-2.8733252253439527">
<ele>1119</ele>
<time>2013-10-16T16:54:16Z</time>
</trkpt>
<trkpt lat="42.857381737228124" lon="-2.87340960322251">
<ele>1124</ele>
<time>2013-10-16T16:54:18Z</time>
</trkpt>
<trkpt lat="42.85725268725698" lon="-2.873495661700082">
<ele>1129</ele>
<time>2013-10-16T16:54:20Z</time>
</trkpt>
<trkpt lat="42.85727094774861" lon="-2.8736305117983583">
<ele>1134</ele>
<time>2013-10-16T16:54:22Z</time>
</trkpt>
<trkpt lat="42.85736194244072" lon="-2.873650139285402">
<ele>1140</ele>
<time>2013-10-16T16:54:24Z</time>
</trkpt>
<trkpt lat="42.85747835715091" lon="-2.873560538774881">
<ele>1146</ele>
<time>2013-10-16T16:54:26Z</time>
</trkpt>
<trkpt lat="42.85757504551992" lon="-2.873436946548258">
<ele>1150</ele>
<time>2013-10-16T16:54:28Z</time>
</trkpt>
<trkpt lat="42.85764626294678" lon="-2.8734152042600285">
<ele>1153</ele>
<time>2013-10-16T16:54:30Z</time>
</trkpt>
<trkpt lat="42.85768492493022" lon="-2.8735125697871617">
<ele>1153</ele>
<time>2013-10-16T16:54:32Z</time>
</trkpt>
<trkpt lat="42.85769707050449" lon="-2.873621865437077">
<ele>1154</ele>
<time>2013-10-16T16:54:34Z</time>
</trkpt>
<trkpt lat="42.85771794255522" lon="-2.8737156494645753">
<ele>1155</ele>
<time>2013-10-16T16:54:36Z</time>
</trkpt>
<trkpt lat="42.85772064078733" lon="-2.873825272411057">
<ele>1166</ele>
<time>2013-10-16T16:54:38Z</time>
</trkpt>
<trkpt lat="42.85762941178842" lon="-2.8739825526475293">
<ele>1175</ele>
<time>2013-10-16T16:54:40Z</time>
</trkpt>
<trkpt lat="42.857526570465" lon="-2.874122426394255">
<ele>1183</ele>
<time>2013-10-16T16:54:42Z</time>
</trkpt>
<trkpt lat="42.85744014507348" lon="-2.8742552200577745">
<ele>1191</ele>
<time>2013-10-16T16:54:44Z</time>
</trkpt>
<trkpt lat="42.85737577775049" lon="-2.87439324016138">
<ele>1197</ele>
<time>2013-10-16T16:54:46Z</time>
</trkpt>
<trkpt lat="42.857342607914454" lon="-2.8745248485432993">
<ele>1204</ele>
<time>2013-10-16T16:54:48Z</time>
</trkpt>
<trkpt lat="42.85740910344005" lon="-2.8745718839389847">
<ele>1211</ele>
<time>2013-10-16T16:54:50Z</time>
</trkpt>
<trkpt lat="42.85753222846195" lon="-2.874487144232008">
<ele>1217</ele>
<time>2013-10-16T16:54:52Z</time>
</trkpt>
<trkpt lat="42.85761541723746" lon="-2.8742762361285905">
<ele>1223</ele>
<time>2013-10-16T16:54:54Z</time>
</trkpt>
<trkpt lat="42.85770290171537" lon="-2.8740382045820447">
<ele>1228</ele>
<time>2013-10-16T16:54:56Z</time>
</trkpt>
<trkpt lat="42.85776562991075" lon="-2.8737220119606657">
<ele>1232</ele>
<time>2013-10-16T16:54:58Z</time>
</trkpt>
<trkpt lat="42.85768507004132" lon="-2.8733602980147075">
<ele>1236</ele>
<time>2013-10-16T16:55:00Z</time>
</trkpt>
<trkpt lat="42.85754022124326" lon="-2.8731107398546842">
<ele>1241</ele>
<time>2013-10-16T16:55:02Z</time>
</trkpt>
<trkpt lat="42.85735610775003" lon="-2.8729985042233444">
<ele>1247</ele>
<time>2013-10-16T16:55:04Z</time>
</trkpt>
<trkpt lat="42.857175955266776" lon="-2.8729948189270402">
<ele>1253</ele>
<time>2013-10-16T16:55:06Z</time>
</trkpt>
<trkpt lat="42.85705180494363" lon="-2.8730540903651973">
<ele>1259</ele>
<time>2013-10-16T16:55:08Z</time>
</trkpt>
<trkpt lat="42.85696656459589" lon="-2.8731591904824927">
<ele>1265</ele>
<time>2013-10-16T16:55:10Z</time>
</trkpt>
<trkpt lat="42.856914543068946" lon="-2.8732924342239827">
<ele>1271</ele>
<time>2013-10-16T16:55:12Z</time>
</trkpt>
<trkpt lat="42.85689050975668" lon="-2.873428550008704">
<ele>1274</ele>
<time>2013-10-16T16:55:14Z</time>
</trkpt>
<trkpt lat="42.8568700138447" lon="-2.8735550557327194">
<ele>1275</ele>
<time>2013-10-16T16:55:16Z</time>
</trkpt>
<trkpt lat="42.85684390008557" lon="-2.873691800932151">
<ele>1284</ele>
<time>2013-10-16T16:55:18Z</time>
</trkpt>
<trkpt lat="42.856831301328675" lon="-2.8738274299918483">
<ele>1293</ele>
<time>2013-10-16T16:55:20Z</time>
</trkpt>
<trkpt lat="42.8568413091177" lon="-2.8739552637710504">
<ele>1300</ele>
<time>2013-10-16T16:55:22Z</time>
</trkpt>
<trkpt lat="42.8568831122099" lon="-2.874079148967911">
<ele>1306</ele>
<time>2013-10-16T16:55:24Z</time>
</trkpt>
<trkpt lat="42.856932161097546" lon="-2.874141146584364">
<ele>1312</ele>
<time>2013-10-16T16:55:26Z</time>
</trkpt>
<trkpt lat="42.85701228936749" lon="-2.8741842037364354">
<ele>1316</ele>
<time>2013-10-16T16:55:28Z</time>
</trkpt>
<trkpt lat="42.85714394245076" lon="-2.87410423412624">
<ele>1319</ele>
<time>2013-10-16T16:55:30Z</time>
</trkpt>
<trkpt lat="42.85728384206935" lon="-2.8739022260461775">
<ele>1322</ele>
<time>2013-10-16T16:55:32Z</time>
</trkpt>
<trkpt lat="42.85735807854569" lon="-2.8736103743483326">
<ele>1323</ele>
<time>2013-10-16T16:55:34Z</time>
</trkpt>
<trkpt lat="42.857388622603914" lon="-2.873289146672867">
<ele>1324</ele>
<time>2013-10-16T16:55:36Z</time>
</trkpt>
<trkpt lat="42.85730505599071" lon="-2.8729679990949255">
<ele>1326</ele>
<time>2013-10-16T16:55:38Z</time>
</trkpt>
<trkpt lat="42.85712960089592" lon="-2.872741512478144">
<ele>1326</ele>
<time>2013-10-16T16:55:40Z</time>
</trkpt>
<trkpt lat="42.856946578720816" lon="-2.8726240820236546">
<ele>1328</ele>
<time>2013-10-16T16:55:42Z</time>
</trkpt>
<trkpt lat="42.85677982212505" lon="-2.872592948143163">
<ele>1331</ele>
<time>2013-10-16T16:55:44Z</time>
</trkpt>
<trkpt lat="42.856662316641305" lon="-2.872628132037462">
<ele>1333</ele>
<time>2013-10-16T16:55:46Z</time>
</trkpt>
<trkpt lat="42.85660197577102" lon="-2.8726995794665924">
<ele>1334</ele>
<time>2013-10-16T16:55:48Z</time>
</trkpt>
<trkpt lat="42.85658381231578" lon="-2.872775141577605">
<ele>1334</ele>
<time>2013-10-16T16:55:50Z</time>
</trkpt>
<trkpt lat="42.85658093435511" lon="-2.872869037450587">
<ele>1334</ele>
<time>2013-10-16T16:55:52Z</time>
</trkpt>
<trkpt lat="42.85659254232278" lon="-2.8729705933029788">
<ele>1335</ele>
<time>2013-10-16T16:55:54Z</time>
</trkpt>
<trkpt lat="42.85660380145203" lon="-2.873053138059819">
<ele>1336</ele>
<time>2013-10-16T16:55:56Z</time>
</trkpt>
<trkpt lat="42.856615883322775" lon="-2.8731268263666414">
<ele>1337</ele>
<time>2013-10-16T16:55:58Z</time>
</trkpt>
<trkpt lat="42.85664628015789" lon="-2.8732149489063468">
<ele>1338</ele>
<time>2013-10-16T16:56:00Z</time>
</trkpt>
<trkpt lat="42.856677057801114" lon="-2.873288014177074">
<ele>1339</ele>
<time>2013-10-16T16:56:02Z</time>
</trkpt>
<trkpt lat="42.85670405974872" lon="-2.8733696478726336">
<ele>1346</ele>
<time>2013-10-16T16:56:04Z</time>
</trkpt>
<trkpt lat="42.856758248138384" lon="-2.873492746557071">
<ele>1356</ele>
<time>2013-10-16T16:56:06Z</time>
</trkpt>
<trkpt lat="42.85681489104501" lon="-2.873570417580232">
<ele>1364</ele>
<time>2013-10-16T16:56:08Z</time>
</trkpt>
<trkpt lat="42.8568714714987" lon="-2.8736337603213937">
<ele>1370</ele>
<time>2013-10-16T16:56:10Z</time>
</trkpt>
<trkpt lat="42.85693960739209" lon="-2.873721305530098">
<ele>1376</ele>
<time>2013-10-16T16:56:12Z</time>
</trkpt>
<trkpt lat="42.85700428726021" lon="-2.873797997424679">
<ele>1381</ele>
<time>2013-10-16T16:56:14Z</time>
</trkpt>
<trkpt lat="42.85706567730661" lon="-2.873852469327391">
<ele>1386</ele>
<time>2013-10-16T16:56:16Z</time>
</trkpt>
<trkpt lat="42.8571143023367" lon="-2.8738729277245456">
<ele>1386</ele>
<time>2013-10-16T16:56:18Z</time>
</trkpt>
<trkpt lat="42.85716927543368" lon="-2.8739177068761497">
<ele>1389</ele>
<time>2013-10-16T16:56:20Z</time>
</trkpt>
<trkpt lat="42.85721577638187" lon="-2.87400585580701">
<ele>1394</ele>
<time>2013-10-16T16:56:22Z</time>
</trkpt>
<trkpt lat="42.85726874346709" lon="-2.8741171365786364">
<ele>1397</ele>
<time>2013-10-16T16:56:24Z</time>
</trkpt>
<trkpt lat="42.857316021082305" lon="-2.874198180461458">
<ele>1402</ele>
<time>2013-10-16T16:56:26Z</time>
</trkpt>
<trkpt lat="42.85736566147289" lon="-2.8742573168575576">
<ele>1405</ele>
<time>2013-10-16T16:56:28Z</time>
</trkpt>
<trkpt lat="42.857441063693805" lon="-2.8743198128811676">
<ele>1408</ele>
<time>2013-10-16T16:56:30Z</time>
</trkpt>
<trkpt lat="42.85752657992224" lon="-2.8743714603365205">
<ele>1412</ele>
<time>2013-10-16T16:56:32Z</time>
</trkpt>
<trkpt lat="42.85760415338976" lon="-2.874403236590837">
<ele>1415</ele>
<time>2013-10-16T16:56:34Z</time>
</trkpt>
<trkpt lat="42.8576653030421" lon="-2.874417933490633">
<ele>1418</ele>
<time>2013-10-16T16:56:36Z</time>
</trkpt>
<trkpt lat="42.857749202031535" lon="-2.874469698802156">
<ele>1420</ele>
<time>2013-10-16T16:56:38Z</time>
</trkpt>
<trkpt lat="42.85784360978108" lon="-2.874546636211244">
<ele>1422</ele>
<time>2013-10-16T16:56:40Z</time>
</trkpt>
<trkpt lat="42.85788074739413" lon="-2.8745999610981428">
<ele>1422</ele>
<time>2013-10-16T16:56:42Z</time>
</trkpt>
<trkpt lat="42.85789928169403" lon="-2.874650221202153">
<ele>1422</ele>
<time>2013-10-16T16:56:44Z</time>
</trkpt>
<trkpt lat="42.857913664468725" lon="-2.8747320654560613">
<ele>1422</ele>
<time>2013-10-16T16:56:46Z</time>
</trkpt>
<trkpt lat="42.85792653289384" lon="-2.874818040906839">
<ele>1423</ele>
<time>2013-10-16T16:56:48Z</time>
</trkpt>
<trkpt lat="42.85792899205208" lon="-2.874847438056208">
<ele>1423</ele>
<time>2013-10-16T16:56:50Z</time>
</trkpt>
<trkpt lat="42.85795133048281" lon="-2.8749373157997686">
<ele>1425</ele>
<time>2013-10-16T16:56:52Z</time>
</trkpt>
<trkpt lat="42.85798211789637" lon="-2.8751000336415133">
<ele>1428</ele>
<time>2013-10-16T16:56:54Z</time>
</trkpt>
<trkpt lat="42.85800967582791" lon="-2.8752080640319764">
<ele>1430</ele>
<time>2013-10-16T16:56:56Z</time>
</trkpt>
<trkpt lat="42.85804903921963" lon="-2.8752970293514606">
<ele>1431</ele>
<time>2013-10-16T16:56:58Z</time>
</trkpt>
<trkpt lat="42.85810982366774" lon="-2.8754225163142837">
<ele>1432</ele>
<time>2013-10-16T16:57:00Z</time>
</trkpt>
<trkpt lat="42.85817547623834" lon="-2.8755489931647977">
<ele>1432</ele>
<time>2013-10-16T16:57:02Z</time>
</trkpt>
<trkpt lat="42.858242373153494" lon="-2.8756669926223557">
<ele>1432</ele>
<time>2013-10-16T16:57:04Z</time>
</trkpt>
<trkpt lat="42.85831856092427" lon="-2.875789634898091">
<ele>1432</ele>
<time>2013-10-16T16:57:06Z</time>
</trkpt>
<trkpt lat="42.858403501834246" lon="-2.875885874459468">
<ele>1431</ele>
<time>2013-10-16T16:57:08Z</time>
</trkpt>
<trkpt lat="42.85849477290259" lon="-2.8759319640790246">
<ele>1431</ele>
<time>2013-10-16T16:57:10Z</time>
</trkpt>
<trkpt lat="42.858599699936875" lon="-2.8759670050111725">
<ele>1430</ele>
<time>2013-10-16T16:57:12Z</time>
</trkpt>
<trkpt lat="42.85868516640435" lon="-2.8760185080080154">
<ele>1429</ele>
<time>2013-10-16T16:57:14Z</time>
</trkpt>
<trkpt lat="42.85874751608952" lon="-2.876076664388995">
<ele>1429</ele>
<time>2013-10-16T16:57:16Z</time>
</trkpt>
<trkpt lat="42.85880200183126" lon="-2.8761074378704308">
<ele>1429</ele>
<time>2013-10-16T16:57:18Z</time>
</trkpt>
<trkpt lat="42.85887861348439" lon="-2.8761507578961782">
<ele>1429</ele>
<time>2013-10-16T16:57:20Z</time>
</trkpt>
<trkpt lat="42.85895305041363" lon="-2.8762030781806263">
<ele>1429</ele>
<time>2013-10-16T16:57:22Z</time>
</trkpt>
<trkpt lat="42.85900432760958" lon="-2.8762749017794156">
<ele>1429</ele>
<time>2013-10-16T16:57:24Z</time>
</trkpt>
<trkpt lat="42.85904985891916" lon="-2.876353198260542">
<ele>1428</ele>
<time>2013-10-16T16:57:26Z</time>
</trkpt>
<trkpt lat="42.85912801060559" lon="-2.876418550108217">
<ele>1426</ele>
<time>2013-10-16T16:57:28Z</time>
</trkpt>
<trkpt lat="42.859197250207814" lon="-2.876512471126574">
<ele>1425</ele>
<time>2013-10-16T16:57:30Z</time>
</trkpt>
<trkpt lat="42.859263796400015" lon="-2.8766006417274577">
<ele>1424</ele>
<time>2013-10-16T16:57:32Z</time>
</trkpt>
<trkpt lat="42.85934801403291" lon="-2.8766641382882394">
<ele>1423</ele>
<time>2013-10-16T16:57:34Z</time>
</trkpt>
<trkpt lat="42.85944675811228" lon="-2.8766385309565274">
<ele>1423</ele>
<time>2013-10-16T16:57:36Z</time>
</trkpt>
<trkpt lat="42.85950838530855" lon="-2.8765631446172497">
<ele>1424</ele>
<time>2013-10-16T16:57:38Z</time>
</trkpt>
<trkpt lat="42.859579677273544" lon="-2.8765192764643337">
<ele>1424</ele>
<time>2013-10-16T16:57:40Z</time>
</trkpt>
<trkpt lat="42.85966351880507" lon="-2.8764985947488366">
<ele>1424</ele>
<time>2013-10-16T16:57:42Z</time>
</trkpt>
<trkpt lat="42.859754373916715" lon="-2.8765014310572994">
<ele>1423</ele>
<time>2013-10-16T16:57:44Z</time>
</trkpt>
<trkpt lat="42.859798697355174" lon="-2.8765439333731657">
<ele>1423</ele>
<time>2013-10-16T16:57:46Z</time>
</trkpt>
<trkpt lat="42.85986285764849" lon="-2.8766207842959917">
<ele>1422</ele>
<time>2013-10-16T16:57:48Z</time>
</trkpt>
<trkpt lat="42.85994133264367" lon="-2.8766991211082904">
<ele>1422</ele>
<time>2013-10-16T16:57:50Z</time>
</trkpt>
<trkpt lat="42.85998800766222" lon="-2.87676233319478">
<ele>1422</ele>
<time>2013-10-16T16:57:52Z</time>
</trkpt>
<trkpt lat="42.86001400213992" lon="-2.87685221221619">
<ele>1422</ele>
<time>2013-10-16T16:57:54Z</time>
</trkpt>
<trkpt lat="42.860034127298405" lon="-2.87695435534001">
<ele>1422</ele>
<time>2013-10-16T16:57:56Z</time>
</trkpt>
<trkpt lat="42.86006331396789" lon="-2.877063720593503">
<ele>1420</ele>
<time>2013-10-16T16:57:58Z</time>
</trkpt>
<trkpt lat="42.86006702014029" lon="-2.87715979991013">
<ele>1420</ele>
<time>2013-10-16T16:58:00Z</time>
</trkpt>
<trkpt lat="42.86009752253665" lon="-2.8772684398577746">
<ele>1419</ele>
<time>2013-10-16T16:58:02Z</time>
</trkpt>
<trkpt lat="42.8601668960784" lon="-2.8773897246272466">
<ele>1416</ele>
<time>2013-10-16T16:58:04Z</time>
</trkpt>
<trkpt lat="42.86023025133327" lon="-2.877477705595041">
<ele>1413</ele>
<time>2013-10-16T16:58:06Z</time>
</trkpt>
<trkpt lat="42.860276193119674" lon="-2.877547393811338">
<ele>1413</ele>
<time>2013-10-16T16:58:08Z</time>
</trkpt>
<trkpt lat="42.86034927219121" lon="-2.8776873076576206">
<ele>1408</ele>
<time>2013-10-16T16:58:10Z</time>
</trkpt>
<trkpt lat="42.86042037718556" lon="-2.877837181363514">
<ele>1404</ele>
<time>2013-10-16T16:58:12Z</time>
</trkpt>
<trkpt lat="42.86052504569567" lon="-2.877936181480205">
<ele>1399</ele>
<time>2013-10-16T16:58:14Z</time>
</trkpt>
<trkpt lat="42.86062019188183" lon="-2.878074547044834">
<ele>1395</ele>
<time>2013-10-16T16:58:16Z</time>
</trkpt>
<trkpt lat="42.86068036587318" lon="-2.878219229482324">
<ele>1392</ele>
<time>2013-10-16T16:58:18Z</time>
</trkpt>
<trkpt lat="42.86074525182581" lon="-2.8783178950105803">
<ele>1388</ele>
<time>2013-10-16T16:58:20Z</time>
</trkpt>
<trkpt lat="42.860846329113926" lon="-2.8784232254734077">
<ele>1383</ele>
<time>2013-10-16T16:58:22Z</time>
</trkpt>
<trkpt lat="42.86091355756474" lon="-2.8785428036234113">
<ele>1380</ele>
<time>2013-10-16T16:58:24Z</time>
</trkpt>
<trkpt lat="42.860960884607415" lon="-2.878635726332988">
<ele>1377</ele>
<time>2013-10-16T16:58:26Z</time>
</trkpt>
<trkpt lat="42.86099583234619" lon="-2.8787337446644905">
<ele>1375</ele>
<time>2013-10-16T16:58:28Z</time>
</trkpt>
<trkpt lat="42.86104124721295" lon="-2.8788629483272183">
<ele>1372</ele>
<time>2013-10-16T16:58:30Z</time>
</trkpt>
<trkpt lat="42.861080131621044" lon="-2.8789852830147775">
<ele>1369</ele>
<time>2013-10-16T16:58:32Z</time>
</trkpt>
<trkpt lat="42.86110551076997" lon="-2.879090720441063">
<ele>1367</ele>
<time>2013-10-16T16:58:34Z</time>
</trkpt>
<trkpt lat="42.86112645542562" lon="-2.8792019748976503">
<ele>1365</ele>
<time>2013-10-16T16:58:36Z</time>
</trkpt>
<trkpt lat="42.86115431838853" lon="-2.8793129015003553">
<ele>1362</ele>
<time>2013-10-16T16:58:38Z</time>
</trkpt>
<trkpt lat="42.86118476026448" lon="-2.8794147113410644">
<ele>1359</ele>
<time>2013-10-16T16:58:40Z</time>
</trkpt>
<trkpt lat="42.86121784925622" lon="-2.87952424728261">
<ele>1355</ele>
<time>2013-10-16T16:58:42Z</time>
</trkpt>
<trkpt lat="42.861266737469855" lon="-2.8796486511121646">
<ele>1353</ele>
<time>2013-10-16T16:58:44Z</time>
</trkpt>
<trkpt lat="42.86132478708164" lon="-2.879791130822944">
<ele>1350</ele>
<time>2013-10-16T16:58:46Z</time>
</trkpt>
<trkpt lat="42.86137031366649" lon="-2.879942960961701">
<ele>1348</ele>
<time>2013-10-16T16:58:48Z</time>
</trkpt>
<trkpt lat="42.86140797393929" lon="-2.8800958679715296">
<ele>1347</ele>
<time>2013-10-16T16:58:50Z</time>
</trkpt>
<trkpt lat="42.861443711300524" lon="-2.8802559780452675">
<ele>1346</ele>
<time>2013-10-16T16:58:52Z</time>
</trkpt>
<trkpt lat="42.86147486419335" lon="-2.8804214397443415">
<ele>1345</ele>
<time>2013-10-16T16:58:54Z</time>
</trkpt>
<trkpt lat="42.86149755185905" lon="-2.8805950426605493">
<ele>1345</ele>
<time>2013-10-16T16:58:56Z</time>
</trkpt>
<trkpt lat="42.86151274458548" lon="-2.8807534680297566">
<ele>1345</ele>
<time>2013-10-16T16:58:58Z</time>
</trkpt>
<trkpt lat="42.86153396593511" lon="-2.8809111960827227">
<ele>1342</ele>
<time>2013-10-16T16:59:00Z</time>
</trkpt>
<trkpt lat="42.86156134693056" lon="-2.881123200115711">
<ele>1340</ele>
<time>2013-10-16T16:59:02Z</time>
</trkpt>
<trkpt lat="42.861586551711675" lon="-2.881340598125746">
<ele>1338</ele>
<time>2013-10-16T16:59:04Z</time>
</trkpt>
<trkpt lat="42.861608104088106" lon="-2.8815070417902433">
<ele>1336</ele>
<time>2013-10-16T16:59:06Z</time>
</trkpt>
<trkpt lat="42.861625469707825" lon="-2.881715520198583">
<ele>1335</ele>
<time>2013-10-16T16:59:08Z</time>
</trkpt>
<trkpt lat="42.861642722994155" lon="-2.881919244386316">
<ele>1334</ele>
<time>2013-10-16T16:59:10Z</time>
</trkpt>
<trkpt lat="42.86166335601599" lon="-2.8821179599299103">
<ele>1334</ele>
<time>2013-10-16T16:59:12Z</time>
</trkpt>
<trkpt lat="42.86168519061077" lon="-2.882309986185457">
<ele>1334</ele>
<time>2013-10-16T16:59:14Z</time>
</trkpt>
<trkpt lat="42.86169837134884" lon="-2.8825021260647357">
<ele>1334</ele>
<time>2013-10-16T16:59:16Z</time>
</trkpt>
<trkpt lat="42.86170795339242" lon="-2.8827147196109744">
<ele>1335</ele>
<time>2013-10-16T16:59:18Z</time>
</trkpt>
<trkpt lat="42.86172766497178" lon="-2.8829127870777524">
<ele>1335</ele>
<time>2013-10-16T16:59:20Z</time>
</trkpt>
<trkpt lat="42.8617499581347" lon="-2.8830378493676854">
<ele>1334</ele>
<time>2013-10-16T16:59:22Z</time>
</trkpt>
<trkpt lat="42.86178537697705" lon="-2.8832227240184007">
<ele>1332</ele>
<time>2013-10-16T16:59:24Z</time>
</trkpt>
<trkpt lat="42.86182086477859" lon="-2.8834127030393852">
<ele>1330</ele>
<time>2013-10-16T16:59:26Z</time>
</trkpt>
<trkpt lat="42.86184915603511" lon="-2.8835707712246728">
<ele>1327</ele>
<time>2013-10-16T16:59:28Z</time>
</trkpt>
<trkpt lat="42.86188771197907" lon="-2.8837329782220573">
<ele>1325</ele>
<time>2013-10-16T16:59:30Z</time>
</trkpt>
<trkpt lat="42.861928816142324" lon="-2.8838562113051296">
<ele>1324</ele>
<time>2013-10-16T16:59:32Z</time>
</trkpt>
<trkpt lat="42.861965414527" lon="-2.8840076099880467">
<ele>1322</ele>
<time>2013-10-16T16:59:34Z</time>
</trkpt>
<trkpt lat="42.861997563595615" lon="-2.8841941807872686">
<ele>1321</ele>
<time>2013-10-16T16:59:36Z</time>
</trkpt>
<trkpt lat="42.86202228965624" lon="-2.8843620159389305">
<ele>1322</ele>
<time>2013-10-16T16:59:38Z</time>
</trkpt>
<trkpt lat="42.862037965418935" lon="-2.884487480634673">
<ele>1323</ele>
<time>2013-10-16T16:59:40Z</time>
</trkpt>
<trkpt lat="42.86205454240881" lon="-2.884656200203609">
<ele>1322</ele>
<time>2013-10-16T16:59:42Z</time>
</trkpt>
<trkpt lat="42.86207573867396" lon="-2.8848458734732576">
<ele>1322</ele>
<time>2013-10-16T16:59:44Z</time>
</trkpt>
<trkpt lat="42.862089783124446" lon="-2.884989027881541">
<ele>1321</ele>
<time>2013-10-16T16:59:46Z</time>
</trkpt>
<trkpt lat="42.86209821750643" lon="-2.8851715593647858">
<ele>1320</ele>
<time>2013-10-16T16:59:48Z</time>
</trkpt>
<trkpt lat="42.86210681971034" lon="-2.885390984925429">
<ele>1319</ele>
<time>2013-10-16T16:59:50Z</time>
</trkpt>
<trkpt lat="42.86211701450219" lon="-2.885608165260526">
<ele>1318</ele>
<time>2013-10-16T16:59:52Z</time>
</trkpt>
<trkpt lat="42.86212884015974" lon="-2.885816637407485">
<ele>1317</ele>
<time>2013-10-16T16:59:54Z</time>
</trkpt>
<trkpt lat="42.86214502570028" lon="-2.8860071155470335">
<ele>1316</ele>
<time>2013-10-16T16:59:56Z</time>
</trkpt>
<trkpt lat="42.86216070700412" lon="-2.8861808488704153">
<ele>1315</ele>
<time>2013-10-16T16:59:58Z</time>
</trkpt>
<trkpt lat="42.862174615099434" lon="-2.8863784158518535">
<ele>1314</ele>
<time>2013-10-16T17:00:00Z</time>
</trkpt>
<trkpt lat="42.86219566280941" lon="-2.886580046033367">
<ele>1313</ele>
<time>2013-10-16T17:00:02Z</time>
</trkpt>
<trkpt lat="42.8622194592646" lon="-2.886748671120337">
<ele>1313</ele>
<time>2013-10-16T17:00:04Z</time>
</trkpt>
<trkpt lat="42.862238325090175" lon="-2.8869409577924707">
<ele>1312</ele>
<time>2013-10-16T17:00:06Z</time>
</trkpt>
<trkpt lat="42.86225480758795" lon="-2.887133236057299">
<ele>1311</ele>
<time>2013-10-16T17:00:08Z</time>
</trkpt>
<trkpt lat="42.862269632361645" lon="-2.887292922952069">
<ele>1309</ele>
<time>2013-10-16T17:00:10Z</time>
</trkpt>
<trkpt lat="42.86228140537811" lon="-2.8874454009578345">
<ele>1308</ele>
<time>2013-10-16T17:00:12Z</time>
</trkpt>
<trkpt lat="42.8622940553312" lon="-2.887630076815344">
<ele>1306</ele>
<time>2013-10-16T17:00:14Z</time>
</trkpt>
<trkpt lat="42.862310154188336" lon="-2.887816233761214">
<ele>1304</ele>
<time>2013-10-16T17:00:16Z</time>
</trkpt>
<trkpt lat="42.86234234147762" lon="-2.887955484303171">
<ele>1303</ele>
<time>2013-10-16T17:00:18Z</time>
</trkpt>
<trkpt lat="42.8623714929146" lon="-2.8880675392021917">
<ele>1302</ele>
<time>2013-10-16T17:00:20Z</time>
</trkpt>
<trkpt lat="42.862396569672" lon="-2.8882079570817525">
<ele>1301</ele>
<time>2013-10-16T17:00:22Z</time>
</trkpt>
<trkpt lat="42.86241085977557" lon="-2.888357289940787">
<ele>1300</ele>
<time>2013-10-16T17:00:24Z</time>
</trkpt>
<trkpt lat="42.86242235085481" lon="-2.8884495846066587">
<ele>1299</ele>
<time>2013-10-16T17:00:26Z</time>
</trkpt>
<trkpt lat="42.862447160030676" lon="-2.8885704274828834">
<ele>1296</ele>
<time>2013-10-16T17:00:28Z</time>
</trkpt>
<trkpt lat="42.86247628444276" lon="-2.8887334813794294">
<ele>1292</ele>
<time>2013-10-16T17:00:30Z</time>
</trkpt>
<trkpt lat="42.8624948216494" lon="-2.888932698728315">
<ele>1290</ele>
<time>2013-10-16T17:00:32Z</time>
</trkpt>
<trkpt lat="42.86249433175999" lon="-2.8890880156483765">
<ele>1289</ele>
<time>2013-10-16T17:00:34Z</time>
</trkpt>
<trkpt lat="42.862482665001906" lon="-2.889214964759871">
<ele>1287</ele>
<time>2013-10-16T17:00:36Z</time>
</trkpt>
<trkpt lat="42.86247047560839" lon="-2.889349924678081">
<ele>1285</ele>
<time>2013-10-16T17:00:38Z</time>
</trkpt>
<trkpt lat="42.86246137755705" lon="-2.889466016631573">
<ele>1284</ele>
<time>2013-10-16T17:00:40Z</time>
</trkpt>
<trkpt lat="42.86244628431737" lon="-2.8895685844171934">
<ele>1282</ele>
<time>2013-10-16T17:00:42Z</time>
</trkpt>
<trkpt lat="42.86242966281015" lon="-2.889704490900563">
<ele>1278</ele>
<time>2013-10-16T17:00:44Z</time>
</trkpt>
<trkpt lat="42.862418243705385" lon="-2.889836380971028">
<ele>1274</ele>
<time>2013-10-16T17:00:46Z</time>
</trkpt>
<trkpt lat="42.86240680643694" lon="-2.8899326288270824">
<ele>1269</ele>
<time>2013-10-16T17:00:48Z</time>
</trkpt>
<trkpt lat="42.862396908288524" lon="-2.890035530321056">
<ele>1266</ele>
<time>2013-10-16T17:00:50Z</time>
</trkpt>
<trkpt lat="42.86239234292151" lon="-2.890128905209193">
<ele>1265</ele>
<time>2013-10-16T17:00:52Z</time>
</trkpt>
<trkpt lat="42.862387153714586" lon="-2.890215837094628">
<ele>1265</ele>
<time>2013-10-16T17:00:54Z</time>
</trkpt>
<trkpt lat="42.86239621176576" lon="-2.890323020517751">
<ele>1260</ele>
<time>2013-10-16T17:00:56Z</time>
</trkpt>
<trkpt lat="42.86242582279753" lon="-2.890430053294632">
<ele>1258</ele>
<time>2013-10-16T17:00:58Z</time>
</trkpt>
<trkpt lat="42.86247073134806" lon="-2.890508931462703">
<ele>1258</ele>
<time>2013-10-16T17:01:00Z</time>
</trkpt>
<trkpt lat="42.862494590363234" lon="-2.8905706623402034">
<ele>1257</ele>
<time>2013-10-16T17:01:02Z</time>
</trkpt>
<trkpt lat="42.86249427154402" lon="-2.8906491466854543">
<ele>1256</ele>
<time>2013-10-16T17:01:04Z</time>
</trkpt>
<trkpt lat="42.8625028530874" lon="-2.890764240774151">
<ele>1256</ele>
<time>2013-10-16T17:01:06Z</time>
</trkpt>
<trkpt lat="42.862504485703354" lon="-2.890864122179886">
<ele>1255</ele>
<time>2013-10-16T17:01:08Z</time>
</trkpt>
<trkpt lat="42.862495003926966" lon="-2.890970242798449">
<ele>1254</ele>
<time>2013-10-16T17:01:10Z</time>
</trkpt>
<trkpt lat="42.86249670859726" lon="-2.8910970678829475">
<ele>1245</ele>
<time>2013-10-16T17:01:12Z</time>
</trkpt>
<trkpt lat="42.86250010464344" lon="-2.891252033907705">
<ele>1238</ele>
<time>2013-10-16T17:01:14Z</time>
</trkpt>
<trkpt lat="42.862506151088354" lon="-2.8913642204368344">
<ele>1232</ele>
<time>2013-10-16T17:01:16Z</time>
</trkpt>
<trkpt lat="42.86250655912865" lon="-2.891486839090209">
<ele>1227</ele>
<time>2013-10-16T17:01:18Z</time>
</trkpt>
<trkpt lat="42.86250591134665" lon="-2.891629057113275">
<ele>1223</ele>
<time>2013-10-16T17:01:20Z</time>
</trkpt>
<trkpt lat="42.862494539441336" lon="-2.891785114174499">
<ele>1219</ele>
<time>2013-10-16T17:01:22Z</time>
</trkpt>
<trkpt lat="42.86248109027344" lon="-2.8919248935827406">
<ele>1215</ele>
<time>2013-10-16T17:01:24Z</time>
</trkpt>
<trkpt lat="42.86247049058292" lon="-2.892052746872436">
<ele>1212</ele>
<time>2013-10-16T17:01:26Z</time>
</trkpt>
<trkpt lat="42.86246203049719" lon="-2.8921800089517307">
<ele>1209</ele>
<time>2013-10-16T17:01:28Z</time>
</trkpt>
<trkpt lat="42.86243911674643" lon="-2.89232543723379">
<ele>1206</ele>
<time>2013-10-16T17:01:30Z</time>
</trkpt>
<trkpt lat="42.86242084093574" lon="-2.8924756815559785">
<ele>1203</ele>
<time>2013-10-16T17:01:32Z</time>
</trkpt>
<trkpt lat="42.86241600308523" lon="-2.892620579500398">
<ele>1199</ele>
<time>2013-10-16T17:01:34Z</time>
</trkpt>
<trkpt lat="42.86241402640485" lon="-2.892795526150682">
<ele>1196</ele>
<time>2013-10-16T17:01:36Z</time>
</trkpt>
<trkpt lat="42.862406854939515" lon="-2.892972986979831">
<ele>1193</ele>
<time>2013-10-16T17:01:38Z</time>
</trkpt>
<trkpt lat="42.86239348120275" lon="-2.8931332788066197">
<ele>1189</ele>
<time>2013-10-16T17:01:40Z</time>
</trkpt>
<trkpt lat="42.86238116326291" lon="-2.89327963644719">
<ele>1186</ele>
<time>2013-10-16T17:01:42Z</time>
</trkpt>
<trkpt lat="42.86236852772672" lon="-2.8934520361386173">
<ele>1183</ele>
<time>2013-10-16T17:01:44Z</time>
</trkpt>
<trkpt lat="42.86235605329131" lon="-2.893613384617538">
<ele>1181</ele>
<time>2013-10-16T17:01:46Z</time>
</trkpt>
<trkpt lat="42.86233480756606" lon="-2.893770261213813">
<ele>1178</ele>
<time>2013-10-16T17:01:48Z</time>
</trkpt>
<trkpt lat="42.86231788108325" lon="-2.893919663364725">
<ele>1175</ele>
<time>2013-10-16T17:01:50Z</time>
</trkpt>
<trkpt lat="42.86229025603631" lon="-2.8940775604056745">
<ele>1173</ele>
<time>2013-10-16T17:01:52Z</time>
</trkpt>
<trkpt lat="42.86223827181016" lon="-2.894258210266152">
<ele>1170</ele>
<time>2013-10-16T17:01:54Z</time>
</trkpt>
<trkpt lat="42.86217963675842" lon="-2.8944438738690836">
<ele>1168</ele>
<time>2013-10-16T17:01:56Z</time>
</trkpt>
<trkpt lat="42.86213016138486" lon="-2.8946335071012532">
<ele>1165</ele>
<time>2013-10-16T17:01:58Z</time>
</trkpt>
<trkpt lat="42.86208580397799" lon="-2.8948130431703367">
<ele>1163</ele>
<time>2013-10-16T17:02:00Z</time>
</trkpt>
<trkpt lat="42.86205034166921" lon="-2.8949662467133375">
<ele>1161</ele>
<time>2013-10-16T17:02:02Z</time>
</trkpt>
<trkpt lat="42.86202699429145" lon="-2.895131988846841">
<ele>1159</ele>
<time>2013-10-16T17:02:04Z</time>
</trkpt>
<trkpt lat="42.862008689160085" lon="-2.895283853502435">
<ele>1157</ele>
<time>2013-10-16T17:02:06Z</time>
</trkpt>
<trkpt lat="42.8619881840712" lon="-2.8954401233234437">
<ele>1154</ele>
<time>2013-10-16T17:02:08Z</time>
</trkpt>
<trkpt lat="42.86197021047847" lon="-2.8955852564204148">
<ele>1152</ele>
<time>2013-10-16T17:02:10Z</time>
</trkpt>
<trkpt lat="42.86194296416196" lon="-2.8957425768737317">
<ele>1149</ele>
<time>2013-10-16T17:02:12Z</time>
</trkpt>
<trkpt lat="42.8619181663271" lon="-2.895903014670346">
<ele>1146</ele>
<time>2013-10-16T17:02:14Z</time>
</trkpt>
<trkpt lat="42.86190431886624" lon="-2.8960348974056283">
<ele>1143</ele>
<time>2013-10-16T17:02:16Z</time>
</trkpt>
<trkpt lat="42.86189710295737" lon="-2.896162296811476">
<ele>1140</ele>
<time>2013-10-16T17:02:18Z</time>
</trkpt>
<trkpt lat="42.8618944430127" lon="-2.8963133910904384">
<ele>1137</ele>
<time>2013-10-16T17:02:20Z</time>
</trkpt>
<trkpt lat="42.86188912348396" lon="-2.8964573764056216">
<ele>1134</ele>
<time>2013-10-16T17:02:22Z</time>
</trkpt>
<trkpt lat="42.86187933383769" lon="-2.896601723273232">
<ele>1131</ele>
<time>2013-10-16T17:02:24Z</time>
</trkpt>
<trkpt lat="42.86186673367305" lon="-2.8967219959618964">
<ele>1129</ele>
<time>2013-10-16T17:02:26Z</time>
</trkpt>
<trkpt lat="42.861836688764264" lon="-2.896873465562805">
<ele>1127</ele>
<time>2013-10-16T17:02:28Z</time>
</trkpt>
<trkpt lat="42.86180525032141" lon="-2.897022380143215">
<ele>1125</ele>
<time>2013-10-16T17:02:30Z</time>
</trkpt>
<trkpt lat="42.861784798126784" lon="-2.8971640390278304">
<ele>1124</ele>
<time>2013-10-16T17:02:32Z</time>
</trkpt>
<trkpt lat="42.861768700814594" lon="-2.897311035824534">
<ele>1123</ele>
<time>2013-10-16T17:02:34Z</time>
</trkpt>
<trkpt lat="42.861747724532854" lon="-2.8974623586321893">
<ele>1122</ele>
<time>2013-10-16T17:02:36Z</time>
</trkpt>
<trkpt lat="42.861712826469116" lon="-2.8976399777311994">
<ele>1121</ele>
<time>2013-10-16T17:02:38Z</time>
</trkpt>
<trkpt lat="42.86168014691105" lon="-2.8977760002385637">
<ele>1121</ele>
<time>2013-10-16T17:02:40Z</time>
</trkpt>
<trkpt lat="42.86167198043854" lon="-2.8978646127610284">
<ele>1121</ele>
<time>2013-10-16T17:02:42Z</time>
</trkpt>
<trkpt lat="42.861724221243286" lon="-2.89783816110127">
<ele>1121</ele>
<time>2013-10-16T17:02:44Z</time>
</trkpt>
<trkpt lat="42.86177116194683" lon="-2.897670543124337">
<ele>1122</ele>
<time>2013-10-16T17:02:46Z</time>
</trkpt>
<trkpt lat="42.86176079309735" lon="-2.897441169847321">
<ele>1122</ele>
<time>2013-10-16T17:02:48Z</time>
</trkpt>
<trkpt lat="42.86168770951601" lon="-2.8971739591233554">
<ele>1122</ele>
<time>2013-10-16T17:02:50Z</time>
</trkpt>
<trkpt lat="42.86154275043938" lon="-2.8969255088435615">
<ele>1121</ele>
<time>2013-10-16T17:02:52Z</time>
</trkpt>
<trkpt lat="42.86128997203512" lon="-2.896742326092771">
<ele>1121</ele>
<time>2013-10-16T17:02:54Z</time>
</trkpt>
<trkpt lat="42.86100631159157" lon="-2.8967387847323476">
<ele>1121</ele>
<time>2013-10-16T17:02:56Z</time>
</trkpt>
<trkpt lat="42.860786886210384" lon="-2.89684285060757">
<ele>1121</ele>
<time>2013-10-16T17:02:58Z</time>
</trkpt>
<trkpt lat="42.8606257948087" lon="-2.896983799967175">
<ele>1120</ele>
<time>2013-10-16T17:03:00Z</time>
</trkpt>
<trkpt lat="42.86051322608886" lon="-2.8971475691773967">
<ele>1120</ele>
<time>2013-10-16T17:03:02Z</time>
</trkpt>
<trkpt lat="42.86044583522213" lon="-2.8973189140563433">
<ele>1120</ele>
<time>2013-10-16T17:03:04Z</time>
</trkpt>
<trkpt lat="42.86038522139118" lon="-2.89748353868644">
<ele>1120</ele>
<time>2013-10-16T17:03:06Z</time>
</trkpt>
<trkpt lat="42.86032195113088" lon="-2.897666426045625">
<ele>1120</ele>
<time>2013-10-16T17:03:08Z</time>
</trkpt>
<trkpt lat="42.8602726951932" lon="-2.897852848954917">
<ele>1119</ele>
<time>2013-10-16T17:03:10Z</time>
</trkpt>
<trkpt lat="42.860240511811696" lon="-2.8980004382133298">
<ele>1119</ele>
<time>2013-10-16T17:03:12Z</time>
</trkpt>
<trkpt lat="42.860228459845814" lon="-2.898107013443429">
<ele>1119</ele>
<time>2013-10-16T17:03:14Z</time>
</trkpt>
<trkpt lat="42.860214984065834" lon="-2.898268538061436">
<ele>1118</ele>
<time>2013-10-16T17:03:16Z</time>
</trkpt>
<trkpt lat="42.860202836242465" lon="-2.8984430499356235">
<ele>1117</ele>
<time>2013-10-16T17:03:18Z</time>
</trkpt>
<trkpt lat="42.86018907611271" lon="-2.898610701800092">
<ele>1116</ele>
<time>2013-10-16T17:03:20Z</time>
</trkpt>
<trkpt lat="42.860163537175886" lon="-2.8987789808739794">
<ele>1115</ele>
<time>2013-10-16T17:03:22Z</time>
</trkpt>
<trkpt lat="42.860125795749795" lon="-2.898934208489165">
<ele>1114</ele>
<time>2013-10-16T17:03:24Z</time>
</trkpt>
<trkpt lat="42.8600844885349" lon="-2.8990775956477757">
<ele>1112</ele>
<time>2013-10-16T17:03:26Z</time>
</trkpt>
<trkpt lat="42.86003838118711" lon="-2.8992425238476938">
<ele>1111</ele>
<time>2013-10-16T17:03:28Z</time>
</trkpt>
<trkpt lat="42.86000546439357" lon="-2.8993949938697448">
<ele>1109</ele>
<time>2013-10-16T17:03:30Z</time>
</trkpt>
<trkpt lat="42.85998066527405" lon="-2.899544360420288">
<ele>1107</ele>
<time>2013-10-16T17:03:32Z</time>
</trkpt>
<trkpt lat="42.859964427653466" lon="-2.8996925653254015">
<ele>1106</ele>
<time>2013-10-16T17:03:34Z</time>
</trkpt>
<trkpt lat="42.85995917456318" lon="-2.8998213104009634">
<ele>1105</ele>
<time>2013-10-16T17:03:36Z</time>
</trkpt>
<trkpt lat="42.859953128495135" lon="-2.8999613966143905">
<ele>1103</ele>
<time>2013-10-16T17:03:38Z</time>
</trkpt>
<trkpt lat="42.85994247393446" lon="-2.9001138564073132">
<ele>1101</ele>
<time>2013-10-16T17:03:40Z</time>
</trkpt>
<trkpt lat="42.85994302830306" lon="-2.900257214978719">
<ele>1101</ele>
<time>2013-10-16T17:03:42Z</time>
</trkpt>
<trkpt lat="42.859947188354745" lon="-2.900377333782815">
<ele>1100</ele>
<time>2013-10-16T17:03:44Z</time>
</trkpt>
<trkpt lat="42.85994681350924" lon="-2.900536553472997">
<ele>1100</ele>
<time>2013-10-16T17:03:46Z</time>
</trkpt>
<trkpt lat="42.859944261677995" lon="-2.900705933744172">
<ele>1100</ele>
<time>2013-10-16T17:03:48Z</time>
</trkpt>
<trkpt lat="42.859940525411204" lon="-2.9008179266968286">
<ele>1100</ele>
<time>2013-10-16T17:03:50Z</time>
</trkpt>
<trkpt lat="42.859925279581454" lon="-2.9009729894277423">
<ele>1100</ele>
<time>2013-10-16T17:03:52Z</time>
</trkpt>
<trkpt lat="42.85989818451549" lon="-2.9011723604370956">
<ele>1100</ele>
<time>2013-10-16T17:03:54Z</time>
</trkpt>
<trkpt lat="42.8598729738274" lon="-2.9013748130239683">
<ele>1100</ele>
<time>2013-10-16T17:03:56Z</time>
</trkpt>
<trkpt lat="42.85985765736774" lon="-2.901578364694365">
<ele>1100</ele>
<time>2013-10-16T17:03:58Z</time>
</trkpt>
<trkpt lat="42.85985516549269" lon="-2.9017801523174094">
<ele>1100</ele>
<time>2013-10-16T17:04:00Z</time>
</trkpt>
<trkpt lat="42.85984542526479" lon="-2.9019318064277138">
<ele>1101</ele>
<time>2013-10-16T17:04:02Z</time>
</trkpt>
<trkpt lat="42.85982499367184" lon="-2.902069769456582">
<ele>1101</ele>
<time>2013-10-16T17:04:04Z</time>
</trkpt>
<trkpt lat="42.85979854781733" lon="-2.902234156442482">
<ele>1101</ele>
<time>2013-10-16T17:04:06Z</time>
</trkpt>
<trkpt lat="42.85977454471352" lon="-2.9024321719767956">
<ele>1102</ele>
<time>2013-10-16T17:04:08Z</time>
</trkpt>
<trkpt lat="42.85975663504639" lon="-2.9026034249036754">
<ele>1101</ele>
<time>2013-10-16T17:04:10Z</time>
</trkpt>
<trkpt lat="42.859740560367854" lon="-2.902757703478122">
<ele>1101</ele>
<time>2013-10-16T17:04:12Z</time>
</trkpt>
<trkpt lat="42.85970908114149" lon="-2.9029151802341286">
<ele>1100</ele>
<time>2013-10-16T17:04:14Z</time>
</trkpt>
<trkpt lat="42.85967040063296" lon="-2.9030629885879238">
<ele>1100</ele>
<time>2013-10-16T17:04:16Z</time>
</trkpt>
<trkpt lat="42.85962981399916" lon="-2.903221974499387">
<ele>1100</ele>
<time>2013-10-16T17:04:18Z</time>
</trkpt>
<trkpt lat="42.85962841107266" lon="-2.903368980578649">
<ele>1101</ele>
<time>2013-10-16T17:04:20Z</time>
</trkpt>
<trkpt lat="42.85964500460912" lon="-2.90349840758847">
<ele>1102</ele>
<time>2013-10-16T17:04:22Z</time>
</trkpt>
<trkpt lat="42.85965782040161" lon="-2.903608132569436">
<ele>1104</ele>
<time>2013-10-16T17:04:24Z</time>
</trkpt>
<trkpt lat="42.85967508888489" lon="-2.90370159193497">
<ele>1105</ele>
<time>2013-10-16T17:04:26Z</time>
</trkpt>
<trkpt lat="42.85973542351294" lon="-2.903742376409754">
<ele>1107</ele>
<time>2013-10-16T17:04:28Z</time>
</trkpt>
<trkpt lat="42.859853397348914" lon="-2.9036064799339822">
<ele>1109</ele>
<time>2013-10-16T17:04:30Z</time>
</trkpt>
<trkpt lat="42.85992188741976" lon="-2.9032836935563586">
<ele>1111</ele>
<time>2013-10-16T17:04:32Z</time>
</trkpt>
<trkpt lat="42.859845741262525" lon="-2.902961484797223">
<ele>1113</ele>
<time>2013-10-16T17:04:34Z</time>
</trkpt>
<trkpt lat="42.85967171810105" lon="-2.902724427519521">
<ele>1114</ele>
<time>2013-10-16T17:04:36Z</time>
</trkpt>
<trkpt lat="42.85946629502125" lon="-2.9026219545512317">
<ele>1116</ele>
<time>2013-10-16T17:04:38Z</time>
</trkpt>
<trkpt lat="42.85927832531126" lon="-2.9026350405605057">
<ele>1118</ele>
<time>2013-10-16T17:04:40Z</time>
</trkpt>
<trkpt lat="42.85915376510893" lon="-2.902763687203578">
<ele>1120</ele>
<time>2013-10-16T17:04:42Z</time>
</trkpt>
<trkpt lat="42.8591105993105" lon="-2.9028953743373545">
<ele>1122</ele>
<time>2013-10-16T17:04:44Z</time>
</trkpt>
<trkpt lat="42.85916142032782" lon="-2.9030062177746165">
<ele>1122</ele>
<time>2013-10-16T17:04:46Z</time>
</trkpt>
<trkpt lat="42.85927164138225" lon="-2.902999416699387">
<ele>1123</ele>
<time>2013-10-16T17:04:48Z</time>
</trkpt>
<trkpt lat="42.85939211444485" lon="-2.9027941318891006">
<ele>1124</ele>
<time>2013-10-16T17:04:50Z</time>
</trkpt>
<trkpt lat="42.85937831731749" lon="-2.9024977458984567">
<ele>1125</ele>
<time>2013-10-16T17:04:52Z</time>
</trkpt>
<trkpt lat="42.85925021474545" lon="-2.9022178039270226">
<ele>1126</ele>
<time>2013-10-16T17:04:54Z</time>
</trkpt>
<trkpt lat="42.85905583745345" lon="-2.902023081621157">
<ele>1127</ele>
<time>2013-10-16T17:04:56Z</time>
</trkpt>
<trkpt lat="42.858824832918266" lon="-2.9020043439292165">
<ele>1129</ele>
<time>2013-10-16T17:04:58Z</time>
</trkpt>
<trkpt lat="42.85865186780826" lon="-2.9020844451163423">
<ele>1131</ele>
<time>2013-10-16T17:05:00Z</time>
</trkpt>
<trkpt lat="42.85856799894136" lon="-2.90218612801652">
<ele>1133</ele>
<time>2013-10-16T17:05:02Z</time>
</trkpt>
<trkpt lat="42.858530314213205" lon="-2.902299304978572">
<ele>1133</ele>
<time>2013-10-16T17:05:04Z</time>
</trkpt>
<trkpt lat="42.858527951394535" lon="-2.9024431430887656">
<ele>1133</ele>
<time>2013-10-16T17:05:06Z</time>
</trkpt>
<trkpt lat="42.85855627085232" lon="-2.902590306354103">
<ele>1133</ele>
<time>2013-10-16T17:05:08Z</time>
</trkpt>
<trkpt lat="42.85858321938907" lon="-2.9027445581198354">
<ele>1133</ele>
<time>2013-10-16T17:05:10Z</time>
</trkpt>
<trkpt lat="42.8586042718847" lon="-2.9029115227418663">
<ele>1134</ele>
<time>2013-10-16T17:05:12Z</time>
</trkpt>
<trkpt lat="42.85862159311842" lon="-2.9030604613063726">
<ele>1136</ele>
<time>2013-10-16T17:05:14Z</time>
</trkpt>
<trkpt lat="42.8586357794766" lon="-2.903169484622854">
<ele>1137</ele>
<time>2013-10-16T17:05:16Z</time>
</trkpt>
<trkpt lat="42.85864588466949" lon="-2.9033096937180822">
<ele>1138</ele>
<time>2013-10-16T17:05:18Z</time>
</trkpt>
<trkpt lat="42.858674773039" lon="-2.903482035538511">
<ele>1140</ele>
<time>2013-10-16T17:05:20Z</time>
</trkpt>
<trkpt lat="42.85871666885093" lon="-2.9036292073613863">
<ele>1141</ele>
<time>2013-10-16T17:05:22Z</time>
</trkpt>
<trkpt lat="42.858725627725285" lon="-2.90372706967516">
<ele>1141</ele>
<time>2013-10-16T17:05:24Z</time>
</trkpt>
<trkpt lat="42.85876387206418" lon="-2.9038033277814193">
<ele>1141</ele>
<time>2013-10-16T17:05:26Z</time>
</trkpt>
<trkpt lat="42.85884850528918" lon="-2.903775388339234">
<ele>1142</ele>
<time>2013-10-16T17:05:28Z</time>
</trkpt>
<trkpt lat="42.85893115593679" lon="-2.9035999627425193">
<ele>1144</ele>
<time>2013-10-16T17:05:30Z</time>
</trkpt>
<trkpt lat="42.85891154703871" lon="-2.9032964091351716">
<ele>1145</ele>
<time>2013-10-16T17:05:32Z</time>
</trkpt>
<trkpt lat="42.85877707251218" lon="-2.9030030798389386">
<ele>1146</ele>
<time>2013-10-16T17:05:34Z</time>
</trkpt>
<trkpt lat="42.85857771797402" lon="-2.902827233511069">
<ele>1147</ele>
<time>2013-10-16T17:05:36Z</time>
</trkpt>
<trkpt lat="42.85834135265725" lon="-2.9027819555361787">
<ele>1149</ele>
<time>2013-10-16T17:05:38Z</time>
</trkpt>
<trkpt lat="42.85816145808568" lon="-2.902864941097754">
<ele>1151</ele>
<time>2013-10-16T17:05:40Z</time>
</trkpt>
<trkpt lat="42.85799882301501" lon="-2.902976719508692">
<ele>1153</ele>
<time>2013-10-16T17:05:42Z</time>
</trkpt>
<trkpt lat="42.857900657071845" lon="-2.90313491424981">
<ele>1154</ele>
<time>2013-10-16T17:05:44Z</time>
</trkpt>
<trkpt lat="42.857843744656364" lon="-2.9033069849674846">
<ele>1156</ele>
<time>2013-10-16T17:05:46Z</time>
</trkpt>
<trkpt lat="42.857797073358924" lon="-2.9034686586923457">
<ele>1157</ele>
<time>2013-10-16T17:05:48Z</time>
</trkpt>
<trkpt lat="42.857806916992374" lon="-2.903625802842617">
<ele>1157</ele>
<time>2013-10-16T17:05:50Z</time>
</trkpt>
<trkpt lat="42.85788049990585" lon="-2.9037214332199808">
<ele>1157</ele>
<time>2013-10-16T17:05:52Z</time>
</trkpt>
<trkpt lat="42.857995098714966" lon="-2.903725192831885">
<ele>1158</ele>
<time>2013-10-16T17:05:54Z</time>
</trkpt>
<trkpt lat="42.858059063521324" lon="-2.903738978692148">
<ele>1158</ele>
<time>2013-10-16T17:05:56Z</time>
</trkpt>
<trkpt lat="42.858080065891215" lon="-2.9038283330248165">
<ele>1159</ele>
<time>2013-10-16T17:05:58Z</time>
</trkpt>
<trkpt lat="42.85811080663495" lon="-2.903951078000584">
<ele>1159</ele>
<time>2013-10-16T17:06:00Z</time>
</trkpt>
<trkpt lat="42.85820529396061" lon="-2.903997586141102">
<ele>1158</ele>
<time>2013-10-16T17:06:02Z</time>
</trkpt>
<trkpt lat="42.85831437237827" lon="-2.9039896189124432">
<ele>1157</ele>
<time>2013-10-16T17:06:04Z</time>
</trkpt>
<trkpt lat="42.858403899865884" lon="-2.9039392314360413">
<ele>1157</ele>
<time>2013-10-16T17:06:06Z</time>
</trkpt>
<trkpt lat="42.85849048405215" lon="-2.9038942523258298">
<ele>1157</ele>
<time>2013-10-16T17:06:08Z</time>
</trkpt>
<trkpt lat="42.8585600922063" lon="-2.903907932078574">
<ele>1157</ele>
<time>2013-10-16T17:06:10Z</time>
</trkpt>
<trkpt lat="42.85860013848876" lon="-2.904008870061403">
<ele>1156</ele>
<time>2013-10-16T17:06:12Z</time>
</trkpt>
<trkpt lat="42.85863105984131" lon="-2.9041411286105516">
<ele>1155</ele>
<time>2013-10-16T17:06:14Z</time>
</trkpt>
<trkpt lat="42.858654614705806" lon="-2.904265914849566">
<ele>1154</ele>
<time>2013-10-16T17:06:16Z</time>
</trkpt>
<trkpt lat="42.85867083703034" lon="-2.9044014471754833">
<ele>1153</ele>
<time>2013-10-16T17:06:18Z</time>
</trkpt>
<trkpt lat="42.8586943082231" lon="-2.904572160152535">
<ele>1151</ele>
<time>2013-10-16T17:06:20Z</time>
</trkpt>
<trkpt lat="42.85871602307153" lon="-2.904714195430323">
<ele>1151</ele>
<time>2013-10-16T17:06:22Z</time>
</trkpt>
<trkpt lat="42.85875512175789" lon="-2.904819748750621">
<ele>1150</ele>
<time>2013-10-16T17:06:24Z</time>
</trkpt>
<trkpt lat="42.858795810514465" lon="-2.9049206946451154">
<ele>1150</ele>
<time>2013-10-16T17:06:26Z</time>
</trkpt>
<trkpt lat="42.8588403701273" lon="-2.905039910681276">
<ele>1149</ele>
<time>2013-10-16T17:06:28Z</time>
</trkpt>
<trkpt lat="42.85888787420049" lon="-2.9051755104470187">
<ele>1148</ele>
<time>2013-10-16T17:06:30Z</time>
</trkpt>
<trkpt lat="42.85893502043417" lon="-2.9053056030480677">
<ele>1148</ele>
<time>2013-10-16T17:06:32Z</time>
</trkpt>
<trkpt lat="42.858971717830215" lon="-2.9054244152824675">
<ele>1148</ele>
<time>2013-10-16T17:06:34Z</time>
</trkpt>
<trkpt lat="42.859002590022946" lon="-2.9055408882503992">
<ele>1146</ele>
<time>2013-10-16T17:06:36Z</time>
</trkpt>
<trkpt lat="42.85902864441197" lon="-2.905666128704055">
<ele>1145</ele>
<time>2013-10-16T17:06:38Z</time>
</trkpt>
<trkpt lat="42.85905612978798" lon="-2.9058041832586072">
<ele>1144</ele>
<time>2013-10-16T17:06:40Z</time>
</trkpt>
<trkpt lat="42.85909006911021" lon="-2.905949910527871">
<ele>1143</ele>
<time>2013-10-16T17:06:42Z</time>
</trkpt>
<trkpt lat="42.85912423071495" lon="-2.906074006601452">
<ele>1142</ele>
<time>2013-10-16T17:06:44Z</time>
</trkpt>
<trkpt lat="42.85915178896377" lon="-2.9061816423794564">
<ele>1140</ele>
<time>2013-10-16T17:06:46Z</time>
</trkpt>
<trkpt lat="42.85917154373046" lon="-2.9063088303597384">
<ele>1137</ele>
<time>2013-10-16T17:06:48Z</time>
</trkpt>
<trkpt lat="42.85919283665902" lon="-2.906437974961027">
<ele>1134</ele>
<time>2013-10-16T17:06:50Z</time>
</trkpt>
<trkpt lat="42.85921355412182" lon="-2.9065742479422503">
<ele>1130</ele>
<time>2013-10-16T17:06:52Z</time>
</trkpt>
<trkpt lat="42.85922873979892" lon="-2.9066882973452657">
<ele>1126</ele>
<time>2013-10-16T17:06:54Z</time>
</trkpt>
<trkpt lat="42.8592471326037" lon="-2.9068174242387683">
<ele>1122</ele>
<time>2013-10-16T17:06:56Z</time>
</trkpt>
<trkpt lat="42.859261884631366" lon="-2.906954154392046">
<ele>1119</ele>
<time>2013-10-16T17:06:58Z</time>
</trkpt>
<trkpt lat="42.85927598998116" lon="-2.907100981321037">
<ele>1115</ele>
<time>2013-10-16T17:07:00Z</time>
</trkpt>
<trkpt lat="42.85930697739584" lon="-2.90726536394415">
<ele>1112</ele>
<time>2013-10-16T17:07:02Z</time>
</trkpt>
<trkpt lat="42.85934597521038" lon="-2.907427855542392">
<ele>1108</ele>
<time>2013-10-16T17:07:04Z</time>
</trkpt>
<trkpt lat="42.859374260708826" lon="-2.907541988256588">
<ele>1104</ele>
<time>2013-10-16T17:07:05Z</time>
</trkpt>
<trkpt lat="42.85939534368704" lon="-2.9076512353451656">
<ele>1100</ele>
<time>2013-10-16T17:07:07Z</time>
</trkpt>
<trkpt lat="42.859407853788575" lon="-2.907787356253422">
<ele>1097</ele>
<time>2013-10-16T17:07:09Z</time>
</trkpt>
<trkpt lat="42.8594391720339" lon="-2.90792713449563">
<ele>1093</ele>
<time>2013-10-16T17:07:11Z</time>
</trkpt>
<trkpt lat="42.85949048696294" lon="-2.908047184931898">
<ele>1089</ele>
<time>2013-10-16T17:07:13Z</time>
</trkpt>
<trkpt lat="42.85954579532212" lon="-2.9081586850143366">
<ele>1087</ele>
<time>2013-10-16T17:07:15Z</time>
</trkpt>
<trkpt lat="42.85964736300982" lon="-2.9082057486289137">
<ele>1084</ele>
<time>2013-10-16T17:07:17Z</time>
</trkpt>
<trkpt lat="42.85974876966136" lon="-2.908230404825306">
<ele>1083</ele>
<time>2013-10-16T17:07:19Z</time>
</trkpt>
<trkpt lat="42.859885157206165" lon="-2.908179110011152">
<ele>1083</ele>
<time>2013-10-16T17:07:21Z</time>
</trkpt>
<trkpt lat="42.85998485320412" lon="-2.908110496093592">
<ele>1082</ele>
<time>2013-10-16T17:07:23Z</time>
</trkpt>
<trkpt lat="42.86009301780013" lon="-2.9080420409240793">
<ele>1081</ele>
<time>2013-10-16T17:07:25Z</time>
</trkpt>
<trkpt lat="42.86020100260546" lon="-2.9079917754937155">
<ele>1075</ele>
<time>2013-10-16T17:07:27Z</time>
</trkpt>
<trkpt lat="42.86030136273423" lon="-2.907955280769667">
<ele>1070</ele>
<time>2013-10-16T17:07:29Z</time>
</trkpt>
<trkpt lat="42.860403973569575" lon="-2.9079818635873194">
<ele>1064</ele>
<time>2013-10-16T17:07:31Z</time>
</trkpt>
<trkpt lat="42.86048237009894" lon="-2.9080326348808234">
<ele>1063</ele>
<time>2013-10-16T17:07:33Z</time>
</trkpt>
<trkpt lat="42.86056220603736" lon="-2.908104508587733">
<ele>1062</ele>
<time>2013-10-16T17:07:35Z</time>
</trkpt>
<trkpt lat="42.860653111537516" lon="-2.908184323999972">
<ele>1061</ele>
<time>2013-10-16T17:07:37Z</time>
</trkpt>
<trkpt lat="42.86073487942537" lon="-2.908269390273448">
<ele>1053</ele>
<time>2013-10-16T17:07:39Z</time>
</trkpt>
<trkpt lat="42.86081169245229" lon="-2.908358196322382">
<ele>1040</ele>
<time>2013-10-16T17:07:41Z</time>
</trkpt>
<trkpt lat="42.860906447689466" lon="-2.9084721456512783">
<ele>1031</ele>
<time>2013-10-16T17:07:43Z</time>
</trkpt>
<trkpt lat="42.860982881962" lon="-2.90857230235136">
<ele>1023</ele>
<time>2013-10-16T17:07:45Z</time>
</trkpt>
<trkpt lat="42.861053912574455" lon="-2.908665724365446">
<ele>1016</ele>
<time>2013-10-16T17:07:47Z</time>
</trkpt>
<trkpt lat="42.86114882483531" lon="-2.9087685968239465">
<ele>1010</ele>
<time>2013-10-16T17:07:49Z</time>
</trkpt>
<trkpt lat="42.861263132406044" lon="-2.908826634948101">
<ele>1005</ele>
<time>2013-10-16T17:07:51Z</time>
</trkpt>
<trkpt lat="42.8613645376204" lon="-2.9088319461226035">
<ele>999</ele>
<time>2013-10-16T17:07:53Z</time>
</trkpt>
<trkpt lat="42.86146874289113" lon="-2.9088568407673936">
<ele>994</ele>
<time>2013-10-16T17:07:55Z</time>
</trkpt>
<trkpt lat="42.86157574061681" lon="-2.9088874619118115">
<ele>991</ele>
<time>2013-10-16T17:07:57Z</time>
</trkpt>
<trkpt lat="42.86167456352887" lon="-2.9088887493724442">
<ele>986</ele>
<time>2013-10-16T17:07:59Z</time>
</trkpt>
<trkpt lat="42.86179611846763" lon="-2.908854095453395">
<ele>980</ele>
<time>2013-10-16T17:08:01Z</time>
</trkpt>
<trkpt lat="42.861949940243676" lon="-2.9087747824255525">
<ele>975</ele>
<time>2013-10-16T17:08:03Z</time>
</trkpt>
<trkpt lat="42.86208389433304" lon="-2.9086931987827307">
<ele>970</ele>
<time>2013-10-16T17:08:05Z</time>
</trkpt>
<trkpt lat="42.86220934107909" lon="-2.9086005609212497">
<ele>966</ele>
<time>2013-10-16T17:08:07Z</time>
</trkpt>
<trkpt lat="42.86233689485143" lon="-2.9085083657855213">
<ele>962</ele>
<time>2013-10-16T17:08:09Z</time>
</trkpt>
<trkpt lat="42.8624631756269" lon="-2.9084266860706727">
<ele>958</ele>
<time>2013-10-16T17:08:11Z</time>
</trkpt>
<trkpt lat="42.86258665239066" lon="-2.9083433675201946">
<ele>953</ele>
<time>2013-10-16T17:08:13Z</time>
</trkpt>
<trkpt lat="42.86271868900068" lon="-2.9082598517261973">
<ele>949</ele>
<time>2013-10-16T17:08:15Z</time>
</trkpt>
<trkpt lat="42.86283598008512" lon="-2.9082010448773685">
<ele>945</ele>
<time>2013-10-16T17:08:17Z</time>
</trkpt>
<trkpt lat="42.862952836785055" lon="-2.9081516711854443">
<ele>943</ele>
<time>2013-10-16T17:08:19Z</time>
</trkpt>
<trkpt lat="42.863084132460834" lon="-2.908105124584853">
<ele>941</ele>
<time>2013-10-16T17:08:21Z</time>
</trkpt>
<trkpt lat="42.8632224972113" lon="-2.908043829181135">
<ele>938</ele>
<time>2013-10-16T17:08:23Z</time>
</trkpt>
<trkpt lat="42.86334391242933" lon="-2.907980137959169">
<ele>937</ele>
<time>2013-10-16T17:08:25Z</time>
</trkpt>
<trkpt lat="42.86344581937972" lon="-2.9079188565460483">
<ele>935</ele>
<time>2013-10-16T17:08:27Z</time>
</trkpt>
<trkpt lat="42.86354863016265" lon="-2.9078927086561417">
<ele>934</ele>
<time>2013-10-16T17:08:29Z</time>
</trkpt>
<trkpt lat="42.863651525884286" lon="-2.9078945963652707">
<ele>934</ele>
<time>2013-10-16T17:08:31Z</time>
</trkpt>
<trkpt lat="42.863751766160526" lon="-2.9079001636919655">
<ele>934</ele>
<time>2013-10-16T17:08:33Z</time>
</trkpt>
<trkpt lat="42.863857869202235" lon="-2.9079000845316276">
<ele>934</ele>
<time>2013-10-16T17:08:35Z</time>
</trkpt>
<trkpt lat="42.86396499791461" lon="-2.907893162667353">
<ele>934</ele>
<time>2013-10-16T17:08:37Z</time>
</trkpt>
<trkpt lat="42.86405749251902" lon="-2.90788873100348">
<ele>935</ele>
<time>2013-10-16T17:08:39Z</time>
</trkpt>
<trkpt lat="42.864097522923615" lon="-2.907971549070842">
<ele>933</ele>
<time>2013-10-16T17:08:41Z</time>
</trkpt>
<trkpt lat="42.86407188184815" lon="-2.9081443114388077">
<ele>932</ele>
<time>2013-10-16T17:08:43Z</time>
</trkpt>
<trkpt lat="42.86389889407151" lon="-2.908278946617907">
<ele>932</ele>
<time>2013-10-16T17:08:45Z</time>
</trkpt>
<trkpt lat="42.86368049865044" lon="-2.908265180359824">
<ele>933</ele>
<time>2013-10-16T17:08:47Z</time>
</trkpt>
<trkpt lat="42.86350611454768" lon="-2.908107592444515">
<ele>934</ele>
<time>2013-10-16T17:08:49Z</time>
</trkpt>
<trkpt lat="42.86339516651124" lon="-2.90787193313972">
<ele>935</ele>
<time>2013-10-16T17:08:51Z</time>
</trkpt>
<trkpt lat="42.86339306755318" lon="-2.90765568438065">
<ele>935</ele>
<time>2013-10-16T17:08:53Z</time>
</trkpt>
<trkpt lat="42.86344974903788" lon="-2.9074658886560534">
<ele>935</ele>
<time>2013-10-16T17:08:55Z</time>
</trkpt>
<trkpt lat="42.86353634985097" lon="-2.9072888057937853">
<ele>935</ele>
<time>2013-10-16T17:08:57Z</time>
</trkpt>
<trkpt lat="42.86363330050693" lon="-2.9070960091308495">
<ele>935</ele>
<time>2013-10-16T17:08:59Z</time>
</trkpt>
<trkpt lat="42.86372206578921" lon="-2.9068623145746844">
<ele>936</ele>
<time>2013-10-16T17:09:01Z</time>
</trkpt>
<trkpt lat="42.86378335772422" lon="-2.906626949789912">
<ele>937</ele>
<time>2013-10-16T17:09:03Z</time>
</trkpt>
<trkpt lat="42.86379792310745" lon="-2.9064650229699036">
<ele>938</ele>
<time>2013-10-16T17:09:05Z</time>
</trkpt>
<trkpt lat="42.863753718105386" lon="-2.9062525572868774">
<ele>939</ele>
<time>2013-10-16T17:09:07Z</time>
</trkpt>
<trkpt lat="42.86362972129468" lon="-2.906045126699996">
<ele>940</ele>
<time>2013-10-16T17:09:09Z</time>
</trkpt>
<trkpt lat="42.863416810255394" lon="-2.905908552035663">
<ele>940</ele>
<time>2013-10-16T17:09:11Z</time>
</trkpt>
<trkpt lat="42.86319698419267" lon="-2.9058266435461837">
<ele>939</ele>
<time>2013-10-16T17:09:13Z</time>
</trkpt>
<trkpt lat="42.862966601923134" lon="-2.905782567543736">
<ele>940</ele>
<time>2013-10-16T17:09:15Z</time>
</trkpt>
<trkpt lat="42.86273343266916" lon="-2.9058330458313035">
<ele>940</ele>
<time>2013-10-16T17:09:17Z</time>
</trkpt>
<trkpt lat="42.862532493284284" lon="-2.905963031792368">
<ele>940</ele>
<time>2013-10-16T17:09:19Z</time>
</trkpt>
<trkpt lat="42.86239446314353" lon="-2.9061738475180614">
<ele>939</ele>
<time>2013-10-16T17:09:21Z</time>
</trkpt>
<trkpt lat="42.86233736478367" lon="-2.90638160948015">
<ele>939</ele>
<time>2013-10-16T17:09:23Z</time>
</trkpt>
<trkpt lat="42.86230823766233" lon="-2.9065926824740265">
<ele>942</ele>
<time>2013-10-16T17:09:25Z</time>
</trkpt>
<trkpt lat="42.86231450706471" lon="-2.906807086718859">
<ele>943</ele>
<time>2013-10-16T17:09:27Z</time>
</trkpt>
<trkpt lat="42.86236211132551" lon="-2.906951214510018">
<ele>945</ele>
<time>2013-10-16T17:09:29Z</time>
</trkpt>
<trkpt lat="42.86242356255338" lon="-2.9070534663566816">
<ele>947</ele>
<time>2013-10-16T17:09:31Z</time>
</trkpt>
<trkpt lat="42.86250167910436" lon="-2.9070501565236135">
<ele>948</ele>
<time>2013-10-16T17:09:33Z</time>
</trkpt>
<trkpt lat="42.86259798599493" lon="-2.906948968335804">
<ele>951</ele>
<time>2013-10-16T17:09:35Z</time>
</trkpt>
<trkpt lat="42.862661435366114" lon="-2.9067210766575298">
<ele>953</ele>
<time>2013-10-16T17:09:37Z</time>
</trkpt>
<trkpt lat="42.862631409265205" lon="-2.906450957304076">
<ele>954</ele>
<time>2013-10-16T17:09:39Z</time>
</trkpt>
<trkpt lat="42.862542996320514" lon="-2.9061834782631073">
<ele>955</ele>
<time>2013-10-16T17:09:41Z</time>
</trkpt>
<trkpt lat="42.86239551265798" lon="-2.905938108765445">
<ele>955</ele>
<time>2013-10-16T17:09:43Z</time>
</trkpt>
<trkpt lat="42.862213140883505" lon="-2.9057384461979137">
<ele>954</ele>
<time>2013-10-16T17:09:45Z</time>
</trkpt>
<trkpt lat="42.86197877988354" lon="-2.9056454461183114">
<ele>955</ele>
<time>2013-10-16T17:09:47Z</time>
</trkpt>
<trkpt lat="42.86173009867816" lon="-2.9056424335319173">
<ele>956</ele>
<time>2013-10-16T17:09:49Z</time>
</trkpt>
<trkpt lat="42.8615217785974" lon="-2.9057685896481966">
<ele>958</ele>
<time>2013-10-16T17:09:51Z</time>
</trkpt>
<trkpt lat="42.861330873920494" lon="-2.905905708349373">
<ele>959</ele>
<time>2013-10-16T17:09:53Z</time>
</trkpt>
<trkpt lat="42.86119287883458" lon="-2.9060711757074547">
<ele>959</ele>
<time>2013-10-16T17:09:55Z</time>
</trkpt>
<trkpt lat="42.861201294988014" lon="-2.906363031773627">
<ele>960</ele>
<time>2013-10-16T17:09:57Z</time>
</trkpt>
<trkpt lat="42.86128227228355" lon="-2.9065864278799998">
<ele>962</ele>
<time>2013-10-16T17:09:59Z</time>
</trkpt>
<trkpt lat="42.861302464900625" lon="-2.906669609617926">
<ele>965</ele>
<time>2013-10-16T17:10:01Z</time>
</trkpt>
<trkpt lat="42.8613185766546" lon="-2.9067881477843254">
<ele>968</ele>
<time>2013-10-16T17:10:03Z</time>
</trkpt>
<trkpt lat="42.86138791661896" lon="-2.906814757219102">
<ele>970</ele>
<time>2013-10-16T17:10:05Z</time>
</trkpt>
<trkpt lat="42.86145810924072" lon="-2.9066844580450955">
<ele>972</ele>
<time>2013-10-16T17:10:07Z</time>
</trkpt>
<trkpt lat="42.86145298925015" lon="-2.9064399869625803">
<ele>972</ele>
<time>2013-10-16T17:10:09Z</time>
</trkpt>
<trkpt lat="42.86136121700118" lon="-2.906190713873496">
<ele>972</ele>
<time>2013-10-16T17:10:11Z</time>
</trkpt>
<trkpt lat="42.86119208687272" lon="-2.9060059314759523">
<ele>972</ele>
<time>2013-10-16T17:10:13Z</time>
</trkpt>
<trkpt lat="42.86095300535956" lon="-2.9059229602532697">
<ele>973</ele>
<time>2013-10-16T17:10:15Z</time>
</trkpt>
<trkpt lat="42.86069310944765" lon="-2.905964169640215">
<ele>974</ele>
<time>2013-10-16T17:10:17Z</time>
</trkpt>
<trkpt lat="42.86050239499796" lon="-2.90612191279588">
<ele>975</ele>
<time>2013-10-16T17:10:19Z</time>
</trkpt>
<trkpt lat="42.860402069439054" lon="-2.9063409550927557">
<ele>977</ele>
<time>2013-10-16T17:10:21Z</time>
</trkpt>
<trkpt lat="42.860358956883296" lon="-2.906536388320875">
<ele>978</ele>
<time>2013-10-16T17:10:23Z</time>
</trkpt>
<trkpt lat="42.86035922376083" lon="-2.9066946448968762">
<ele>980</ele>
<time>2013-10-16T17:10:25Z</time>
</trkpt>
<trkpt lat="42.8604157318388" lon="-2.9068217408040247">
<ele>982</ele>
<time>2013-10-16T17:10:27Z</time>
</trkpt>
<trkpt lat="42.86048727815274" lon="-2.9068238777533804">
<ele>983</ele>
<time>2013-10-16T17:10:29Z</time>
</trkpt>
<trkpt lat="42.86056077196736" lon="-2.906711454010534">
<ele>984</ele>
<time>2013-10-16T17:10:31Z</time>
</trkpt>
<trkpt lat="42.86060896686127" lon="-2.9065122931193272">
<ele>984</ele>
<time>2013-10-16T17:10:33Z</time>
</trkpt>
<trkpt lat="42.86056790697152" lon="-2.9062401262651925">
<ele>984</ele>
<time>2013-10-16T17:10:35Z</time>
</trkpt>
<trkpt lat="42.860468801672354" lon="-2.9060008526917267">
<ele>985</ele>
<time>2013-10-16T17:10:37Z</time>
</trkpt>
<trkpt lat="42.86028676593433" lon="-2.9058466490434465">
<ele>986</ele>
<time>2013-10-16T17:10:39Z</time>
</trkpt>
<trkpt lat="42.86003247189317" lon="-2.9057897286306904">
<ele>988</ele>
<time>2013-10-16T17:10:41Z</time>
</trkpt>
<trkpt lat="42.85981489586137" lon="-2.9059060102226937">
<ele>990</ele>
<time>2013-10-16T17:10:43Z</time>
</trkpt>
<trkpt lat="42.85967194113886" lon="-2.9060978756874034">
<ele>991</ele>
<time>2013-10-16T17:10:45Z</time>
</trkpt>
<trkpt lat="42.85962101758503" lon="-2.9062845558323738">
<ele>991</ele>
<time>2013-10-16T17:10:47Z</time>
</trkpt>
<trkpt lat="42.85962344873886" lon="-2.9064387482574436">
<ele>993</ele>
<time>2013-10-16T17:10:49Z</time>
</trkpt>
<trkpt lat="42.85968493335021" lon="-2.9065276966144946">
<ele>994</ele>
<time>2013-10-16T17:10:51Z</time>
</trkpt>
<trkpt lat="42.859774092728166" lon="-2.906527504333319">
<ele>995</ele>
<time>2013-10-16T17:10:53Z</time>
</trkpt>
<trkpt lat="42.859860950280535" lon="-2.9064180115036735">
<ele>996</ele>
<time>2013-10-16T17:10:55Z</time>
</trkpt>
<trkpt lat="42.85988061298222" lon="-2.9061700352031195">
<ele>997</ele>
<time>2013-10-16T17:10:57Z</time>
</trkpt>
<trkpt lat="42.859773170409795" lon="-2.905890667785511">
<ele>998</ele>
<time>2013-10-16T17:10:59Z</time>
</trkpt>
<trkpt lat="42.85958664122514" lon="-2.9057141775504465">
<ele>998</ele>
<time>2013-10-16T17:11:01Z</time>
</trkpt>
<trkpt lat="42.8593203852517" lon="-2.905697241907948">
<ele>999</ele>
<time>2013-10-16T17:11:03Z</time>
</trkpt>
<trkpt lat="42.859111565515946" lon="-2.9058658186325275">
<ele>999</ele>
<time>2013-10-16T17:11:05Z</time>
</trkpt>
<trkpt lat="42.8590250533769" lon="-2.906083765037022">
<ele>1000</ele>
<time>2013-10-16T17:11:07Z</time>
</trkpt>
<trkpt lat="42.85902700182111" lon="-2.9062929876949894">
<ele>1001</ele>
<time>2013-10-16T17:11:09Z</time>
</trkpt>
<trkpt lat="42.859099988656595" lon="-2.906407351513219">
<ele>1002</ele>
<time>2013-10-16T17:11:11Z</time>
</trkpt>
<trkpt lat="42.85918299707928" lon="-2.906348492245913">
<ele>1004</ele>
<time>2013-10-16T17:11:13Z</time>
</trkpt>
<trkpt lat="42.85923796248958" lon="-2.9061687806582728">
<ele>1005</ele>
<time>2013-10-16T17:11:15Z</time>
</trkpt>
<trkpt lat="42.85919503809762" lon="-2.905918617819726">
<ele>1006</ele>
<time>2013-10-16T17:11:17Z</time>
</trkpt>
<trkpt lat="42.85902737680312" lon="-2.90572652945871">
<ele>1007</ele>
<time>2013-10-16T17:11:19Z</time>
</trkpt>
<trkpt lat="42.85877677261822" lon="-2.905665166262542">
<ele>1008</ele>
<time>2013-10-16T17:11:21Z</time>
</trkpt>
<trkpt lat="42.858549850915864" lon="-2.9057392172571705">
<ele>1008</ele>
<time>2013-10-16T17:11:23Z</time>
</trkpt>
<trkpt lat="42.85840925234883" lon="-2.905958216344939">
<ele>1010</ele>
<time>2013-10-16T17:11:25Z</time>
</trkpt>
<trkpt lat="42.85834466001152" lon="-2.9061876211965103">
<ele>1012</ele>
<time>2013-10-16T17:11:27Z</time>
</trkpt>
<trkpt lat="42.85833461750618" lon="-2.906361885204901">
<ele>1014</ele>
<time>2013-10-16T17:11:29Z</time>
</trkpt>
<trkpt lat="42.858398577813524" lon="-2.9064807229795075">
<ele>1015</ele>
<time>2013-10-16T17:11:31Z</time>
</trkpt>
<trkpt lat="42.85852697532371" lon="-2.9064176248336935">
<ele>1017</ele>
<time>2013-10-16T17:11:33Z</time>
</trkpt>
<trkpt lat="42.85858836191945" lon="-2.9061736992173515">
<ele>1017</ele>
<time>2013-10-16T17:11:35Z</time>
</trkpt>
<trkpt lat="42.8585265717189" lon="-2.9059082688267983">
<ele>1018</ele>
<time>2013-10-16T17:11:37Z</time>
</trkpt>
<trkpt lat="42.8583996934103" lon="-2.905680639627178">
<ele>1019</ele>
<time>2013-10-16T17:11:39Z</time>
</trkpt>
<trkpt lat="42.8581995380566" lon="-2.9055153750693354">
<ele>1019</ele>
<time>2013-10-16T17:11:41Z</time>
</trkpt>
<trkpt lat="42.85796524277791" lon="-2.905483589697329">
<ele>1021</ele>
<time>2013-10-16T17:11:43Z</time>
</trkpt>
<trkpt lat="42.857764875071275" lon="-2.905574956930538">
<ele>1024</ele>
<time>2013-10-16T17:11:45Z</time>
</trkpt>
<trkpt lat="42.857612532316594" lon="-2.9057428998449355">
<ele>1026</ele>
<time>2013-10-16T17:11:47Z</time>
</trkpt>
<trkpt lat="42.857525171926575" lon="-2.9059574692227317">
<ele>1027</ele>
<time>2013-10-16T17:11:49Z</time>
</trkpt>
<trkpt lat="42.8574989109726" lon="-2.906132128231381">
<ele>1029</ele>
<time>2013-10-16T17:11:51Z</time>
</trkpt>
<trkpt lat="42.85751472008075" lon="-2.9063056385836763">
<ele>1030</ele>
<time>2013-10-16T17:11:53Z</time>
</trkpt>
<trkpt lat="42.85757514515141" lon="-2.9064528606099063">
<ele>1031</ele>
<time>2013-10-16T17:11:55Z</time>
</trkpt>
<trkpt lat="42.8576456955995" lon="-2.906606474307806">
<ele>1031</ele>
<time>2013-10-16T17:11:57Z</time>
</trkpt>
<trkpt lat="42.85771619514946" lon="-2.906750184071953">
<ele>1032</ele>
<time>2013-10-16T17:11:59Z</time>
</trkpt>
<trkpt lat="42.857782725348734" lon="-2.906880379925702">
<ele>1033</ele>
<time>2013-10-16T17:12:01Z</time>
</trkpt>
<trkpt lat="42.857851787675735" lon="-2.9070152315512483">
<ele>1033</ele>
<time>2013-10-16T17:12:03Z</time>
</trkpt>
<trkpt lat="42.857930030478016" lon="-2.9071514334505855">
<ele>1033</ele>
<time>2013-10-16T17:12:05Z</time>
</trkpt>
<trkpt lat="42.857983764421405" lon="-2.907293755005685">
<ele>1033</ele>
<time>2013-10-16T17:12:07Z</time>
</trkpt>
<trkpt lat="42.85802765008361" lon="-2.9074602057828702">
<ele>1033</ele>
<time>2013-10-16T17:12:09Z</time>
</trkpt>
<trkpt lat="42.858070825947074" lon="-2.90764507515309">
<ele>1032</ele>
<time>2013-10-16T17:12:11Z</time>
</trkpt>
<trkpt lat="42.858109393323296" lon="-2.9078100023714186">
<ele>1032</ele>
<time>2013-10-16T17:12:13Z</time>
</trkpt>
<trkpt lat="42.85814113691055" lon="-2.9079730979120613">
<ele>1031</ele>
<time>2013-10-16T17:12:15Z</time>
</trkpt>
<trkpt lat="42.85817113764125" lon="-2.908127048596724">
<ele>1030</ele>
<time>2013-10-16T17:12:17Z</time>
</trkpt>
<trkpt lat="42.85820447002915" lon="-2.908276386814504">
<ele>1028</ele>
<time>2013-10-16T17:12:19Z</time>
</trkpt>
<trkpt lat="42.858249508195826" lon="-2.9084423271553934">
<ele>1026</ele>
<time>2013-10-16T17:12:21Z</time>
</trkpt>
<trkpt lat="42.85832277612859" lon="-2.9085861599423026">
<ele>1024</ele>
<time>2013-10-16T17:12:23Z</time>
</trkpt>
<trkpt lat="42.858370145473806" lon="-2.90870723375507">
<ele>1023</ele>
<time>2013-10-16T17:12:25Z</time>
</trkpt>
<trkpt lat="42.85840932475257" lon="-2.9088672482544484">
<ele>1021</ele>
<time>2013-10-16T17:12:27Z</time>
</trkpt>
<trkpt lat="42.858467630868574" lon="-2.9090506524716906">
<ele>1019</ele>
<time>2013-10-16T17:12:29Z</time>
</trkpt>
<trkpt lat="42.85852631861508" lon="-2.9092198608596935">
<ele>1017</ele>
<time>2013-10-16T17:12:31Z</time>
</trkpt>
<trkpt lat="42.85858067068477" lon="-2.9093648173682793">
<ele>1015</ele>
<time>2013-10-16T17:12:33Z</time>
</trkpt>
<trkpt lat="42.858643007368485" lon="-2.909522300559727">
<ele>1013</ele>
<time>2013-10-16T17:12:35Z</time>
</trkpt>
<trkpt lat="42.85868781314366" lon="-2.909679769348443">
<ele>1012</ele>
<time>2013-10-16T17:12:37Z</time>
</trkpt>
<trkpt lat="42.858714549757785" lon="-2.909835608808485">
<ele>1010</ele>
<time>2013-10-16T17:12:39Z</time>
</trkpt>
<trkpt lat="42.85875629718601" lon="-2.9100144385850535">
<ele>1008</ele>
<time>2013-10-16T17:12:41Z</time>
</trkpt>
<trkpt lat="42.85880546230663" lon="-2.91016948888909">
<ele>1006</ele>
<time>2013-10-16T17:12:43Z</time>
</trkpt>
<trkpt lat="42.858849750378475" lon="-2.9103017090666756">
<ele>1003</ele>
<time>2013-10-16T17:12:45Z</time>
</trkpt>
<trkpt lat="42.85891068422097" lon="-2.9104303930640514">
<ele>1001</ele>
<time>2013-10-16T17:12:47Z</time>
</trkpt>
<trkpt lat="42.85898969240262" lon="-2.9105494671446466">
<ele>1000</ele>
<time>2013-10-16T17:12:49Z</time>
</trkpt>
<trkpt lat="42.85905673983499" lon="-2.9106654408085304">
<ele>998</ele>
<time>2013-10-16T17:12:51Z</time>
</trkpt>
<trkpt lat="42.859123025647975" lon="-2.910786791830976">
<ele>996</ele>
<time>2013-10-16T17:12:53Z</time>
</trkpt>
<trkpt lat="42.859199176009284" lon="-2.9109285863810435">
<ele>994</ele>
<time>2013-10-16T17:12:55Z</time>
</trkpt>
<trkpt lat="42.85926406331853" lon="-2.9110579308745437">
<ele>993</ele>
<time>2013-10-16T17:12:57Z</time>
</trkpt>
<trkpt lat="42.85931687441549" lon="-2.9111798529394535">
<ele>991</ele>
<time>2013-10-16T17:12:59Z</time>
</trkpt>
<trkpt lat="42.85937068372378" lon="-2.9113215272221815">
<ele>989</ele>
<time>2013-10-16T17:13:01Z</time>
</trkpt>
<trkpt lat="42.859425966962" lon="-2.9114621228549806">
<ele>987</ele>
<time>2013-10-16T17:13:03Z</time>
</trkpt>
<trkpt lat="42.85948477299761" lon="-2.911590418671338">
<ele>986</ele>
<time>2013-10-16T17:13:05Z</time>
</trkpt>
<trkpt lat="42.859543316738346" lon="-2.9117141830294773">
<ele>983</ele>
<time>2013-10-16T17:13:07Z</time>
</trkpt>
<trkpt lat="42.85961049349355" lon="-2.9118513858632964">
<ele>981</ele>
<time>2013-10-16T17:13:09Z</time>
</trkpt>
<trkpt lat="42.859683449867624" lon="-2.911984533319489">
<ele>978</ele>
<time>2013-10-16T17:13:11Z</time>
</trkpt>
<trkpt lat="42.859752354067595" lon="-2.9121170396509437">
<ele>976</ele>
<time>2013-10-16T17:13:13Z</time>
</trkpt>
<trkpt lat="42.85983051772472" lon="-2.9122570461522144">
<ele>973</ele>
<time>2013-10-16T17:13:15Z</time>
</trkpt>
<trkpt lat="42.85991742731287" lon="-2.912380377247127">
<ele>970</ele>
<time>2013-10-16T17:13:17Z</time>
</trkpt>
<trkpt lat="42.86001002174242" lon="-2.912483933468676">
<ele>967</ele>
<time>2013-10-16T17:13:19Z</time>
</trkpt>
<trkpt lat="42.86010747533803" lon="-2.9125737094957134">
<ele>965</ele>
<time>2013-10-16T17:13:21Z</time>
</trkpt>
<trkpt lat="42.86019482216628" lon="-2.912637959911187">
<ele>961</ele>
<time>2013-10-16T17:13:23Z</time>
</trkpt>
<trkpt lat="42.86030594861837" lon="-2.9127385923215123">
<ele>958</ele>
<time>2013-10-16T17:13:25Z</time>
</trkpt>
<trkpt lat="42.860423436156395" lon="-2.9128054273732675">
<ele>955</ele>
<time>2013-10-16T17:13:27Z</time>
</trkpt>
<trkpt lat="42.86052485681923" lon="-2.912859026125036">
<ele>951</ele>
<time>2013-10-16T17:13:29Z</time>
</trkpt>
<trkpt lat="42.86064231243988" lon="-2.912901268266204">
<ele>948</ele>
<time>2013-10-16T17:13:31Z</time>
</trkpt>
<trkpt lat="42.86075587404314" lon="-2.9129466263561703">
<ele>945</ele>
<time>2013-10-16T17:13:33Z</time>
</trkpt>
<trkpt lat="42.86086606268754" lon="-2.9129922369730723">
<ele>941</ele>
<time>2013-10-16T17:13:35Z</time>
</trkpt>
<trkpt lat="42.8610192475822" lon="-2.913021826251672">
<ele>938</ele>
<time>2013-10-16T17:13:37Z</time>
</trkpt>
<trkpt lat="42.86116906817733" lon="-2.913020040021079">
<ele>936</ele>
<time>2013-10-16T17:13:39Z</time>
</trkpt>
<trkpt lat="42.861282715179385" lon="-2.9129957809529494">
<ele>933</ele>
<time>2013-10-16T17:13:41Z</time>
</trkpt>
<trkpt lat="42.86141108400408" lon="-2.91293963379779">
<ele>929</ele>
<time>2013-10-16T17:13:43Z</time>
</trkpt>
<trkpt lat="42.8615612620219" lon="-2.912884616716443">
<ele>925</ele>
<time>2013-10-16T17:13:45Z</time>
</trkpt>
<trkpt lat="42.86169362519976" lon="-2.9128263345753624">
<ele>921</ele>
<time>2013-10-16T17:13:47Z</time>
</trkpt>
<trkpt lat="42.86182662688896" lon="-2.9127780768403335">
<ele>917</ele>
<time>2013-10-16T17:13:49Z</time>
</trkpt>
<trkpt lat="42.861969443641975" lon="-2.912736892085435">
<ele>913</ele>
<time>2013-10-16T17:13:51Z</time>
</trkpt>
<trkpt lat="42.86209448785065" lon="-2.9126796647486874">
<ele>910</ele>
<time>2013-10-16T17:13:53Z</time>
</trkpt>
<trkpt lat="42.86221734741694" lon="-2.9125916009845643">
<ele>907</ele>
<time>2013-10-16T17:13:55Z</time>
</trkpt>
<trkpt lat="42.8623568502586" lon="-2.91248942665066">
<ele>904</ele>
<time>2013-10-16T17:13:57Z</time>
</trkpt>
<trkpt lat="42.86250408861874" lon="-2.9123757668881263">
<ele>902</ele>
<time>2013-10-16T17:13:59Z</time>
</trkpt>
<trkpt lat="42.86265175948745" lon="-2.9122309478264943">
<ele>900</ele>
<time>2013-10-16T17:14:01Z</time>
</trkpt>
<trkpt lat="42.86277944653915" lon="-2.9120935659481737">
<ele>897</ele>
<time>2013-10-16T17:14:03Z</time>
</trkpt>
<trkpt lat="42.862917898962785" lon="-2.9119690949716213">
<ele>895</ele>
<time>2013-10-16T17:14:05Z</time>
</trkpt>
<trkpt lat="42.86306418181646" lon="-2.911868585566743">
<ele>892</ele>
<time>2013-10-16T17:14:07Z</time>
</trkpt>
<trkpt lat="42.86320446049254" lon="-2.911777012596716">
<ele>890</ele>
<time>2013-10-16T17:14:09Z</time>
</trkpt>
<trkpt lat="42.86333351045803" lon="-2.9117051836018253">
<ele>889</ele>
<time>2013-10-16T17:14:11Z</time>
</trkpt>
<trkpt lat="42.86346117422614" lon="-2.9116341412436584">
<ele>888</ele>
<time>2013-10-16T17:14:13Z</time>
</trkpt>
<trkpt lat="42.86358427545527" lon="-2.9115605398560205">
<ele>887</ele>
<time>2013-10-16T17:14:15Z</time>
</trkpt>
<trkpt lat="42.86371841326034" lon="-2.911502187947782">
<ele>887</ele>
<time>2013-10-16T17:14:17Z</time>
</trkpt>
<trkpt lat="42.863855143780945" lon="-2.911460376042875">
<ele>886</ele>
<time>2013-10-16T17:14:19Z</time>
</trkpt>
<trkpt lat="42.863970619274994" lon="-2.9114315497505543">
<ele>887</ele>
<time>2013-10-16T17:14:21Z</time>
</trkpt>
<trkpt lat="42.86409685426154" lon="-2.911399511453543">
<ele>887</ele>
<time>2013-10-16T17:14:23Z</time>
</trkpt>
<trkpt lat="42.864201267627635" lon="-2.911418614361653">
<ele>887</ele>
<time>2013-10-16T17:14:25Z</time>
</trkpt>
<trkpt lat="42.86429393704829" lon="-2.9114480922679493">
<ele>888</ele>
<time>2013-10-16T17:14:27Z</time>
</trkpt>
<trkpt lat="42.864362537529175" lon="-2.911508516724481">
<ele>889</ele>
<time>2013-10-16T17:14:29Z</time>
</trkpt>
<trkpt lat="42.86434911296867" lon="-2.9116398614710293">
<ele>889</ele>
<time>2013-10-16T17:14:31Z</time>
</trkpt>
<trkpt lat="42.86423290526677" lon="-2.9117460643757775">
<ele>890</ele>
<time>2013-10-16T17:14:33Z</time>
</trkpt>
<trkpt lat="42.86405620472786" lon="-2.9117887416200112">
<ele>890</ele>
<time>2013-10-16T17:14:35Z</time>
</trkpt>
<trkpt lat="42.86385394956345" lon="-2.911671291032004">
<ele>890</ele>
<time>2013-10-16T17:14:37Z</time>
</trkpt>
<trkpt lat="42.86368447445765" lon="-2.9114279426153944">
<ele>890</ele>
<time>2013-10-16T17:14:39Z</time>
</trkpt>
<trkpt lat="42.86359688486718" lon="-2.911102120759693">
<ele>891</ele>
<time>2013-10-16T17:14:41Z</time>
</trkpt>
<trkpt lat="42.86358538833019" lon="-2.910781310879693">
<ele>890</ele>
<time>2013-10-16T17:14:43Z</time>
</trkpt>
<trkpt lat="42.86368336992193" lon="-2.9105153741713723">
<ele>890</ele>
<time>2013-10-16T17:14:45Z</time>
</trkpt>
<trkpt lat="42.86382701890701" lon="-2.910324525512281">
<ele>889</ele>
<time>2013-10-16T17:14:47Z</time>
</trkpt>
<trkpt lat="42.8639684450923" lon="-2.9101588987610207">
<ele>888</ele>
<time>2013-10-16T17:14:49Z</time>
</trkpt>
<trkpt lat="42.86410704337733" lon="-2.9100085167293175">
<ele>889</ele>
<time>2013-10-16T17:14:51Z</time>
</trkpt>
<trkpt lat="42.86424489858693" lon="-2.909920461905617">
<ele>890</ele>
<time>2013-10-16T17:14:53Z</time>
</trkpt>
<trkpt lat="42.86438268460729" lon="-2.909929995776994">
<ele>891</ele>
<time>2013-10-16T17:14:55Z</time>
</trkpt>
<trkpt lat="42.864444959997634" lon="-2.9100772953986453">
<ele>893</ele>
<time>2013-10-16T17:14:57Z</time>
</trkpt>
<trkpt lat="42.86435223800562" lon="-2.9102107712206267">
<ele>896</ele>
<time>2013-10-16T17:14:59Z</time>
</trkpt>
<trkpt lat="42.86418320299559" lon="-2.910263007686777">
<ele>897</ele>
<time>2013-10-16T17:15:01Z</time>
</trkpt>
<trkpt lat="42.86399048344145" lon="-2.9101526097508312">
<ele>899</ele>
<time>2013-10-16T17:15:03Z</time>
</trkpt>
<trkpt lat="42.86385844730744" lon="-2.9098366560705937">
<ele>899</ele>
<time>2013-10-16T17:15:05Z</time>
</trkpt>
<trkpt lat="42.863836060962065" lon="-2.9095045200752194">
<ele>899</ele>
<time>2013-10-16T17:15:07Z</time>
</trkpt>
<trkpt lat="42.86389664324843" lon="-2.9092291675949014">
<ele>900</ele>
<time>2013-10-16T17:15:09Z</time>
</trkpt>
<trkpt lat="42.864028274849375" lon="-2.9090743581649727">
<ele>901</ele>
<time>2013-10-16T17:15:11Z</time>
</trkpt>
<trkpt lat="42.86416840474102" lon="-2.909069755674731">
<ele>902</ele>
<time>2013-10-16T17:15:13Z</time>
</trkpt>
<trkpt lat="42.86427935590471" lon="-2.909117358504296">
<ele>904</ele>
<time>2013-10-16T17:15:15Z</time>
</trkpt>
<trkpt lat="42.864382638679146" lon="-2.909190569556283">
<ele>906</ele>
<time>2013-10-16T17:15:17Z</time>
</trkpt>
<trkpt lat="42.86445126525913" lon="-2.909317088758979">
<ele>908</ele>
<time>2013-10-16T17:15:19Z</time>
</trkpt>
<trkpt lat="42.86449127594099" lon="-2.909455437715839">
<ele>910</ele>
<time>2013-10-16T17:15:21Z</time>
</trkpt>
<trkpt lat="42.8645039772688" lon="-2.9095599150713007">
<ele>912</ele>
<time>2013-10-16T17:15:23Z</time>
</trkpt>
<trkpt lat="42.86455092252134" lon="-2.9096284937946915">
<ele>915</ele>
<time>2013-10-16T17:15:25Z</time>
</trkpt>
<trkpt lat="42.86463069991293" lon="-2.909607204429062">
<ele>918</ele>
<time>2013-10-16T17:15:27Z</time>
</trkpt>
<trkpt lat="42.86473663215215" lon="-2.9093814293191405">
<ele>921</ele>
<time>2013-10-16T17:15:29Z</time>
</trkpt>
<trkpt lat="42.86474987620099" lon="-2.90909839316707">
<ele>923</ele>
<time>2013-10-16T17:15:31Z</time>
</trkpt>
<trkpt lat="42.86466110885" lon="-2.9088726210942535">
<ele>926</ele>
<time>2013-10-16T17:15:33Z</time>
</trkpt>
<trkpt lat="42.8645060715903" lon="-2.908716010348448">
<ele>928</ele>
<time>2013-10-16T17:15:35Z</time>
</trkpt>
<trkpt lat="42.86433447768774" lon="-2.9086568431965834">
<ele>929</ele>
<time>2013-10-16T17:15:37Z</time>
</trkpt>
<trkpt lat="42.864169734299665" lon="-2.908650478014367">
<ele>931</ele>
<time>2013-10-16T17:15:39Z</time>
</trkpt>
<trkpt lat="42.86400105873285" lon="-2.9087043793815215">
<ele>934</ele>
<time>2013-10-16T17:15:41Z</time>
</trkpt>
<trkpt lat="42.86388622545357" lon="-2.9087891734648217">
<ele>937</ele>
<time>2013-10-16T17:15:43Z</time>
</trkpt>
<trkpt lat="42.863839368765476" lon="-2.908902395835378">
<ele>939</ele>
<time>2013-10-16T17:15:45Z</time>
</trkpt>
<trkpt lat="42.86382918175305" lon="-2.9090239082999227">
<ele>941</ele>
<time>2013-10-16T17:15:47Z</time>
</trkpt>
<trkpt lat="42.86387839683215" lon="-2.909141359216418">
<ele>942</ele>
<time>2013-10-16T17:15:49Z</time>
</trkpt>
<trkpt lat="42.86397337997981" lon="-2.9091553592835506">
<ele>944</ele>
<time>2013-10-16T17:15:51Z</time>
</trkpt>
<trkpt lat="42.86409559465011" lon="-2.9089886866600763">
<ele>945</ele>
<time>2013-10-16T17:15:53Z</time>
</trkpt>
<trkpt lat="42.864154056322604" lon="-2.908751398908166">
<ele>947</ele>
<time>2013-10-16T17:15:55Z</time>
</trkpt>
<trkpt lat="42.86412937865703" lon="-2.9084754357477864">
<ele>949</ele>
<time>2013-10-16T17:15:57Z</time>
</trkpt>
<trkpt lat="42.864032845414485" lon="-2.908209498315657">
<ele>952</ele>
<time>2013-10-16T17:15:59Z</time>
</trkpt>
<trkpt lat="42.86384983078086" lon="-2.9080703733584974">
<ele>955</ele>
<time>2013-10-16T17:16:01Z</time>
</trkpt>
<trkpt lat="42.86364877334493" lon="-2.9080585349718375">
<ele>958</ele>
<time>2013-10-16T17:16:03Z</time>
</trkpt>
<trkpt lat="42.86353529234816" lon="-2.9081770239648064">
<ele>961</ele>
<time>2013-10-16T17:16:05Z</time>
</trkpt>
<trkpt lat="42.863564561311854" lon="-2.908321402645439">
<ele>962</ele>
<time>2013-10-16T17:16:07Z</time>
</trkpt>
<trkpt lat="42.863605339489254" lon="-2.908425029595247">
<ele>964</ele>
<time>2013-10-16T17:16:09Z</time>
</trkpt>
<trkpt lat="42.86368222853582" lon="-2.908481047162641">
<ele>967</ele>
<time>2013-10-16T17:16:11Z</time>
</trkpt>
<trkpt lat="42.863782842683435" lon="-2.908492781523597">
<ele>969</ele>
<time>2013-10-16T17:16:13Z</time>
</trkpt>
<trkpt lat="42.86390313267314" lon="-2.9084381543136932">
<ele>972</ele>
<time>2013-10-16T17:16:15Z</time>
</trkpt>
<trkpt lat="42.864040375430065" lon="-2.9083171128510443">
<ele>974</ele>
<time>2013-10-16T17:16:17Z</time>
</trkpt>
<trkpt lat="42.86411686886709" lon="-2.9080958015700116">
<ele>976</ele>
<time>2013-10-16T17:16:19Z</time>
</trkpt>
<trkpt lat="42.864056244044406" lon="-2.907756355981441">
<ele>980</ele>
<time>2013-10-16T17:16:21Z</time>
</trkpt>
<trkpt lat="42.863902390424535" lon="-2.90751944693195">
<ele>983</ele>
<time>2013-10-16T17:16:23Z</time>
</trkpt>
<trkpt lat="42.86368635456172" lon="-2.9073943148643515">
<ele>985</ele>
<time>2013-10-16T17:16:25Z</time>
</trkpt>
<trkpt lat="42.8634578803693" lon="-2.907382267945716">
<ele>985</ele>
<time>2013-10-16T17:16:27Z</time>
</trkpt>
<trkpt lat="42.86331766894791" lon="-2.9074873328319364">
<ele>986</ele>
<time>2013-10-16T17:16:29Z</time>
</trkpt>
<trkpt lat="42.863227636426984" lon="-2.907582868468882">
<ele>988</ele>
<time>2013-10-16T17:16:31Z</time>
</trkpt>
<trkpt lat="42.86316056027732" lon="-2.9077075851356304">
<ele>991</ele>
<time>2013-10-16T17:16:33Z</time>
</trkpt>
<trkpt lat="42.86312884809283" lon="-2.9078671549872097">
<ele>994</ele>
<time>2013-10-16T17:16:35Z</time>
</trkpt>
<trkpt lat="42.86313830087193" lon="-2.9079929332963195">
<ele>997</ele>
<time>2013-10-16T17:16:37Z</time>
</trkpt>
<trkpt lat="42.86315259567844" lon="-2.908124011677529">
<ele>999</ele>
<time>2013-10-16T17:16:39Z</time>
</trkpt>
<trkpt lat="42.86319355091988" lon="-2.9082749295778387">
<ele>1001</ele>
<time>2013-10-16T17:16:41Z</time>
</trkpt>
<trkpt lat="42.86324219720538" lon="-2.9084203960829678">
<ele>1003</ele>
<time>2013-10-16T17:16:43Z</time>
</trkpt>
<trkpt lat="42.86328970661396" lon="-2.908530484952007">
<ele>1005</ele>
<time>2013-10-16T17:16:45Z</time>
</trkpt>
<trkpt lat="42.86335852395172" lon="-2.9085870289775437">
<ele>1006</ele>
<time>2013-10-16T17:16:47Z</time>
</trkpt>
<trkpt lat="42.863439973959096" lon="-2.9086420659278716">
<ele>1007</ele>
<time>2013-10-16T17:16:49Z</time>
</trkpt>
<trkpt lat="42.863519027957615" lon="-2.9087138107280666">
<ele>1007</ele>
<time>2013-10-16T17:16:51Z</time>
</trkpt>
<trkpt lat="42.86359562367812" lon="-2.9087989102054594">
<ele>1007</ele>
<time>2013-10-16T17:16:53Z</time>
</trkpt>
<trkpt lat="42.8636604778242" lon="-2.9088559203330018">
<ele>1007</ele>
<time>2013-10-16T17:16:55Z</time>
</trkpt>
<trkpt lat="42.86373798644342" lon="-2.908930273830618">
<ele>1006</ele>
<time>2013-10-16T17:16:57Z</time>
</trkpt>
<trkpt lat="42.86380210436879" lon="-2.9090267708025266">
<ele>1005</ele>
<time>2013-10-16T17:16:59Z</time>
</trkpt>
<trkpt lat="42.863855687696564" lon="-2.9091245725491985">
<ele>1004</ele>
<time>2013-10-16T17:17:01Z</time>
</trkpt>
<trkpt lat="42.863913448884716" lon="-2.9092440310279386">
<ele>1004</ele>
<time>2013-10-16T17:17:03Z</time>
</trkpt>
<trkpt lat="42.863976672494246" lon="-2.9093528827137733">
<ele>1004</ele>
<time>2013-10-16T17:17:05Z</time>
</trkpt>
<trkpt lat="42.864036709460095" lon="-2.9094549368488356">
<ele>1004</ele>
<time>2013-10-16T17:17:07Z</time>
</trkpt>
<trkpt lat="42.864093119342314" lon="-2.9095638461260895">
<ele>1003</ele>
<time>2013-10-16T17:17:09Z</time>
</trkpt>
<trkpt lat="42.8641484953265" lon="-2.9096565812103834">
<ele>1002</ele>
<time>2013-10-16T17:17:11Z</time>
</trkpt>
<trkpt lat="42.8642023066668" lon="-2.9097490095043548">
<ele>1000</ele>
<time>2013-10-16T17:17:13Z</time>
</trkpt>
<trkpt lat="42.86426944589499" lon="-2.909870358289973">
<ele>998</ele>
<time>2013-10-16T17:17:15Z</time>
</trkpt>
<trkpt lat="42.86432493692452" lon="-2.9099709475778934">
<ele>996</ele>
<time>2013-10-16T17:17:17Z</time>
</trkpt>
<trkpt lat="42.86437846211023" lon="-2.910073888750789">
<ele>995</ele>
<time>2013-10-16T17:17:19Z</time>
</trkpt>
<trkpt lat="42.86444291730817" lon="-2.910188465554658">
<ele>992</ele>
<time>2013-10-16T17:17:21Z</time>
</trkpt>
<trkpt lat="42.86451902589423" lon="-2.9102870143872055">
<ele>991</ele>
<time>2013-10-16T17:17:23Z</time>
</trkpt>
<trkpt lat="42.8645954967936" lon="-2.9103455850237325">
<ele>989</ele>
<time>2013-10-16T17:17:25Z</time>
</trkpt>
<trkpt lat="42.86468163595614" lon="-2.9104066678855585">
<ele>988</ele>
<time>2013-10-16T17:17:27Z</time>
</trkpt>
<trkpt lat="42.86476538478764" lon="-2.9104864015140484">
<ele>986</ele>
<time>2013-10-16T17:17:29Z</time>
</trkpt>
<trkpt lat="42.86485006779473" lon="-2.910583171983223">
<ele>985</ele>
<time>2013-10-16T17:17:31Z</time>
</trkpt>
<trkpt lat="42.864931742787725" lon="-2.9106921986346004">
<ele>983</ele>
<time>2013-10-16T17:17:33Z</time>
</trkpt>
<trkpt lat="42.86500369106812" lon="-2.9108098520794354">
<ele>981</ele>
<time>2013-10-16T17:17:35Z</time>
</trkpt>
<trkpt lat="42.865065725242204" lon="-2.9109276493912515">
<ele>979</ele>
<time>2013-10-16T17:17:37Z</time>
</trkpt>
<trkpt lat="42.865132556409314" lon="-2.9110578325135714">
<ele>977</ele>
<time>2013-10-16T17:17:39Z</time>
</trkpt>
<trkpt lat="42.86520620523534" lon="-2.911191968813225">
<ele>974</ele>
<time>2013-10-16T17:17:41Z</time>
</trkpt>
<trkpt lat="42.86527217004115" lon="-2.9113116402281465">
<ele>972</ele>
<time>2013-10-16T17:17:43Z</time>
</trkpt>
<trkpt lat="42.86533516399831" lon="-2.9114274572696672">
<ele>970</ele>
<time>2013-10-16T17:17:45Z</time>
</trkpt>
<trkpt lat="42.865399289925584" lon="-2.9115407411154854">
<ele>967</ele>
<time>2013-10-16T17:17:47Z</time>
</trkpt>
<trkpt lat="42.865467432076606" lon="-2.911652832149588">
<ele>965</ele>
<time>2013-10-16T17:17:49Z</time>
</trkpt>
<trkpt lat="42.86554049820184" lon="-2.911768346174612">
<ele>963</ele>
<time>2013-10-16T17:17:51Z</time>
</trkpt>
<trkpt lat="42.865632981432235" lon="-2.911813416802788">
<ele>961</ele>
<time>2013-10-16T17:17:53Z</time>
</trkpt>
<trkpt lat="42.865706734796326" lon="-2.9118092591077662">
<ele>961</ele>
<time>2013-10-16T17:17:55Z</time>
</trkpt>
<trkpt lat="42.86578683250691" lon="-2.9118549288732427">
<ele>959</ele>
<time>2013-10-16T17:17:57Z</time>
</trkpt>
<trkpt lat="42.86587566541065" lon="-2.911918931671794">
<ele>958</ele>
<time>2013-10-16T17:17:59Z</time>
</trkpt>
<trkpt lat="42.86593773899511" lon="-2.9119643572719416">
<ele>957</ele>
<time>2013-10-16T17:18:01Z</time>
</trkpt>
<trkpt lat="42.865980988656354" lon="-2.9120399779895147">
<ele>957</ele>
<time>2013-10-16T17:18:03Z</time>
</trkpt>
<trkpt lat="42.86604470112655" lon="-2.912108856306219">
<ele>957</ele>
<time>2013-10-16T17:18:05Z</time>
</trkpt>
<trkpt lat="42.866110574624436" lon="-2.9121807106645017">
<ele>957</ele>
<time>2013-10-16T17:18:07Z</time>
</trkpt>
<trkpt lat="42.86614584657707" lon="-2.9122743888215634">
<ele>955</ele>
<time>2013-10-16T17:18:09Z</time>
</trkpt>
<trkpt lat="42.866178805354906" lon="-2.91239690215759">
<ele>955</ele>
<time>2013-10-16T17:18:11Z</time>
</trkpt>
<trkpt lat="42.86621108247778" lon="-2.912518826907695">
<ele>954</ele>
<time>2013-10-16T17:18:13Z</time>
</trkpt>
<trkpt lat="42.866250064271185" lon="-2.9126541055934827">
<ele>952</ele>
<time>2013-10-16T17:18:15Z</time>
</trkpt>
<trkpt lat="42.86629440662804" lon="-2.9127793138399865">
<ele>949</ele>
<time>2013-10-16T17:18:17Z</time>
</trkpt>
<trkpt lat="42.86633077696461" lon="-2.9128696441458675">
<ele>948</ele>
<time>2013-10-16T17:18:19Z</time>
</trkpt>
<trkpt lat="42.86636014113897" lon="-2.9129451887145223">
<ele>948</ele>
<time>2013-10-16T17:18:21Z</time>
</trkpt>
<trkpt lat="42.86639545284633" lon="-2.9130399812788115">
<ele>945</ele>
<time>2013-10-16T17:18:23Z</time>
</trkpt>
<trkpt lat="42.866428338604315" lon="-2.913156937017012">
<ele>943</ele>
<time>2013-10-16T17:18:25Z</time>
</trkpt>
<trkpt lat="42.8664554253148" lon="-2.913269155733856">
<ele>942</ele>
<time>2013-10-16T17:18:27Z</time>
</trkpt>
<trkpt lat="42.866477529775466" lon="-2.9133609595148737">
<ele>942</ele>
<time>2013-10-16T17:18:29Z</time>
</trkpt>
<trkpt lat="42.866494456169946" lon="-2.913462421412031">
<ele>940</ele>
<time>2013-10-16T17:18:31Z</time>
</trkpt>
<trkpt lat="42.866515910908646" lon="-2.9135819648670416">
<ele>939</ele>
<time>2013-10-16T17:18:33Z</time>
</trkpt>
<trkpt lat="42.86654315625792" lon="-2.913699347807522">
<ele>936</ele>
<time>2013-10-16T17:18:35Z</time>
</trkpt>
<trkpt lat="42.8665903764493" lon="-2.9138238925810422">
<ele>934</ele>
<time>2013-10-16T17:18:37Z</time>
</trkpt>
<trkpt lat="42.8666495163041" lon="-2.9139385879854904">
<ele>931</ele>
<time>2013-10-16T17:18:39Z</time>
</trkpt>
<trkpt lat="42.86670513618594" lon="-2.914045335702018">
<ele>928</ele>
<time>2013-10-16T17:18:41Z</time>
</trkpt>
<trkpt lat="42.86676131445207" lon="-2.9141567095908876">
<ele>926</ele>
<time>2013-10-16T17:18:43Z</time>
</trkpt>
<trkpt lat="42.86681840806142" lon="-2.914269797858451">
<ele>923</ele>
<time>2013-10-16T17:18:45Z</time>
</trkpt>
<trkpt lat="42.86687345333163" lon="-2.9143847219833767">
<ele>921</ele>
<time>2013-10-16T17:18:47Z</time>
</trkpt>
<trkpt lat="42.8669419682679" lon="-2.9144952108389415">
<ele>919</ele>
<time>2013-10-16T17:18:49Z</time>
</trkpt>
<trkpt lat="42.867008178274595" lon="-2.914609892555904">
<ele>916</ele>
<time>2013-10-16T17:18:51Z</time>
</trkpt>
<trkpt lat="42.86707600893075" lon="-2.914731074797709">
<ele>914</ele>
<time>2013-10-16T17:18:53Z</time>
</trkpt>
<trkpt lat="42.867145511349406" lon="-2.9148502659057614">
<ele>912</ele>
<time>2013-10-16T17:18:55Z</time>
</trkpt>
<trkpt lat="42.86720646796953" lon="-2.914955363795297">
<ele>909</ele>
<time>2013-10-16T17:18:57Z</time>
</trkpt>
<trkpt lat="42.86726788505266" lon="-2.915070655348807">
<ele>907</ele>
<time>2013-10-16T17:18:59Z</time>
</trkpt>
<trkpt lat="42.86733198049583" lon="-2.9151954409465795">
<ele>905</ele>
<time>2013-10-16T17:19:01Z</time>
</trkpt>
<trkpt lat="42.8673930768902" lon="-2.9153266279609396">
<ele>903</ele>
<time>2013-10-16T17:19:03Z</time>
</trkpt>
<trkpt lat="42.86745124675417" lon="-2.9154648686795435">
<ele>901</ele>
<time>2013-10-16T17:19:05Z</time>
</trkpt>
<trkpt lat="42.867504385667914" lon="-2.9155940504299562">
<ele>899</ele>
<time>2013-10-16T17:19:07Z</time>
</trkpt>
<trkpt lat="42.8675548247996" lon="-2.9157297339225483">
<ele>897</ele>
<time>2013-10-16T17:19:09Z</time>
</trkpt>
<trkpt lat="42.867601104432104" lon="-2.915860996583516">
<ele>895</ele>
<time>2013-10-16T17:19:11Z</time>
</trkpt>
<trkpt lat="42.867643613396815" lon="-2.915981456891825">
<ele>894</ele>
<time>2013-10-16T17:19:13Z</time>
</trkpt>
<trkpt lat="42.86768745045814" lon="-2.9160903897058565">
<ele>892</ele>
<time>2013-10-16T17:19:15Z</time>
</trkpt>
<trkpt lat="42.867725813433196" lon="-2.9161849879798596">
<ele>892</ele>
<time>2013-10-16T17:19:17Z</time>
</trkpt>
<trkpt lat="42.867764387510405" lon="-2.916301900023717">
<ele>890</ele>
<time>2013-10-16T17:19:19Z</time>
</trkpt>
<trkpt lat="42.86781700035929" lon="-2.9164238273993237">
<ele>888</ele>
<time>2013-10-16T17:19:21Z</time>
</trkpt>
<trkpt lat="42.867875972308134" lon="-2.916534401812352">
<ele>885</ele>
<time>2013-10-16T17:19:23Z</time>
</trkpt>
<trkpt lat="42.86790303185097" lon="-2.9166607275378262">
<ele>883</ele>
<time>2013-10-16T17:19:25Z</time>
</trkpt>
<trkpt lat="42.86792244373574" lon="-2.9167942284472894">
<ele>880</ele>
<time>2013-10-16T17:19:27Z</time>
</trkpt>
<trkpt lat="42.86793702653549" lon="-2.9169176563475228">
<ele>879</ele>
<time>2013-10-16T17:19:29Z</time>
</trkpt>
<trkpt lat="42.86794189894192" lon="-2.9170520094773633">
<ele>878</ele>
<time>2013-10-16T17:19:31Z</time>
</trkpt>
<trkpt lat="42.86794592039186" lon="-2.9171773447824343">
<ele>877</ele>
<time>2013-10-16T17:19:33Z</time>
</trkpt>
<trkpt lat="42.86794074311761" lon="-2.917287894562145">
<ele>877</ele>
<time>2013-10-16T17:19:35Z</time>
</trkpt>
<trkpt lat="42.86789976401127" lon="-2.917415298880118">
<ele>876</ele>
<time>2013-10-16T17:19:37Z</time>
</trkpt>
<trkpt lat="42.867843994556466" lon="-2.9175437056044013">
<ele>875</ele>
<time>2013-10-16T17:19:39Z</time>
</trkpt>
<trkpt lat="42.86782091838916" lon="-2.917656492136702">
<ele>873</ele>
<time>2013-10-16T17:19:41Z</time>
</trkpt>
<trkpt lat="42.867835195920655" lon="-2.9177940856213227">
<ele>871</ele>
<time>2013-10-16T17:19:43Z</time>
</trkpt>
<trkpt lat="42.867845460276016" lon="-2.9179357911284787">
<ele>869</ele>
<time>2013-10-16T17:19:45Z</time>
</trkpt>
<trkpt lat="42.86786026166877" lon="-2.918058278883216">
<ele>866</ele>
<time>2013-10-16T17:19:47Z</time>
</trkpt>
<trkpt lat="42.867894189170386" lon="-2.9181871101499413">
<ele>864</ele>
<time>2013-10-16T17:19:49Z</time>
</trkpt>
<trkpt lat="42.86792935740769" lon="-2.9183416712252197">
<ele>862</ele>
<time>2013-10-16T17:19:51Z</time>
</trkpt>
<trkpt lat="42.86793186181946" lon="-2.918477754022061">
<ele>861</ele>
<time>2013-10-16T17:19:53Z</time>
</trkpt>
<trkpt lat="42.86793884664516" lon="-2.918568114528205">
<ele>860</ele>
<time>2013-10-16T17:19:55Z</time>
</trkpt>
<trkpt lat="42.867970686710144" lon="-2.9186634618650182">
<ele>859</ele>
<time>2013-10-16T17:19:57Z</time>
</trkpt>
<trkpt lat="42.868031050774235" lon="-2.9187666512733768">
<ele>856</ele>
<time>2013-10-16T17:19:59Z</time>
</trkpt>
<trkpt lat="42.86813041277285" lon="-2.9187937882761172">
<ele>854</ele>
<time>2013-10-16T17:20:01Z</time>
</trkpt>
<trkpt lat="42.868268768442356" lon="-2.9187559613682725">
<ele>852</ele>
<time>2013-10-16T17:20:03Z</time>
</trkpt>
<trkpt lat="42.86840922435986" lon="-2.9186838229649927">
<ele>852</ele>
<time>2013-10-16T17:20:05Z</time>
</trkpt>
<trkpt lat="42.86852791155674" lon="-2.9186196681860817">
<ele>851</ele>
<time>2013-10-16T17:20:07Z</time>
</trkpt>
<trkpt lat="42.86867940948332" lon="-2.9185355287480874">
<ele>850</ele>
<time>2013-10-16T17:20:09Z</time>
</trkpt>
<trkpt lat="42.868810470265984" lon="-2.9183428649893486">
<ele>848</ele>
<time>2013-10-16T17:20:11Z</time>
</trkpt>
<trkpt lat="42.8688906469443" lon="-2.9181283075346816">
<ele>847</ele>
<time>2013-10-16T17:20:13Z</time>
</trkpt>
<trkpt lat="42.86894268782717" lon="-2.917860025182181">
<ele>848</ele>
<time>2013-10-16T17:20:15Z</time>
</trkpt>
<trkpt lat="42.86899823001129" lon="-2.917579743177047">
<ele>850</ele>
<time>2013-10-16T17:20:17Z</time>
</trkpt>
<trkpt lat="42.869036640100354" lon="-2.9173476426658254">
<ele>851</ele>
<time>2013-10-16T17:20:19Z</time>
</trkpt>
<trkpt lat="42.869073630739074" lon="-2.9171116266845543">
<ele>852</ele>
<time>2013-10-16T17:20:21Z</time>
</trkpt>
<trkpt lat="42.869047176982114" lon="-2.9169123480617407">
<ele>854</ele>
<time>2013-10-16T17:20:23Z</time>
</trkpt>
<trkpt lat="42.86896497994044" lon="-2.9167463988631064">
<ele>855</ele>
<time>2013-10-16T17:20:25Z</time>
</trkpt>
<trkpt lat="42.8687974700039" lon="-2.916604821238224">
<ele>856</ele>
<time>2013-10-16T17:20:27Z</time>
</trkpt>
<trkpt lat="42.86859610622541" lon="-2.9165725470859005">
<ele>857</ele>
<time>2013-10-16T17:20:29Z</time>
</trkpt>
<trkpt lat="42.86843925171479" lon="-2.916630518877931">
<ele>859</ele>
<time>2013-10-16T17:20:31Z</time>
</trkpt>
<trkpt lat="42.86836143011377" lon="-2.9167631213834975">
<ele>859</ele>
<time>2013-10-16T17:20:33Z</time>
</trkpt>
<trkpt lat="42.868370819809634" lon="-2.9169483381998926">
<ele>860</ele>
<time>2013-10-16T17:20:35Z</time>
</trkpt>
<trkpt lat="42.86847164636551" lon="-2.917057149557106">
<ele>861</ele>
<time>2013-10-16T17:20:37Z</time>
</trkpt>
<trkpt lat="42.868599393387356" lon="-2.9170822219031156">
<ele>862</ele>
<time>2013-10-16T17:20:39Z</time>
</trkpt>
<trkpt lat="42.86869506482637" lon="-2.9171713250128986">
<ele>864</ele>
<time>2013-10-16T17:20:41Z</time>
</trkpt>
<trkpt lat="42.868792734295724" lon="-2.9172468621131307">
<ele>865</ele>
<time>2013-10-16T17:20:43Z</time>
</trkpt>
<trkpt lat="42.868892697161655" lon="-2.917281615321415">
<ele>868</ele>
<time>2013-10-16T17:20:45Z</time>
</trkpt>
<trkpt lat="42.86902425320098" lon="-2.9172380116129104">
<ele>870</ele>
<time>2013-10-16T17:20:47Z</time>
</trkpt>
<trkpt lat="42.869098732665925" lon="-2.91709246987731">
<ele>874</ele>
<time>2013-10-16T17:20:49Z</time>
</trkpt>
<trkpt lat="42.869001536551956" lon="-2.9168466105767883">
<ele>877</ele>
<time>2013-10-16T17:20:51Z</time>
</trkpt>
<trkpt lat="42.86881740176127" lon="-2.916756250433669">
<ele>879</ele>
<time>2013-10-16T17:20:53Z</time>
</trkpt>
<trkpt lat="42.8686063382016" lon="-2.916845562334268">
<ele>882</ele>
<time>2013-10-16T17:20:55Z</time>
</trkpt>
<trkpt lat="42.86844279991763" lon="-2.9170543610078825">
<ele>883</ele>
<time>2013-10-16T17:20:57Z</time>
</trkpt>
<trkpt lat="42.868432854701375" lon="-2.9172599212677">
<ele>885</ele>
<time>2013-10-16T17:20:59Z</time>
</trkpt>
<trkpt lat="42.868496605302816" lon="-2.917410723585337">
<ele>888</ele>
<time>2013-10-16T17:21:01Z</time>
</trkpt>
<trkpt lat="42.86860970267948" lon="-2.917487788004974">
<ele>891</ele>
<time>2013-10-16T17:21:03Z</time>
</trkpt>
<trkpt lat="42.86875452384228" lon="-2.9174296757186267">
<ele>895</ele>
<time>2013-10-16T17:21:05Z</time>
</trkpt>
<trkpt lat="42.8688468893777" lon="-2.9172140779850424">
<ele>897</ele>
<time>2013-10-16T17:21:07Z</time>
</trkpt>
<trkpt lat="42.868821472861" lon="-2.9169528159041542">
<ele>900</ele>
<time>2013-10-16T17:21:09Z</time>
</trkpt>
<trkpt lat="42.868690366428936" lon="-2.9167715680309443">
<ele>902</ele>
<time>2013-10-16T17:21:11Z</time>
</trkpt>
<trkpt lat="42.86850199395005" lon="-2.916732340761721">
<ele>904</ele>
<time>2013-10-16T17:21:13Z</time>
</trkpt>
<trkpt lat="42.86833610758149" lon="-2.916866618294273">
<ele>905</ele>
<time>2013-10-16T17:21:15Z</time>
</trkpt>
<trkpt lat="42.86824171598035" lon="-2.9171171692776237">
<ele>907</ele>
<time>2013-10-16T17:21:17Z</time>
</trkpt>
<trkpt lat="42.86826455603853" lon="-2.9173362860759715">
<ele>909</ele>
<time>2013-10-16T17:21:19Z</time>
</trkpt>
<trkpt lat="42.868357046254246" lon="-2.9174810886445828">
<ele>912</ele>
<time>2013-10-16T17:21:21Z</time>
</trkpt>
<trkpt lat="42.86847125945177" lon="-2.9175225562630844">
<ele>916</ele>
<time>2013-10-16T17:21:23Z</time>
</trkpt>
<trkpt lat="42.86859533783793" lon="-2.917448190821041">
<ele>920</ele>
<time>2013-10-16T17:21:25Z</time>
</trkpt>
<trkpt lat="42.868674656551676" lon="-2.917210705855628">
<ele>923</ele>
<time>2013-10-16T17:21:27Z</time>
</trkpt>
<trkpt lat="42.86862315946774" lon="-2.9169295485322873">
<ele>927</ele>
<time>2013-10-16T17:21:29Z</time>
</trkpt>
<trkpt lat="42.868470045143354" lon="-2.916772620024399">
<ele>930</ele>
<time>2013-10-16T17:21:31Z</time>
</trkpt>
<trkpt lat="42.86827034906775" lon="-2.9167749478520784">
<ele>932</ele>
<time>2013-10-16T17:21:33Z</time>
</trkpt>
<trkpt lat="42.86809689453027" lon="-2.9168602685863676">
<ele>935</ele>
<time>2013-10-16T17:21:35Z</time>
</trkpt>
<trkpt lat="42.86800909287333" lon="-2.917066976047207">
<ele>938</ele>
<time>2013-10-16T17:21:37Z</time>
</trkpt>
<trkpt lat="42.868008531825275" lon="-2.917313891498942">
<ele>940</ele>
<time>2013-10-16T17:21:39Z</time>
</trkpt>
<trkpt lat="42.86807237331428" lon="-2.9174694945400295">
<ele>943</ele>
<time>2013-10-16T17:21:41Z</time>
</trkpt>
<trkpt lat="42.86815831748153" lon="-2.9175179673299554">
<ele>945</ele>
<time>2013-10-16T17:21:43Z</time>
</trkpt>
<trkpt lat="42.868292213388614" lon="-2.9174049790000276">
<ele>947</ele>
<time>2013-10-16T17:21:45Z</time>
</trkpt>
<trkpt lat="42.86838482732413" lon="-2.91717095265717">
<ele>948</ele>
<time>2013-10-16T17:21:47Z</time>
</trkpt>
<trkpt lat="42.86838587190232" lon="-2.916878786589774">
<ele>948</ele>
<time>2013-10-16T17:21:49Z</time>
</trkpt>
<trkpt lat="42.868316677472976" lon="-2.9165953188663303">
<ele>948</ele>
<time>2013-10-16T17:21:51Z</time>
</trkpt>
<trkpt lat="42.86820505017291" lon="-2.9164046276631947">
<ele>950</ele>
<time>2013-10-16T17:21:53Z</time>
</trkpt>
<trkpt lat="42.868034222897734" lon="-2.916296893892488">
<ele>953</ele>
<time>2013-10-16T17:21:55Z</time>
</trkpt>
<trkpt lat="42.86783765906176" lon="-2.916327161275622">
<ele>955</ele>
<time>2013-10-16T17:21:57Z</time>
</trkpt>
<trkpt lat="42.86768372042778" lon="-2.916437221744093">
<ele>958</ele>
<time>2013-10-16T17:21:59Z</time>
</trkpt>
<trkpt lat="42.86765255228721" lon="-2.916632838835048">
<ele>961</ele>
<time>2013-10-16T17:22:01Z</time>
</trkpt>
<trkpt lat="42.86773442416149" lon="-2.916790843598238">
<ele>964</ele>
<time>2013-10-16T17:22:03Z</time>
</trkpt>
<trkpt lat="42.86785674386528" lon="-2.9168070372040167">
<ele>967</ele>
<time>2013-10-16T17:22:05Z</time>
</trkpt>
<trkpt lat="42.8679815317087" lon="-2.916691630575243">
<ele>969</ele>
<time>2013-10-16T17:22:07Z</time>
</trkpt>
<trkpt lat="42.86806183209389" lon="-2.916461152575482">
<ele>971</ele>
<time>2013-10-16T17:22:09Z</time>
</trkpt>
<trkpt lat="42.86801847898226" lon="-2.9161812545015695">
<ele>973</ele>
<time>2013-10-16T17:22:11Z</time>
</trkpt>
<trkpt lat="42.867876186107345" lon="-2.9159807913606888">
<ele>975</ele>
<time>2013-10-16T17:22:13Z</time>
</trkpt>
<trkpt lat="42.867707211128646" lon="-2.9158795813905694">
<ele>977</ele>
<time>2013-10-16T17:22:15Z</time>
</trkpt>
<trkpt lat="42.86753639385475" lon="-2.9159180216631495">
<ele>980</ele>
<time>2013-10-16T17:22:17Z</time>
</trkpt>
<trkpt lat="42.867396545761004" lon="-2.916067315217736">
<ele>983</ele>
<time>2013-10-16T17:22:19Z</time>
</trkpt>
<trkpt lat="42.86734284557533" lon="-2.916235401947553">
<ele>984</ele>
<time>2013-10-16T17:22:21Z</time>
</trkpt>
<trkpt lat="42.86739756757175" lon="-2.9163727785791234">
<ele>987</ele>
<time>2013-10-16T17:22:23Z</time>
</trkpt>
<trkpt lat="42.86750149514599" lon="-2.9164276627588204">
<ele>989</ele>
<time>2013-10-16T17:22:25Z</time>
</trkpt>
<trkpt lat="42.86762582430216" lon="-2.91633115782769">
<ele>991</ele>
<time>2013-10-16T17:22:27Z</time>
</trkpt>
<trkpt lat="42.86770431905158" lon="-2.9160929674387486">
<ele>992</ele>
<time>2013-10-16T17:22:29Z</time>
</trkpt>
<trkpt lat="42.86769142019492" lon="-2.9158309272627663">
<ele>994</ele>
<time>2013-10-16T17:22:31Z</time>
</trkpt>
<trkpt lat="42.867581426475596" lon="-2.9156364719860286">
<ele>997</ele>
<time>2013-10-16T17:22:33Z</time>
</trkpt>
<trkpt lat="42.86740390897158" lon="-2.915519100517751">
<ele>999</ele>
<time>2013-10-16T17:22:35Z</time>
</trkpt>
<trkpt lat="42.867225151962806" lon="-2.915547984720425">
<ele>1002</ele>
<time>2013-10-16T17:22:37Z</time>
</trkpt>
<trkpt lat="42.86710070426365" lon="-2.915682884177944">
<ele>1004</ele>
<time>2013-10-16T17:22:39Z</time>
</trkpt>
<trkpt lat="42.867058832270665" lon="-2.9158634293774006">
<ele>1006</ele>
<time>2013-10-16T17:22:41Z</time>
</trkpt>
<trkpt lat="42.86710725298294" lon="-2.9159798574889093">
<ele>1007</ele>
<time>2013-10-16T17:22:43Z</time>
</trkpt>
<trkpt lat="42.867227007714625" lon="-2.9160231038847444">
<ele>1007</ele>
<time>2013-10-16T17:22:45Z</time>
</trkpt>
<trkpt lat="42.86738620844234" lon="-2.9159586787054352">
<ele>1009</ele>
<time>2013-10-16T17:22:47Z</time>
</trkpt>
<trkpt lat="42.867492015193484" lon="-2.9158034990136">
<ele>1010</ele>
<time>2013-10-16T17:22:49Z</time>
</trkpt>
<trkpt lat="42.86751740695445" lon="-2.915586649177939">
<ele>1012</ele>
<time>2013-10-16T17:22:51Z</time>
</trkpt>
<trkpt lat="42.86747086917926" lon="-2.9153579456575454">
<ele>1014</ele>
<time>2013-10-16T17:22:53Z</time>
</trkpt>
<trkpt lat="42.8673532059984" lon="-2.915196551124644">
<ele>1015</ele>
<time>2013-10-16T17:22:55Z</time>
</trkpt>
<trkpt lat="42.86717458847812" lon="-2.915117877601933">
<ele>1016</ele>
<time>2013-10-16T17:22:57Z</time>
</trkpt>
<trkpt lat="42.86699533487326" lon="-2.9151925453948504">
<ele>1016</ele>
<time>2013-10-16T17:22:59Z</time>
</trkpt>
<trkpt lat="42.86687863820503" lon="-2.915372006340931">
<ele>1016</ele>
<time>2013-10-16T17:23:01Z</time>
</trkpt>
<trkpt lat="42.86682550995727" lon="-2.915565831961925">
<ele>1016</ele>
<time>2013-10-16T17:23:03Z</time>
</trkpt>
<trkpt lat="42.866824614161054" lon="-2.915725943384533">
<ele>1016</ele>
<time>2013-10-16T17:23:05Z</time>
</trkpt>
<trkpt lat="42.866847013535256" lon="-2.915894968530073">
<ele>1016</ele>
<time>2013-10-16T17:23:07Z</time>
</trkpt>
<trkpt lat="42.86688472759083" lon="-2.916082111940358">
<ele>1016</ele>
<time>2013-10-16T17:23:09Z</time>
</trkpt>
<trkpt lat="42.86692985736523" lon="-2.9162886465736237">
<ele>1016</ele>
<time>2013-10-16T17:23:11Z</time>
</trkpt>
<trkpt lat="42.86697995246022" lon="-2.9164862365475916">
<ele>1017</ele>
<time>2013-10-16T17:23:13Z</time>
</trkpt>
<trkpt lat="42.867030166487766" lon="-2.9166590412236">
<ele>1018</ele>
<time>2013-10-16T17:23:15Z</time>
</trkpt>
<trkpt lat="42.867078587625436" lon="-2.916815095092049">
<ele>1020</ele>
<time>2013-10-16T17:23:17Z</time>
</trkpt>
<trkpt lat="42.86715427522303" lon="-2.916942374181879">
<ele>1023</ele>
<time>2013-10-16T17:23:19Z</time>
</trkpt>
<trkpt lat="42.867271354417916" lon="-2.916959398259454">
<ele>1025</ele>
<time>2013-10-16T17:23:21Z</time>
</trkpt>
<trkpt lat="42.867395625760345" lon="-2.916925388874305">
<ele>1028</ele>
<time>2013-10-16T17:23:23Z</time>
</trkpt>
<trkpt lat="42.86751774394186" lon="-2.916878541013818">
<ele>1030</ele>
<time>2013-10-16T17:23:25Z</time>
</trkpt>
<trkpt lat="42.86761280828889" lon="-2.916729507881435">
<ele>1031</ele>
<time>2013-10-16T17:23:27Z</time>
</trkpt>
<trkpt lat="42.867613329993645" lon="-2.916500795142614">
<ele>1033</ele>
<time>2013-10-16T17:23:29Z</time>
</trkpt>
<trkpt lat="42.86748256804936" lon="-2.91629878102565">
<ele>1035</ele>
<time>2013-10-16T17:23:31Z</time>
</trkpt>
<trkpt lat="42.867293274243515" lon="-2.916241233918958">
<ele>1036</ele>
<time>2013-10-16T17:23:33Z</time>
</trkpt>
<trkpt lat="42.86707996194987" lon="-2.91628580829941">
<ele>1037</ele>
<time>2013-10-16T17:23:35Z</time>
</trkpt>
<trkpt lat="42.86690830376808" lon="-2.9164518887210833">
<ele>1037</ele>
<time>2013-10-16T17:23:37Z</time>
</trkpt>
<trkpt lat="42.8668269594189" lon="-2.916644716961959">
<ele>1038</ele>
<time>2013-10-16T17:23:39Z</time>
</trkpt>
<trkpt lat="42.866797647223486" lon="-2.916825176671801">
<ele>1039</ele>
<time>2013-10-16T17:23:41Z</time>
</trkpt>
<trkpt lat="42.866790121392775" lon="-2.9170387329035714">
<ele>1039</ele>
<time>2013-10-16T17:23:43Z</time>
</trkpt>
<trkpt lat="42.86682498449933" lon="-2.9172645002853996">
<ele>1041</ele>
<time>2013-10-16T17:23:45Z</time>
</trkpt>
<trkpt lat="42.86693297335204" lon="-2.917379586582989">
<ele>1044</ele>
<time>2013-10-16T17:23:47Z</time>
</trkpt>
<trkpt lat="42.867081618430745" lon="-2.917363928485189">
<ele>1046</ele>
<time>2013-10-16T17:23:49Z</time>
</trkpt>
<trkpt lat="42.86718927546984" lon="-2.917198564060873">
<ele>1048</ele>
<time>2013-10-16T17:23:51Z</time>
</trkpt>
<trkpt lat="42.86720986371293" lon="-2.916899104012484">
<ele>1050</ele>
<time>2013-10-16T17:23:53Z</time>
</trkpt>
<trkpt lat="42.86711735406598" lon="-2.916650325224527">
<ele>1053</ele>
<time>2013-10-16T17:23:55Z</time>
</trkpt>
<trkpt lat="42.86690340755588" lon="-2.9165537562037365">
<ele>1055</ele>
<time>2013-10-16T17:23:57Z</time>
</trkpt>
<trkpt lat="42.866675852488974" lon="-2.916592814131495">
<ele>1057</ele>
<time>2013-10-16T17:23:59Z</time>
</trkpt>
<trkpt lat="42.86651455456087" lon="-2.9167106282970825">
<ele>1059</ele>
<time>2013-10-16T17:24:01Z</time>
</trkpt>
<trkpt lat="42.86640397780356" lon="-2.9168938535861746">
<ele>1061</ele>
<time>2013-10-16T17:24:03Z</time>
</trkpt>
<trkpt lat="42.86631996713463" lon="-2.917086859679135">
<ele>1062</ele>
<time>2013-10-16T17:24:05Z</time>
</trkpt>
<trkpt lat="42.866288483899744" lon="-2.917261494132984">
<ele>1064</ele>
<time>2013-10-16T17:24:07Z</time>
</trkpt>
<trkpt lat="42.8663037727664" lon="-2.917433380327564">
<ele>1065</ele>
<time>2013-10-16T17:24:09Z</time>
</trkpt>
<trkpt lat="42.86634735592916" lon="-2.9176011428361335">
<ele>1067</ele>
<time>2013-10-16T17:24:11Z</time>
</trkpt>
<trkpt lat="42.866423408183955" lon="-2.917673904213207">
<ele>1069</ele>
<time>2013-10-16T17:24:13Z</time>
</trkpt>
<trkpt lat="42.866516204133724" lon="-2.9176558453278116">
<ele>1071</ele>
<time>2013-10-16T17:24:15Z</time>
</trkpt>
<trkpt lat="42.866639387513146" lon="-2.9175732720157415">
<ele>1073</ele>
<time>2013-10-16T17:24:17Z</time>
</trkpt>
<trkpt lat="42.866734645693" lon="-2.9173497650166085">
<ele>1075</ele>
<time>2013-10-16T17:24:19Z</time>
</trkpt>
<trkpt lat="42.86675877376935" lon="-2.9170755333946614">
<ele>1078</ele>
<time>2013-10-16T17:24:21Z</time>
</trkpt>
<trkpt lat="42.86668463327928" lon="-2.9168359375163897">
<ele>1080</ele>
<time>2013-10-16T17:24:23Z</time>
</trkpt>
<trkpt lat="42.86654257853278" lon="-2.916634212465166">
<ele>1082</ele>
<time>2013-10-16T17:24:25Z</time>
</trkpt>
<trkpt lat="42.866353112989316" lon="-2.9165568123935057">
<ele>1083</ele>
<time>2013-10-16T17:24:27Z</time>
</trkpt>
<trkpt lat="42.86618530510897" lon="-2.9166610914898032">
<ele>1084</ele>
<time>2013-10-16T17:24:29Z</time>
</trkpt>
<trkpt lat="42.86608333654259" lon="-2.916864191998027">
<ele>1084</ele>
<time>2013-10-16T17:24:31Z</time>
</trkpt>
<trkpt lat="42.86608418982271" lon="-2.9170404209863294">
<ele>1084</ele>
<time>2013-10-16T17:24:33Z</time>
</trkpt>
<trkpt lat="42.86616833529911" lon="-2.9172171455882183">
<ele>1084</ele>
<time>2013-10-16T17:24:35Z</time>
</trkpt>
<trkpt lat="42.866271504304144" lon="-2.9173530556739893">
<ele>1085</ele>
<time>2013-10-16T17:24:37Z</time>
</trkpt>
<trkpt lat="42.86634937506883" lon="-2.9174342330910905">
<ele>1087</ele>
<time>2013-10-16T17:24:39Z</time>
</trkpt>
<trkpt lat="42.866419197657265" lon="-2.9175063985685785">
<ele>1090</ele>
<time>2013-10-16T17:24:41Z</time>
</trkpt>
<trkpt lat="42.86652885599781" lon="-2.9175659438705743">
<ele>1092</ele>
<time>2013-10-16T17:24:43Z</time>
</trkpt>
<trkpt lat="42.86665698634667" lon="-2.9174985524176327">
<ele>1095</ele>
<time>2013-10-16T17:24:45Z</time>
</trkpt>
<trkpt lat="42.86670513057782" lon="-2.917258682263999">
<ele>1098</ele>
<time>2013-10-16T17:24:47Z</time>
</trkpt>
<trkpt lat="42.86663632815332" lon="-2.9170079298330727">
<ele>1101</ele>
<time>2013-10-16T17:24:49Z</time>
</trkpt>
<trkpt lat="42.86646381620343" lon="-2.9168572568076274">
<ele>1104</ele>
<time>2013-10-16T17:24:51Z</time>
</trkpt>
<trkpt lat="42.866244273422" lon="-2.916885504852106">
<ele>1106</ele>
<time>2013-10-16T17:24:53Z</time>
</trkpt>
<trkpt lat="42.86608953667812" lon="-2.917021051397064">
<ele>1109</ele>
<time>2013-10-16T17:24:55Z</time>
</trkpt>
<trkpt lat="42.866066334305664" lon="-2.9171993015507844">
<ele>1112</ele>
<time>2013-10-16T17:24:57Z</time>
</trkpt>
<trkpt lat="42.86606971069473" lon="-2.91732537933129">
<ele>1116</ele>
<time>2013-10-16T17:24:59Z</time>
</trkpt>
<trkpt lat="42.866091375188056" lon="-2.9174698594091666">
<ele>1120</ele>
<time>2013-10-16T17:25:01Z</time>
</trkpt>
<trkpt lat="42.866177040699185" lon="-2.9175930612801038">
<ele>1123</ele>
<time>2013-10-16T17:25:03Z</time>
</trkpt>
<trkpt lat="42.866302418545544" lon="-2.9176004329491887">
<ele>1126</ele>
<time>2013-10-16T17:25:05Z</time>
</trkpt>
<trkpt lat="42.866435168275686" lon="-2.917503820407559">
<ele>1128</ele>
<time>2013-10-16T17:25:07Z</time>
</trkpt>
<trkpt lat="42.86648998426649" lon="-2.917241572498992">
<ele>1129</ele>
<time>2013-10-16T17:25:09Z</time>
</trkpt>
<trkpt lat="42.86642260748198" lon="-2.916994436562706">
<ele>1131</ele>
<time>2013-10-16T17:25:11Z</time>
</trkpt>
<trkpt lat="42.866264874739926" lon="-2.9168482723614186">
<ele>1133</ele>
<time>2013-10-16T17:25:13Z</time>
</trkpt>
<trkpt lat="42.86605049894826" lon="-2.916792426772971">
<ele>1134</ele>
<time>2013-10-16T17:25:15Z</time>
</trkpt>
<trkpt lat="42.86585762490309" lon="-2.9169170754348177">
<ele>1135</ele>
<time>2013-10-16T17:25:17Z</time>
</trkpt>
<trkpt lat="42.86576163763299" lon="-2.917107578873923">
<ele>1137</ele>
<time>2013-10-16T17:25:19Z</time>
</trkpt>
<trkpt lat="42.86569554680094" lon="-2.9172867769268906">
<ele>1139</ele>
<time>2013-10-16T17:25:21Z</time>
</trkpt>
<trkpt lat="42.86566080242365" lon="-2.9174603047498606">
<ele>1142</ele>
<time>2013-10-16T17:25:23Z</time>
</trkpt>
<trkpt lat="42.8657203134389" lon="-2.917592398977658">
<ele>1146</ele>
<time>2013-10-16T17:25:25Z</time>
</trkpt>
<trkpt lat="42.8658376725176" lon="-2.917607064021038">
<ele>1149</ele>
<time>2013-10-16T17:25:27Z</time>
</trkpt>
<trkpt lat="42.865954149216016" lon="-2.9174844137999436">
<ele>1151</ele>
<time>2013-10-16T17:25:29Z</time>
</trkpt>
<trkpt lat="42.86601325005628" lon="-2.917263781284377">
<ele>1153</ele>
<time>2013-10-16T17:25:31Z</time>
</trkpt>
<trkpt lat="42.865987633642206" lon="-2.916994990942423">
<ele>1155</ele>
<time>2013-10-16T17:25:33Z</time>
</trkpt>
<trkpt lat="42.86585918237491" lon="-2.9168011300152368">
<ele>1156</ele>
<time>2013-10-16T17:25:35Z</time>
</trkpt>
<trkpt lat="42.865665116495784" lon="-2.9167499757771984">
<ele>1157</ele>
<time>2013-10-16T17:25:37Z</time>
</trkpt>
<trkpt lat="42.86547422208997" lon="-2.916811713840999">
<ele>1159</ele>
<time>2013-10-16T17:25:39Z</time>
</trkpt>
<trkpt lat="42.86534303409879" lon="-2.9169720371038883">
<ele>1161</ele>
<time>2013-10-16T17:25:41Z</time>
</trkpt>
<trkpt lat="42.86525840017312" lon="-2.91714114398872">
<ele>1162</ele>
<time>2013-10-16T17:25:43Z</time>
</trkpt>
<trkpt lat="42.86526032611822" lon="-2.9172910393854137">
<ele>1163</ele>
<time>2013-10-16T17:25:45Z</time>
</trkpt>
<trkpt lat="42.86529455582015" lon="-2.9174663888488723">
<ele>1165</ele>
<time>2013-10-16T17:25:47Z</time>
</trkpt>
<trkpt lat="42.86535187976263" lon="-2.917582870042058">
<ele>1166</ele>
<time>2013-10-16T17:25:49Z</time>
</trkpt>
<trkpt lat="42.865452305671276" lon="-2.9175993163590563">
<ele>1168</ele>
<time>2013-10-16T17:25:51Z</time>
</trkpt>
<trkpt lat="42.865566767181484" lon="-2.9175185536453982">
<ele>1170</ele>
<time>2013-10-16T17:25:53Z</time>
</trkpt>
<trkpt lat="42.86562664810264" lon="-2.9173218759416937">
<ele>1171</ele>
<time>2013-10-16T17:25:55Z</time>
</trkpt>
<trkpt lat="42.86563191292678" lon="-2.917064618930729">
<ele>1172</ele>
<time>2013-10-16T17:25:57Z</time>
</trkpt>
<trkpt lat="42.865554906913" lon="-2.916823685352519">
<ele>1172</ele>
<time>2013-10-16T17:25:59Z</time>
</trkpt>
<trkpt lat="42.86539094786338" lon="-2.916687519347859">
<ele>1172</ele>
<time>2013-10-16T17:26:01Z</time>
</trkpt>
<trkpt lat="42.86519546953208" lon="-2.9166802154965685">
<ele>1171</ele>
<time>2013-10-16T17:26:03Z</time>
</trkpt>
<trkpt lat="42.86504477530025" lon="-2.916767602701109">
<ele>1173</ele>
<time>2013-10-16T17:26:05Z</time>
</trkpt>
<trkpt lat="42.86492881633939" lon="-2.9169453490303545">
<ele>1174</ele>
<time>2013-10-16T17:26:07Z</time>
</trkpt>
<trkpt lat="42.864914101519076" lon="-2.917119334621781">
<ele>1175</ele>
<time>2013-10-16T17:26:09Z</time>
</trkpt>
<trkpt lat="42.864940691602" lon="-2.917296721750597">
<ele>1176</ele>
<time>2013-10-16T17:26:11Z</time>
</trkpt>
<trkpt lat="42.86499594985142" lon="-2.9174351132739824">
<ele>1176</ele>
<time>2013-10-16T17:26:13Z</time>
</trkpt>
<trkpt lat="42.86509818110967" lon="-2.9175488727671572">
<ele>1177</ele>
<time>2013-10-16T17:26:15Z</time>
</trkpt>
<trkpt lat="42.86520369197206" lon="-2.917653525138775">
<ele>1178</ele>
<time>2013-10-16T17:26:17Z</time>
</trkpt>
<trkpt lat="42.865311241984045" lon="-2.9177693665104036">
<ele>1179</ele>
<time>2013-10-16T17:26:19Z</time>
</trkpt>
<trkpt lat="42.86543105683948" lon="-2.9178583321292">
<ele>1179</ele>
<time>2013-10-16T17:26:21Z</time>
</trkpt>
<trkpt lat="42.86555286641003" lon="-2.9179172718003312">
<ele>1180</ele>
<time>2013-10-16T17:26:23Z</time>
</trkpt>
<trkpt lat="42.8656388987773" lon="-2.918009173648939">
<ele>1180</ele>
<time>2013-10-16T17:26:25Z</time>
</trkpt>
<trkpt lat="42.86567258166539" lon="-2.9181828712757136">
<ele>1180</ele>
<time>2013-10-16T17:26:27Z</time>
</trkpt>
<trkpt lat="42.86570179626788" lon="-2.9183778549375727">
<ele>1181</ele>
<time>2013-10-16T17:26:29Z</time>
</trkpt>
<trkpt lat="42.86572378318694" lon="-2.918579079807907">
<ele>1181</ele>
<time>2013-10-16T17:26:31Z</time>
</trkpt>
<trkpt lat="42.865724945220926" lon="-2.9187843448932163">
<ele>1179</ele>
<time>2013-10-16T17:26:33Z</time>
</trkpt>
<trkpt lat="42.865704874148044" lon="-2.918994870227877">
<ele>1176</ele>
<time>2013-10-16T17:26:35Z</time>
</trkpt>
<trkpt lat="42.86567721132224" lon="-2.9192044078361623">
<ele>1174</ele>
<time>2013-10-16T17:26:37Z</time>
</trkpt>
<trkpt lat="42.8656424973065" lon="-2.9194209586853614">
<ele>1171</ele>
<time>2013-10-16T17:26:39Z</time>
</trkpt>
<trkpt lat="42.86559636822306" lon="-2.919634244897301">
<ele>1168</ele>
<time>2013-10-16T17:26:41Z</time>
</trkpt>
<trkpt lat="42.865531823448855" lon="-2.9198463851673924">
<ele>1165</ele>
<time>2013-10-16T17:26:43Z</time>
</trkpt>
<trkpt lat="42.86544747097108" lon="-2.920052360919034">
<ele>1161</ele>
<time>2013-10-16T17:26:45Z</time>
</trkpt>
<trkpt lat="42.86534511553254" lon="-2.9202585478233067">
<ele>1158</ele>
<time>2013-10-16T17:26:47Z</time>
</trkpt>
<trkpt lat="42.86523944345829" lon="-2.9204575619258493">
<ele>1155</ele>
<time>2013-10-16T17:26:49Z</time>
</trkpt>
<trkpt lat="42.865120980506425" lon="-2.9206650594948482">
<ele>1152</ele>
<time>2013-10-16T17:26:51Z</time>
</trkpt>
<trkpt lat="42.864994546350246" lon="-2.9208654803814054">
<ele>1149</ele>
<time>2013-10-16T17:26:53Z</time>
</trkpt>
<trkpt lat="42.864871377014616" lon="-2.9210663475304917">
<ele>1147</ele>
<time>2013-10-16T17:26:55Z</time>
</trkpt>
<trkpt lat="42.86475220079097" lon="-2.9212525357809036">
<ele>1145</ele>
<time>2013-10-16T17:26:57Z</time>
</trkpt>
<trkpt lat="42.86462784110969" lon="-2.9214437949997603">
<ele>1143</ele>
<time>2013-10-16T17:26:59Z</time>
</trkpt>
<trkpt lat="42.864496443926924" lon="-2.9216462010567343">
<ele>1141</ele>
<time>2013-10-16T17:27:01Z</time>
</trkpt>
<trkpt lat="42.86435997161881" lon="-2.9218515311048394">
<ele>1139</ele>
<time>2013-10-16T17:27:03Z</time>
</trkpt>
<trkpt lat="42.86421851092876" lon="-2.9220538152106466">
<ele>1137</ele>
<time>2013-10-16T17:27:05Z</time>
</trkpt>
<trkpt lat="42.86407752403628" lon="-2.922246604018387">
<ele>1134</ele>
<time>2013-10-16T17:27:07Z</time>
</trkpt>
<trkpt lat="42.86393393042841" lon="-2.9224336953602426">
<ele>1132</ele>
<time>2013-10-16T17:27:09Z</time>
</trkpt>
<trkpt lat="42.86378829337141" lon="-2.9226203299795745">
<ele>1130</ele>
<time>2013-10-16T17:27:11Z</time>
</trkpt>
<trkpt lat="42.863644030400806" lon="-2.92280193222555">
<ele>1127</ele>
<time>2013-10-16T17:27:13Z</time>
</trkpt>
<trkpt lat="42.863497371293114" lon="-2.922991047125717">
<ele>1125</ele>
<time>2013-10-16T17:27:15Z</time>
</trkpt>
<trkpt lat="42.863343873748924" lon="-2.9231911494028013">
<ele>1122</ele>
<time>2013-10-16T17:27:17Z</time>
</trkpt>
<trkpt lat="42.863208015831965" lon="-2.9233741691482056">
<ele>1120</ele>
<time>2013-10-16T17:27:19Z</time>
</trkpt>
<trkpt lat="42.86306785708855" lon="-2.9235482069604033">
<ele>1118</ele>
<time>2013-10-16T17:27:21Z</time>
</trkpt>
<trkpt lat="42.86292875038777" lon="-2.9236998377353176">
<ele>1116</ele>
<time>2013-10-16T17:27:23Z</time>
</trkpt>
<trkpt lat="42.86279984595066" lon="-2.923830560557955">
<ele>1114</ele>
<time>2013-10-16T17:27:25Z</time>
</trkpt>
<trkpt lat="42.86266304322283" lon="-2.9239836840600852">
<ele>1112</ele>
<time>2013-10-16T17:27:27Z</time>
</trkpt>
<trkpt lat="42.86252869386462" lon="-2.9241333464232864">
<ele>1110</ele>
<time>2013-10-16T17:27:29Z</time>
</trkpt>
<trkpt lat="42.86240578154564" lon="-2.9242684075293424">
<ele>1108</ele>
<time>2013-10-16T17:27:31Z</time>
</trkpt>
<trkpt lat="42.86228198870912" lon="-2.9244081379304534">
<ele>1106</ele>
<time>2013-10-16T17:27:33Z</time>
</trkpt>
<trkpt lat="42.86215710880342" lon="-2.9245422347607914">
<ele>1104</ele>
<time>2013-10-16T17:27:35Z</time>
</trkpt>
<trkpt lat="42.86202962060125" lon="-2.9246697962308947">
<ele>1102</ele>
<time>2013-10-16T17:27:37Z</time>
</trkpt>
<trkpt lat="42.861896039940156" lon="-2.9248296794578446">
<ele>1100</ele>
<time>2013-10-16T17:27:39Z</time>
</trkpt>
<trkpt lat="42.861786386100555" lon="-2.9249919987418096">
<ele>1099</ele>
<time>2013-10-16T17:27:41Z</time>
</trkpt>
<trkpt lat="42.861681559459505" lon="-2.925151750666075">
<ele>1097</ele>
<time>2013-10-16T17:27:43Z</time>
</trkpt>
<trkpt lat="42.861582981463314" lon="-2.9253038635211945">
<ele>1094</ele>
<time>2013-10-16T17:27:45Z</time>
</trkpt>
<trkpt lat="42.86148453533475" lon="-2.925481868206478">
<ele>1091</ele>
<time>2013-10-16T17:27:47Z</time>
</trkpt>
<trkpt lat="42.861432885929155" lon="-2.9256543564025703">
<ele>1089</ele>
<time>2013-10-16T17:27:49Z</time>
</trkpt>
<trkpt lat="42.86139013925762" lon="-2.9258077919750116">
<ele>1088</ele>
<time>2013-10-16T17:27:51Z</time>
</trkpt>
<trkpt lat="42.86135376010504" lon="-2.925960742038986">
<ele>1086</ele>
<time>2013-10-16T17:27:53Z</time>
</trkpt>
<trkpt lat="42.86132476121195" lon="-2.9261349773465892">
<ele>1085</ele>
<time>2013-10-16T17:27:55Z</time>
</trkpt>
<trkpt lat="42.86130423291765" lon="-2.926320599343908">
<ele>1084</ele>
<time>2013-10-16T17:27:57Z</time>
</trkpt>
<trkpt lat="42.861306557616146" lon="-2.9264710319980813">
<ele>1082</ele>
<time>2013-10-16T17:27:59Z</time>
</trkpt>
<trkpt lat="42.861307703081096" lon="-2.9266384468195628">
<ele>1081</ele>
<time>2013-10-16T17:28:01Z</time>
</trkpt>
<trkpt lat="42.86132040206714" lon="-2.9268322047298834">
<ele>1080</ele>
<time>2013-10-16T17:28:03Z</time>
</trkpt>
<trkpt lat="42.8613531414339" lon="-2.9270001706623785">
<ele>1080</ele>
<time>2013-10-16T17:28:05Z</time>
</trkpt>
<trkpt lat="42.86138741349441" lon="-2.927149539141752">
<ele>1080</ele>
<time>2013-10-16T17:28:07Z</time>
</trkpt>
<trkpt lat="42.861421795999675" lon="-2.927300579282162">
<ele>1080</ele>
<time>2013-10-16T17:28:09Z</time>
</trkpt>
<trkpt lat="42.86147061518164" lon="-2.927467955366666">
<ele>1079</ele>
<time>2013-10-16T17:28:11Z</time>
</trkpt>
<trkpt lat="42.86154413805804" lon="-2.9276143477496324">
<ele>1078</ele>
<time>2013-10-16T17:28:13Z</time>
</trkpt>
<trkpt lat="42.86158747568753" lon="-2.9276898496088877">
<ele>1078</ele>
<time>2013-10-16T17:28:15Z</time>
</trkpt>
<trkpt lat="42.861635261114614" lon="-2.9277941469567774">
<ele>1078</ele>
<time>2013-10-16T17:28:17Z</time>
</trkpt>
<trkpt lat="42.861694449205174" lon="-2.9279111148552177">
<ele>1077</ele>
<time>2013-10-16T17:28:19Z</time>
</trkpt>
<trkpt lat="42.861764767754806" lon="-2.9280279553217414">
<ele>1077</ele>
<time>2013-10-16T17:28:21Z</time>
</trkpt>
<trkpt lat="42.861836356371455" lon="-2.9281394314922222">
<ele>1077</ele>
<time>2013-10-16T17:28:23Z</time>
</trkpt>
<trkpt lat="42.861901047914564" lon="-2.9282358010249623">
<ele>1076</ele>
<time>2013-10-16T17:28:25Z</time>
</trkpt>
<trkpt lat="42.86195351883777" lon="-2.928335719166543">
<ele>1075</ele>
<time>2013-10-16T17:28:27Z</time>
</trkpt>
<trkpt lat="42.86198118046817" lon="-2.9284791612687906">
<ele>1075</ele>
<time>2013-10-16T17:28:29Z</time>
</trkpt>
<trkpt lat="42.862035448253664" lon="-2.9286331709014597">
<ele>1074</ele>
<time>2013-10-16T17:28:31Z</time>
</trkpt>
<trkpt lat="42.862105398612755" lon="-2.9287585023620095">
<ele>1072</ele>
<time>2013-10-16T17:28:33Z</time>
</trkpt>
<trkpt lat="42.862133920396" lon="-2.92890582738456">
<ele>1070</ele>
<time>2013-10-16T17:28:35Z</time>
</trkpt>
<trkpt lat="42.8621373751473" lon="-2.9290791662652302">
<ele>1068</ele>
<time>2013-10-16T17:28:37Z</time>
</trkpt>
<trkpt lat="42.86215222972421" lon="-2.9292425741078563">
<ele>1067</ele>
<time>2013-10-16T17:28:39Z</time>
</trkpt>
<trkpt lat="42.86217338579155" lon="-2.929404540613203">
<ele>1065</ele>
<time>2013-10-16T17:28:41Z</time>
</trkpt>
<trkpt lat="42.86220002171458" lon="-2.9295703993255766">
<ele>1064</ele>
<time>2013-10-16T17:28:43Z</time>
</trkpt>
<trkpt lat="42.862237167866994" lon="-2.9297544550731396">
<ele>1062</ele>
<time>2013-10-16T17:28:45Z</time>
</trkpt>
<trkpt lat="42.86228465170341" lon="-2.929951039454088">
<ele>1060</ele>
<time>2013-10-16T17:28:47Z</time>
</trkpt>
<trkpt lat="42.86236480195227" lon="-2.9301203289176074">
<ele>1059</ele>
<time>2013-10-16T17:28:49Z</time>
</trkpt>
<trkpt lat="42.86247728742016" lon="-2.9302239032342214">
<ele>1058</ele>
<time>2013-10-16T17:28:51Z</time>
</trkpt>
<trkpt lat="42.862546062225626" lon="-2.9303523893286316">
<ele>1056</ele>
<time>2013-10-16T17:28:53Z</time>
</trkpt>
<trkpt lat="42.862572438164186" lon="-2.9305038977511035">
<ele>1055</ele>
<time>2013-10-16T17:28:55Z</time>
</trkpt>
<trkpt lat="42.862604558274924" lon="-2.930660663166371">
<ele>1055</ele>
<time>2013-10-16T17:28:57Z</time>
</trkpt>
<trkpt lat="42.86266140586167" lon="-2.9308047128620425">
<ele>1055</ele>
<time>2013-10-16T17:28:59Z</time>
</trkpt>
<trkpt lat="42.862712226013876" lon="-2.930928791757909">
<ele>1055</ele>
<time>2013-10-16T17:29:01Z</time>
</trkpt>
<trkpt lat="42.86275902982726" lon="-2.9310422200129813">
<ele>1055</ele>
<time>2013-10-16T17:29:03Z</time>
</trkpt>
<trkpt lat="42.86281678351766" lon="-2.9311597702332923">
<ele>1054</ele>
<time>2013-10-16T17:29:05Z</time>
</trkpt>
<trkpt lat="42.8628848709922" lon="-2.93128004855214">
<ele>1053</ele>
<time>2013-10-16T17:29:07Z</time>
</trkpt>
<trkpt lat="42.86296327707098" lon="-2.931411885862237">
<ele>1052</ele>
<time>2013-10-16T17:29:09Z</time>
</trkpt>
<trkpt lat="42.86304136993494" lon="-2.931535959757262">
<ele>1050</ele>
<time>2013-10-16T17:29:11Z</time>
</trkpt>
<trkpt lat="42.86310681328589" lon="-2.931650254641117">
<ele>1049</ele>
<time>2013-10-16T17:29:13Z</time>
</trkpt>
<trkpt lat="42.863174871059314" lon="-2.931775605073441">
<ele>1047</ele>
<time>2013-10-16T17:29:15Z</time>
</trkpt>
<trkpt lat="42.86324644045625" lon="-2.9319119368041906">
<ele>1045</ele>
<time>2013-10-16T17:29:17Z</time>
</trkpt>
<trkpt lat="42.86331835564468" lon="-2.9320484269737133">
<ele>1044</ele>
<time>2013-10-16T17:29:19Z</time>
</trkpt>
<trkpt lat="42.86338088886197" lon="-2.932183982363161">
<ele>1042</ele>
<time>2013-10-16T17:29:21Z</time>
</trkpt>
<trkpt lat="42.86344081136504" lon="-2.9323347119229335">
<ele>1039</ele>
<time>2013-10-16T17:29:23Z</time>
</trkpt>
<trkpt lat="42.86350383263924" lon="-2.9324840710630293">
<ele>1038</ele>
<time>2013-10-16T17:29:25Z</time>
</trkpt>
<trkpt lat="42.863569083984366" lon="-2.9326285246563506">
<ele>1036</ele>
<time>2013-10-16T17:29:27Z</time>
</trkpt>
<trkpt lat="42.86363201281937" lon="-2.9327782989184845">
<ele>1035</ele>
<time>2013-10-16T17:29:29Z</time>
</trkpt>
<trkpt lat="42.863704790412896" lon="-2.9329345120171824">
<ele>1034</ele>
<time>2013-10-16T17:29:31Z</time>
</trkpt>
<trkpt lat="42.86378682284076" lon="-2.933093424990437">
<ele>1033</ele>
<time>2013-10-16T17:29:33Z</time>
</trkpt>
<trkpt lat="42.863848698407544" lon="-2.933219756607732">
<ele>1033</ele>
<time>2013-10-16T17:29:35Z</time>
</trkpt>
<trkpt lat="42.86390379860503" lon="-2.933346603501582">
<ele>1032</ele>
<time>2013-10-16T17:29:37Z</time>
</trkpt>
<trkpt lat="42.86397154631077" lon="-2.9334878487313976">
<ele>1031</ele>
<time>2013-10-16T17:29:39Z</time>
</trkpt>
<trkpt lat="42.86405094979225" lon="-2.9336284136032513">
<ele>1030</ele>
<time>2013-10-16T17:29:41Z</time>
</trkpt>
<trkpt lat="42.86414266401044" lon="-2.9337625206438354">
<ele>1028</ele>
<time>2013-10-16T17:29:43Z</time>
</trkpt>
<trkpt lat="42.86424573109563" lon="-2.9339009629178183">
<ele>1027</ele>
<time>2013-10-16T17:29:45Z</time>
</trkpt>
<trkpt lat="42.86434422457948" lon="-2.9340225487011584">
<ele>1026</ele>
<time>2013-10-16T17:29:47Z</time>
</trkpt>
<trkpt lat="42.864428462972484" lon="-2.9341121206821663">
<ele>1025</ele>
<time>2013-10-16T17:29:49Z</time>
</trkpt>
<trkpt lat="42.8645319553062" lon="-2.9342066061794227">
<ele>1024</ele>
<time>2013-10-16T17:29:51Z</time>
</trkpt>
<trkpt lat="42.86465030931141" lon="-2.9342952278000554">
<ele>1022</ele>
<time>2013-10-16T17:29:53Z</time>
</trkpt>
<trkpt lat="42.86476357356366" lon="-2.9343609676079128">
<ele>1019</ele>
<time>2013-10-16T17:29:55Z</time>
</trkpt>
<trkpt lat="42.86487491586685" lon="-2.9344318851006648">
<ele>1017</ele>
<time>2013-10-16T17:29:57Z</time>
</trkpt>
<trkpt lat="42.86499591816643" lon="-2.934520362789177">
<ele>1015</ele>
<time>2013-10-16T17:29:59Z</time>
</trkpt>
<trkpt lat="42.86510158492334" lon="-2.9346097154646453">
<ele>1013</ele>
<time>2013-10-16T17:30:01Z</time>
</trkpt>
<trkpt lat="42.86519083210506" lon="-2.93471260689344">
<ele>1011</ele>
<time>2013-10-16T17:30:03Z</time>
</trkpt>
<trkpt lat="42.86527061451581" lon="-2.934824980710846">
<ele>1010</ele>
<time>2013-10-16T17:30:05Z</time>
</trkpt>
<trkpt lat="42.86534276891002" lon="-2.9349133592796317">
<ele>1009</ele>
<time>2013-10-16T17:30:07Z</time>
</trkpt>
<trkpt lat="42.86543350076206" lon="-2.9350092538481647">
<ele>1007</ele>
<time>2013-10-16T17:30:09Z</time>
</trkpt>
<trkpt lat="42.86553319812032" lon="-2.9350913221685326">
<ele>1005</ele>
<time>2013-10-16T17:30:11Z</time>
</trkpt>
<trkpt lat="42.865617034260836" lon="-2.9351478908068738">
<ele>1004</ele>
<time>2013-10-16T17:30:13Z</time>
</trkpt>
<trkpt lat="42.86571432773974" lon="-2.935217851686428">
<ele>1002</ele>
<time>2013-10-16T17:30:15Z</time>
</trkpt>
<trkpt lat="42.86584989828028" lon="-2.9352649775696023">
<ele>998</ele>
<time>2013-10-16T17:30:17Z</time>
</trkpt>
<trkpt lat="42.86597233925869" lon="-2.935282260236111">
<ele>996</ele>
<time>2013-10-16T17:30:19Z</time>
</trkpt>
<trkpt lat="42.866086242838556" lon="-2.935300376925518">
<ele>992</ele>
<time>2013-10-16T17:30:21Z</time>
</trkpt>
<trkpt lat="42.86623048274922" lon="-2.935324726223127">
<ele>989</ele>
<time>2013-10-16T17:30:23Z</time>
</trkpt>
<trkpt lat="42.86637547789679" lon="-2.9353500680003126">
<ele>986</ele>
<time>2013-10-16T17:30:25Z</time>
</trkpt>
<trkpt lat="42.86648840937512" lon="-2.9353770247776847">
<ele>983</ele>
<time>2013-10-16T17:30:27Z</time>
</trkpt>
<trkpt lat="42.8666059416117" lon="-2.935418073748448">
<ele>979</ele>
<time>2013-10-16T17:30:29Z</time>
</trkpt>
<trkpt lat="42.86674749426962" lon="-2.9354697473169944">
<ele>976</ele>
<time>2013-10-16T17:30:31Z</time>
</trkpt>
<trkpt lat="42.8668832585952" lon="-2.935518072619252">
<ele>972</ele>
<time>2013-10-16T17:30:33Z</time>
</trkpt>
<trkpt lat="42.86701960882431" lon="-2.9355693750967236">
<ele>969</ele>
<time>2013-10-16T17:30:35Z</time>
</trkpt>
<trkpt lat="42.86715878706844" lon="-2.935622426276545">
<ele>966</ele>
<time>2013-10-16T17:30:37Z</time>
</trkpt>
<trkpt lat="42.86729652010522" lon="-2.9356848866719956">
<ele>963</ele>
<time>2013-10-16T17:30:39Z</time>
</trkpt>
<trkpt lat="42.86741691965489" lon="-2.935752787932049">
<ele>960</ele>
<time>2013-10-16T17:30:41Z</time>
</trkpt>
<trkpt lat="42.867541913914714" lon="-2.935826169099894">
<ele>956</ele>
<time>2013-10-16T17:30:43Z</time>
</trkpt>
<trkpt lat="42.8676618576595" lon="-2.935897567923397">
<ele>954</ele>
<time>2013-10-16T17:30:45Z</time>
</trkpt>
<trkpt lat="42.867760692800175" lon="-2.9359611786006896">
<ele>951</ele>
<time>2013-10-16T17:30:47Z</time>
</trkpt>
<trkpt lat="42.86787740219363" lon="-2.9360506189757243">
<ele>949</ele>
<time>2013-10-16T17:30:49Z</time>
</trkpt>
<trkpt lat="42.8679944144076" lon="-2.9361455191204673">
<ele>947</ele>
<time>2013-10-16T17:30:51Z</time>
</trkpt>
<trkpt lat="42.868108666195006" lon="-2.936231121049014">
<ele>946</ele>
<time>2013-10-16T17:30:53Z</time>
</trkpt>
<trkpt lat="42.86821991012349" lon="-2.9363200695156513">
<ele>944</ele>
<time>2013-10-16T17:30:55Z</time>
</trkpt>
<trkpt lat="42.86833336790913" lon="-2.9364208113471855">
<ele>942</ele>
<time>2013-10-16T17:30:57Z</time>
</trkpt>
<trkpt lat="42.86843853655878" lon="-2.9365188944229557">
<ele>940</ele>
<time>2013-10-16T17:30:59Z</time>
</trkpt>
<trkpt lat="42.86853021289954" lon="-2.9366186176352205">
<ele>937</ele>
<time>2013-10-16T17:31:01Z</time>
</trkpt>
<trkpt lat="42.86861576511748" lon="-2.936722748221406">
<ele>935</ele>
<time>2013-10-16T17:31:03Z</time>
</trkpt>
<trkpt lat="42.868690445197025" lon="-2.9368015981988895">
<ele>932</ele>
<time>2013-10-16T17:31:05Z</time>
</trkpt>
<trkpt lat="42.86879004514074" lon="-2.93691227305156">
<ele>929</ele>
<time>2013-10-16T17:31:07Z</time>
</trkpt>
<trkpt lat="42.86890163783225" lon="-2.93704971142076">
<ele>926</ele>
<time>2013-10-16T17:31:09Z</time>
</trkpt>
<trkpt lat="42.86898890386897" lon="-2.9371484435581277">
<ele>923</ele>
<time>2013-10-16T17:31:11Z</time>
</trkpt>
<trkpt lat="42.86905770051748" lon="-2.9372304173237715">
<ele>921</ele>
<time>2013-10-16T17:31:13Z</time>
</trkpt>
<trkpt lat="42.86913797298837" lon="-2.9373505524207806">
<ele>918</ele>
<time>2013-10-16T17:31:15Z</time>
</trkpt>
<trkpt lat="42.869224211181056" lon="-2.937495675204039">
<ele>916</ele>
<time>2013-10-16T17:31:17Z</time>
</trkpt>
<trkpt lat="42.86927829842578" lon="-2.9376032620932415">
<ele>914</ele>
<time>2013-10-16T17:31:19Z</time>
</trkpt>
<trkpt lat="42.869342821921464" lon="-2.9377257038760716">
<ele>912</ele>
<time>2013-10-16T17:31:21Z</time>
</trkpt>
<trkpt lat="42.86943241822267" lon="-2.937866856988407">
<ele>910</ele>
<time>2013-10-16T17:31:23Z</time>
</trkpt>
<trkpt lat="42.86951725268289" lon="-2.9379920236340777">
<ele>908</ele>
<time>2013-10-16T17:31:25Z</time>
</trkpt>
<trkpt lat="42.86959244962665" lon="-2.9381035102363047">
<ele>905</ele>
<time>2013-10-16T17:31:27Z</time>
</trkpt>
<trkpt lat="42.869679630611486" lon="-2.938237561456602">
<ele>904</ele>
<time>2013-10-16T17:31:29Z</time>
</trkpt>
<trkpt lat="42.86976966431535" lon="-2.9383748876830307">
<ele>902</ele>
<time>2013-10-16T17:31:31Z</time>
</trkpt>
<trkpt lat="42.86984880784344" lon="-2.938482269607987">
<ele>900</ele>
<time>2013-10-16T17:31:33Z</time>
</trkpt>
<trkpt lat="42.869931210687184" lon="-2.938587925834661">
<ele>897</ele>
<time>2013-10-16T17:31:35Z</time>
</trkpt>
<trkpt lat="42.870023497398456" lon="-2.938711650768241">
<ele>895</ele>
<time>2013-10-16T17:31:37Z</time>
</trkpt>
<trkpt lat="42.87012094092148" lon="-2.93885359561094">
<ele>892</ele>
<time>2013-10-16T17:31:39Z</time>
</trkpt>
<trkpt lat="42.870219784656946" lon="-2.9389737935426896">
<ele>888</ele>
<time>2013-10-16T17:31:41Z</time>
</trkpt>
<trkpt lat="42.870323864521744" lon="-2.9390794662556554">
<ele>884</ele>
<time>2013-10-16T17:31:43Z</time>
</trkpt>
<trkpt lat="42.87043024401661" lon="-2.939201834996323">
<ele>881</ele>
<time>2013-10-16T17:31:45Z</time>
</trkpt>
<trkpt lat="42.87054414444014" lon="-2.9392708452552747">
<ele>879</ele>
<time>2013-10-16T17:31:47Z</time>
</trkpt>
<trkpt lat="42.87062150966309" lon="-2.9393353505633595">
<ele>877</ele>
<time>2013-10-16T17:31:49Z</time>
</trkpt>
<trkpt lat="42.87068669008238" lon="-2.9394562061024114">
<ele>874</ele>
<time>2013-10-16T17:31:51Z</time>
</trkpt>
<trkpt lat="42.87075582359681" lon="-2.939580760388203">
<ele>872</ele>
<time>2013-10-16T17:31:53Z</time>
</trkpt>
<trkpt lat="42.87082215391485" lon="-2.9397011732121965">
<ele>870</ele>
<time>2013-10-16T17:31:55Z</time>
</trkpt>
<trkpt lat="42.87089115462685" lon="-2.9398159175996637">
<ele>868</ele>
<time>2013-10-16T17:31:57Z</time>
</trkpt>
<trkpt lat="42.870985907540586" lon="-2.9398966622958027">
<ele>865</ele>
<time>2013-10-16T17:31:59Z</time>
</trkpt>
<trkpt lat="42.87107137150758" lon="-2.9399553033301427">
<ele>863</ele>
<time>2013-10-16T17:32:01Z</time>
</trkpt>
<trkpt lat="42.87114950142755" lon="-2.9400069590318147">
<ele>860</ele>
<time>2013-10-16T17:32:03Z</time>
</trkpt>
<trkpt lat="42.871247197336" lon="-2.9400333623035784">
<ele>859</ele>
<time>2013-10-16T17:32:05Z</time>
</trkpt>
<trkpt lat="42.871356531658996" lon="-2.9400450895680845">
<ele>857</ele>
<time>2013-10-16T17:32:07Z</time>
</trkpt>
<trkpt lat="42.87147020687033" lon="-2.9400696934613046">
<ele>856</ele>
<time>2013-10-16T17:32:09Z</time>
</trkpt>
<trkpt lat="42.87157630906928" lon="-2.9401058481790954">
<ele>853</ele>
<time>2013-10-16T17:32:11Z</time>
</trkpt>
<trkpt lat="42.871678637020906" lon="-2.9401053933359074">
<ele>851</ele>
<time>2013-10-16T17:32:13Z</time>
</trkpt>
<trkpt lat="42.8717816153715" lon="-2.940078031836318">
<ele>849</ele>
<time>2013-10-16T17:32:15Z</time>
</trkpt>
<trkpt lat="42.871901888456875" lon="-2.940058001166611">
<ele>846</ele>
<time>2013-10-16T17:32:17Z</time>
</trkpt>
<trkpt lat="42.872007849854" lon="-2.9400832055418946">
<ele>844</ele>
<time>2013-10-16T17:32:19Z</time>
</trkpt>
<trkpt lat="42.872112652372884" lon="-2.9401224241451156">
<ele>841</ele>
<time>2013-10-16T17:32:21Z</time>
</trkpt>
<trkpt lat="42.872244698547405" lon="-2.940177950051263">
<ele>838</ele>
<time>2013-10-16T17:32:23Z</time>
</trkpt>
<trkpt lat="42.872386607870574" lon="-2.9402329797926785">
<ele>835</ele>
<time>2013-10-16T17:32:25Z</time>
</trkpt>
<trkpt lat="42.87249072499863" lon="-2.9402738387910436">
<ele>832</ele>
<time>2013-10-16T17:32:27Z</time>
</trkpt>
<trkpt lat="42.872607374096496" lon="-2.9403096216436184">
<ele>829</ele>
<time>2013-10-16T17:32:29Z</time>
</trkpt>
<trkpt lat="42.872715248039015" lon="-2.940331739295437">
<ele>827</ele>
<time>2013-10-16T17:32:31Z</time>
</trkpt>
<trkpt lat="42.87282927363883" lon="-2.9403392609812347">
<ele>824</ele>
<time>2013-10-16T17:32:33Z</time>
</trkpt>
<trkpt lat="42.87295875236936" lon="-2.940346967454272">
<ele>822</ele>
<time>2013-10-16T17:32:35Z</time>
</trkpt>
<trkpt lat="42.87308378319439" lon="-2.940352014752437">
<ele>819</ele>
<time>2013-10-16T17:32:37Z</time>
</trkpt>
<trkpt lat="42.87319212780174" lon="-2.9403235173123417">
<ele>816</ele>
<time>2013-10-16T17:32:39Z</time>
</trkpt>
<trkpt lat="42.87330471899015" lon="-2.9401833650822526">
<ele>812</ele>
<time>2013-10-16T17:32:41Z</time>
</trkpt>
<trkpt lat="42.8734374670339" lon="-2.94003442487839">
<ele>807</ele>
<time>2013-10-16T17:32:43Z</time>
</trkpt>
<trkpt lat="42.87360005629964" lon="-2.9398721503083105">
<ele>802</ele>
<time>2013-10-16T17:32:45Z</time>
</trkpt>
<trkpt lat="42.87374250118961" lon="-2.939743462755722">
<ele>798</ele>
<time>2013-10-16T17:32:47Z</time>
</trkpt>
<trkpt lat="42.87387215465487" lon="-2.939664234543432">
<ele>796</ele>
<time>2013-10-16T17:32:49Z</time>
</trkpt>
<trkpt lat="42.87401739767259" lon="-2.9395901854331">
<ele>794</ele>
<time>2013-10-16T17:32:51Z</time>
</trkpt>
<trkpt lat="42.874112080826826" lon="-2.93940448883405">
<ele>793</ele>
<time>2013-10-16T17:32:53Z</time>
</trkpt>
<trkpt lat="42.87416529706052" lon="-2.9391869522612657">
<ele>793</ele>
<time>2013-10-16T17:32:55Z</time>
</trkpt>
<trkpt lat="42.874250253697696" lon="-2.939065191542758">
<ele>792</ele>
<time>2013-10-16T17:32:57Z</time>
</trkpt>
<trkpt lat="42.87435127569406" lon="-2.9392183864050785">
<ele>789</ele>
<time>2013-10-16T17:32:59Z</time>
</trkpt>
<trkpt lat="42.874412300259706" lon="-2.939419599800454">
<ele>787</ele>
<time>2013-10-16T17:33:01Z</time>
</trkpt>
<trkpt lat="42.87445903043119" lon="-2.939568823832572">
<ele>786</ele>
<time>2013-10-16T17:33:03Z</time>
</trkpt>
<trkpt lat="42.874504961105124" lon="-2.9397325534139434">
<ele>785</ele>
<time>2013-10-16T17:33:05Z</time>
</trkpt>
<trkpt lat="42.874574212490145" lon="-2.9398270737506373">
<ele>784</ele>
<time>2013-10-16T17:33:07Z</time>
</trkpt>
<trkpt lat="42.874671029459584" lon="-2.939783725923516">
<ele>784</ele>
<time>2013-10-16T17:33:09Z</time>
</trkpt>
<trkpt lat="42.87474238531165" lon="-2.9396968077091388">
<ele>784</ele>
<time>2013-10-16T17:33:11Z</time>
</trkpt>
<trkpt lat="42.874807625996496" lon="-2.9396396140596646">
<ele>783</ele>
<time>2013-10-16T17:33:13Z</time>
</trkpt>
<trkpt lat="42.874896275377736" lon="-2.9395547930945667">
<ele>783</ele>
<time>2013-10-16T17:33:15Z</time>
</trkpt>
<trkpt lat="42.874922898483234" lon="-2.939353466691876">
<ele>783</ele>
<time>2013-10-16T17:33:17Z</time>
</trkpt>
<trkpt lat="42.874893441083564" lon="-2.9391045776911873">
<ele>784</ele>
<time>2013-10-16T17:33:19Z</time>
</trkpt>
<trkpt lat="42.87485113967489" lon="-2.93890717841174">
<ele>783</ele>
<time>2013-10-16T17:33:21Z</time>
</trkpt>
<trkpt lat="42.8748075218127" lon="-2.9386956916516658">
<ele>782</ele>
<time>2013-10-16T17:33:23Z</time>
</trkpt>
<trkpt lat="42.87484912891796" lon="-2.9385394991399862">
<ele>781</ele>
<time>2013-10-16T17:33:26Z</time>
</trkpt>
<trkpt lat="42.87495118162282" lon="-2.938510710400604">
<ele>780</ele>
<time>2013-10-16T17:33:28Z</time>
</trkpt>
<trkpt lat="42.87506800842133" lon="-2.9386673118392257">
<ele>780</ele>
<time>2013-10-16T17:33:30Z</time>
</trkpt>
<trkpt lat="42.875089589994595" lon="-2.9389206897876226">
<ele>777</ele>
<time>2013-10-16T17:33:32Z</time>
</trkpt>
<trkpt lat="42.87506961840304" lon="-2.939123455824216">
<ele>775</ele>
<time>2013-10-16T17:33:34Z</time>
</trkpt>
<trkpt lat="42.87504005919647" lon="-2.9393165934752075">
<ele>772</ele>
<time>2013-10-16T17:33:36Z</time>
</trkpt>
<trkpt lat="42.8750361701934" lon="-2.9394893447609967">
<ele>771</ele>
<time>2013-10-16T17:33:38Z</time>
</trkpt>
<trkpt lat="42.87505311685038" lon="-2.9396693314567446">
<ele>770</ele>
<time>2013-10-16T17:33:40Z</time>
</trkpt>
<trkpt lat="42.875068842862106" lon="-2.939837062519189">
<ele>769</ele>
<time>2013-10-16T17:33:42Z</time>
</trkpt>
<trkpt lat="42.8750708682216" lon="-2.9399666613859052">
<ele>769</ele>
<time>2013-10-16T17:33:44Z</time>
</trkpt>
<trkpt lat="42.87509839497872" lon="-2.9401021463542145">
<ele>769</ele>
<time>2013-10-16T17:33:46Z</time>
</trkpt>
<trkpt lat="42.875099880510724" lon="-2.940260026207747">
<ele>770</ele>
<time>2013-10-16T17:33:48Z</time>
</trkpt>
<trkpt lat="42.875029172423005" lon="-2.9403967884095983">
<ele>771</ele>
<time>2013-10-16T17:33:50Z</time>
</trkpt>
<trkpt lat="42.87491943215692" lon="-2.9405393059102236">
<ele>772</ele>
<time>2013-10-16T17:33:52Z</time>
</trkpt>
<trkpt lat="42.874860815042425" lon="-2.9407208417078565">
<ele>773</ele>
<time>2013-10-16T17:33:54Z</time>
</trkpt>
<trkpt lat="42.87486023400079" lon="-2.9409159194754797">
<ele>774</ele>
<time>2013-10-16T17:33:56Z</time>
</trkpt>
<trkpt lat="42.874894838050395" lon="-2.941066479822896">
<ele>776</ele>
<time>2013-10-16T17:33:58Z</time>
</trkpt>
<trkpt lat="42.87495769486288" lon="-2.9411965858633593">
<ele>776</ele>
<time>2013-10-16T17:34:00Z</time>
</trkpt>
<trkpt lat="42.87502585898757" lon="-2.9413411774940914">
<ele>775</ele>
<time>2013-10-16T17:34:02Z</time>
</trkpt>
<trkpt lat="42.875028665973055" lon="-2.941529229714591">
<ele>773</ele>
<time>2013-10-16T17:34:04Z</time>
</trkpt>
<trkpt lat="42.87498627063723" lon="-2.9417005105721072">
<ele>772</ele>
<time>2013-10-16T17:34:06Z</time>
</trkpt>
<trkpt lat="42.87494853912192" lon="-2.941886664149601">
<ele>771</ele>
<time>2013-10-16T17:34:08Z</time>
</trkpt>
<trkpt lat="42.8749230386825" lon="-2.942070971871108">
<ele>771</ele>
<time>2013-10-16T17:34:10Z</time>
</trkpt>
<trkpt lat="42.87490284433305" lon="-2.9421778054355214">
<ele>771</ele>
<time>2013-10-16T17:34:12Z</time>
</trkpt>
<trkpt lat="42.87490679628444" lon="-2.9422716928088697">
<ele>772</ele>
<time>2013-10-16T17:34:14Z</time>
</trkpt>
<trkpt lat="42.87493236577879" lon="-2.942386710063714">
<ele>772</ele>
<time>2013-10-16T17:34:16Z</time>
</trkpt>
<trkpt lat="42.87503959314619" lon="-2.9424443303913472">
<ele>772</ele>
<time>2013-10-16T17:34:18Z</time>
</trkpt>
<trkpt lat="42.87515804871436" lon="-2.942390503210533">
<ele>772</ele>
<time>2013-10-16T17:34:20Z</time>
</trkpt>
<trkpt lat="42.875281199832564" lon="-2.9422810134470425">
<ele>774</ele>
<time>2013-10-16T17:34:22Z</time>
</trkpt>
<trkpt lat="42.875365864387085" lon="-2.9421116093402087">
<ele>775</ele>
<time>2013-10-16T17:34:24Z</time>
</trkpt>
<trkpt lat="42.87536069128462" lon="-2.9418554848001492">
<ele>774</ele>
<time>2013-10-16T17:34:26Z</time>
</trkpt>
<trkpt lat="42.87526750466646" lon="-2.9416565364775766">
<ele>774</ele>
<time>2013-10-16T17:34:28Z</time>
</trkpt>
<trkpt lat="42.875130700636866" lon="-2.94152948525349">
<ele>772</ele>
<time>2013-10-16T17:34:30Z</time>
</trkpt>
<trkpt lat="42.87496388388621" lon="-2.941504251530963">
<ele>771</ele>
<time>2013-10-16T17:34:32Z</time>
</trkpt>
<trkpt lat="42.87482608205564" lon="-2.9415711822637918">
<ele>771</ele>
<time>2013-10-16T17:34:34Z</time>
</trkpt>
<trkpt lat="42.87471919783992" lon="-2.9417032262805116">
<ele>771</ele>
<time>2013-10-16T17:34:36Z</time>
</trkpt>
<trkpt lat="42.87468594072464" lon="-2.941856142571042">
<ele>771</ele>
<time>2013-10-16T17:34:38Z</time>
</trkpt>
<trkpt lat="42.87467437632578" lon="-2.941972290199159">
<ele>770</ele>
<time>2013-10-16T17:34:40Z</time>
</trkpt>
<trkpt lat="42.87468217857663" lon="-2.9420789074342886">
<ele>768</ele>
<time>2013-10-16T17:34:42Z</time>
</trkpt>
<trkpt lat="42.87476969116367" lon="-2.9421611452433987">
<ele>766</ele>
<time>2013-10-16T17:34:44Z</time>
</trkpt>
<trkpt lat="42.874902230274365" lon="-2.942083559178018">
<ele>764</ele>
<time>2013-10-16T17:34:46Z</time>
</trkpt>
<trkpt lat="42.87492689344187" lon="-2.94181481282452">
<ele>764</ele>
<time>2013-10-16T17:34:48Z</time>
</trkpt>
<trkpt lat="42.8749360757404" lon="-2.9415744887282345">
<ele>764</ele>
<time>2013-10-16T17:34:50Z</time>
</trkpt>
<trkpt lat="42.874986479011" lon="-2.9413288610641266">
<ele>764</ele>
<time>2013-10-16T17:34:52Z</time>
</trkpt>
<trkpt lat="42.875022271398635" lon="-2.941078861869724">
<ele>765</ele>
<time>2013-10-16T17:34:54Z</time>
</trkpt>
<trkpt lat="42.87500417495971" lon="-2.940868679103938">
<ele>766</ele>
<time>2013-10-16T17:34:56Z</time>
</trkpt>
<trkpt lat="42.87494509590976" lon="-2.9406821450853475">
<ele>766</ele>
<time>2013-10-16T17:34:58Z</time>
</trkpt>
<trkpt lat="42.874872400636036" lon="-2.9404608305570163">
<ele>766</ele>
<time>2013-10-16T17:35:00Z</time>
</trkpt>
<trkpt lat="42.874761729045055" lon="-2.9403293074048777">
<ele>766</ele>
<time>2013-10-16T17:35:02Z</time>
</trkpt>
<trkpt lat="42.87460576765594" lon="-2.9402441997917066">
<ele>766</ele>
<time>2013-10-16T17:35:04Z</time>
</trkpt>
<trkpt lat="42.87445970802989" lon="-2.940126166273496">
<ele>765</ele>
<time>2013-10-16T17:35:06Z</time>
</trkpt>
<trkpt lat="42.87438507957064" lon="-2.9399360228940457">
<ele>764</ele>
<time>2013-10-16T17:35:08Z</time>
</trkpt>
<trkpt lat="42.87440303412062" lon="-2.9397260650165817">
<ele>764</ele>
<time>2013-10-16T17:35:10Z</time>
</trkpt>
<trkpt lat="42.874452595691906" lon="-2.9395561356251636">
<ele>763</ele>
<time>2013-10-16T17:35:12Z</time>
</trkpt>
<trkpt lat="42.874524731959674" lon="-2.9394843136473567">
<ele>761</ele>
<time>2013-10-16T17:35:14Z</time>
</trkpt>
<trkpt lat="42.874613367025525" lon="-2.9394992861743834">
<ele>759</ele>
<time>2013-10-16T17:35:16Z</time>
</trkpt>
<trkpt lat="42.87466909499013" lon="-2.9396375199923694">
<ele>758</ele>
<time>2013-10-16T17:35:18Z</time>
</trkpt>
<trkpt lat="42.87466296685317" lon="-2.9398322873065985">
<ele>755</ele>
<time>2013-10-16T17:35:20Z</time>
</trkpt>
<trkpt lat="42.87463746852484" lon="-2.940031513836595">
<ele>753</ele>
<time>2013-10-16T17:35:22Z</time>
</trkpt>
<trkpt lat="42.87460480236196" lon="-2.9402227794287628">
<ele>751</ele>
<time>2013-10-16T17:35:24Z</time>
</trkpt>
<trkpt lat="42.87459897798716" lon="-2.940389469706206">
<ele>750</ele>
<time>2013-10-16T17:35:26Z</time>
</trkpt>
<trkpt lat="42.874606898926835" lon="-2.9405626463126073">
<ele>750</ele>
<time>2013-10-16T17:35:28Z</time>
</trkpt>
<trkpt lat="42.87464261109574" lon="-2.9407520112393373">
<ele>750</ele>
<time>2013-10-16T17:35:30Z</time>
</trkpt>
<trkpt lat="42.87471886047581" lon="-2.9408768767947926">
<ele>749</ele>
<time>2013-10-16T17:35:32Z</time>
</trkpt>
<trkpt lat="42.874780030837016" lon="-2.9409814213161085">
<ele>749</ele>
<time>2013-10-16T17:35:34Z</time>
</trkpt>
<trkpt lat="42.87478268247001" lon="-2.9411233717871137">
<ele>747</ele>
<time>2013-10-16T17:35:36Z</time>
</trkpt>
<trkpt lat="42.87474269873111" lon="-2.941265893620217">
<ele>746</ele>
<time>2013-10-16T17:35:38Z</time>
</trkpt>
<trkpt lat="42.87469126034487" lon="-2.9413858537963047">
<ele>744</ele>
<time>2013-10-16T17:35:40Z</time>
</trkpt>
<trkpt lat="42.87464230035032" lon="-2.941505610553839">
<ele>743</ele>
<time>2013-10-16T17:35:42Z</time>
</trkpt>
<trkpt lat="42.874702739120764" lon="-2.941620557472963">
<ele>742</ele>
<time>2013-10-16T17:35:44Z</time>
</trkpt>
<trkpt lat="42.87483063238679" lon="-2.9415567669304226">
<ele>740</ele>
<time>2013-10-16T17:35:46Z</time>
</trkpt>
<trkpt lat="42.87482163201708" lon="-2.9412368736059813">
<ele>737</ele>
<time>2013-10-16T17:35:48Z</time>
</trkpt>
<trkpt lat="42.87468933257404" lon="-2.9410036314520243">
<ele>734</ele>
<time>2013-10-16T17:35:50Z</time>
</trkpt>
<trkpt lat="42.87455823265744" lon="-2.9408232788091984">
<ele>733</ele>
<time>2013-10-16T17:35:52Z</time>
</trkpt>
<trkpt lat="42.874474771376484" lon="-2.9406205453613663">
<ele>732</ele>
<time>2013-10-16T17:35:54Z</time>
</trkpt>
<trkpt lat="42.87439668203721" lon="-2.9403880916065424">
<ele>731</ele>
<time>2013-10-16T17:35:56Z</time>
</trkpt>
<trkpt lat="42.87434205316587" lon="-2.940184842353253">
<ele>730</ele>
<time>2013-10-16T17:35:58Z</time>
</trkpt>
<trkpt lat="42.87428204872009" lon="-2.9399729321571773">
<ele>728</ele>
<time>2013-10-16T17:36:00Z</time>
</trkpt>
<trkpt lat="42.87420253825389" lon="-2.9397393711825335">
<ele>727</ele>
<time>2013-10-16T17:36:02Z</time>
</trkpt>
<trkpt lat="42.874183690156386" lon="-2.9395339315564284">
<ele>725</ele>
<time>2013-10-16T17:36:04Z</time>
</trkpt>
<trkpt lat="42.874242393435594" lon="-2.9393105227897567">
<ele>722</ele>
<time>2013-10-16T17:36:06Z</time>
</trkpt>
<trkpt lat="42.87432324507395" lon="-2.939122094478454">
<ele>719</ele>
<time>2013-10-16T17:36:08Z</time>
</trkpt>
<trkpt lat="42.87439976010934" lon="-2.9389940522559477">
<ele>717</ele>
<time>2013-10-16T17:36:10Z</time>
</trkpt>
<trkpt lat="42.8744871965771" lon="-2.9388704182314114">
<ele>716</ele>
<time>2013-10-16T17:36:12Z</time>
</trkpt>
<trkpt lat="42.87458475635713" lon="-2.938736307496435">
<ele>716</ele>
<time>2013-10-16T17:36:14Z</time>
</trkpt>
<trkpt lat="42.8747072425771" lon="-2.938636335481374">
<ele>714</ele>
<time>2013-10-16T17:36:16Z</time>
</trkpt>
<trkpt lat="42.874819371732656" lon="-2.9386313307298995">
<ele>713</ele>
<time>2013-10-16T17:36:18Z</time>
</trkpt>
<trkpt lat="42.8749102583443" lon="-2.9388082595607674">
<ele>711</ele>
<time>2013-10-16T17:36:20Z</time>
</trkpt>
<trkpt lat="42.874990908257324" lon="-2.938974369527913">
<ele>708</ele>
<time>2013-10-16T17:36:22Z</time>
</trkpt>
<trkpt lat="42.87503841178243" lon="-2.939075115362534">
<ele>704</ele>
<time>2013-10-16T17:36:24Z</time>
</trkpt>
<trkpt lat="42.87507897041811" lon="-2.9391915162762143">
<ele>702</ele>
<time>2013-10-16T17:36:26Z</time>
</trkpt>
<trkpt lat="42.87511284207457" lon="-2.9393193616132893">
<ele>699</ele>
<time>2013-10-16T17:36:28Z</time>
</trkpt>
<trkpt lat="42.875145796267994" lon="-2.9394371748522694">
<ele>697</ele>
<time>2013-10-16T17:36:30Z</time>
</trkpt>
<trkpt lat="42.87516828888497" lon="-2.939500931930346">
<ele>697</ele>
<time>2013-10-16T17:36:32Z</time>
</trkpt>
<trkpt lat="42.875189159738156" lon="-2.9395190468219363">
<ele>696</ele>
<time>2013-10-16T17:36:34Z</time>
</trkpt>
<trkpt lat="42.875189159738156" lon="-2.9395190468219363">
<ele>696</ele>
<time>2013-10-16T17:36:36Z</time>
</trkpt>
<trkpt lat="42.875189159738156" lon="-2.9395190468219363">
<ele>696</ele>
<time>2013-10-16T17:36:38Z</time>
</trkpt>
<trkpt lat="42.875189159738156" lon="-2.9395190468219363">
<ele>696</ele>
<time>2013-10-16T17:36:40Z</time>
</trkpt>
<trkpt lat="42.875189159738156" lon="-2.9395190468219363">
<ele>696</ele>
<time>2013-10-16T17:36:42Z</time>
</trkpt>
<trkpt lat="42.875189159738156" lon="-2.9395190468219363">
<ele>696</ele>
<time>2013-10-16T17:36:44Z</time>
</trkpt>
<trkpt lat="42.875189159738156" lon="-2.9395190468219363">
<ele>696</ele>
<time>2013-10-16T17:36:46Z</time>
</trkpt>
<trkpt lat="42.875189159738156" lon="-2.9395190468219363">
<ele>696</ele>
<time>2013-10-16T17:36:48Z</time>
</trkpt>
<trkpt lat="42.875189159738156" lon="-2.9395190468219363">
<ele>696</ele>
<time>2013-10-16T17:36:50Z</time>
</trkpt>
<trkpt lat="42.875189159738156" lon="-2.9395190468219363">
<ele>696</ele>
<time>2013-10-16T17:36:52Z</time>
</trkpt>
<trkpt lat="42.875189159738156" lon="-2.9395190468219363">
<ele>696</ele>
<time>2013-10-16T17:36:54Z</time>
</trkpt>
<trkpt lat="42.875189159738156" lon="-2.9395190468219363">
<ele>696</ele>
<time>2013-10-16T17:36:56Z</time>
</trkpt>
<trkpt lat="42.875189159738156" lon="-2.9395190468219363">
<ele>696</ele>
<time>2013-10-16T17:36:58Z</time>
</trkpt>
<trkpt lat="42.875189159738156" lon="-2.9395190468219363">
<ele>696</ele>
<time>2013-10-16T17:37:00Z</time>
</trkpt>
<trkpt lat="42.875189159738156" lon="-2.9395190468219363">
<ele>696</ele>
<time>2013-10-16T17:37:02Z</time>
</trkpt>
<trkpt lat="42.875189159738156" lon="-2.9395190468219363">
<ele>696</ele>
<time>2013-10-16T17:37:04Z</time>
</trkpt>
<trkpt lat="42.875189159738156" lon="-2.9395190468219363">
<ele>696</ele>
<time>2013-10-16T17:37:06Z</time>
</trkpt>
<trkpt lat="42.875189159738156" lon="-2.9395190468219363">
<ele>696</ele>
<time>2013-10-16T17:37:08Z</time>
</trkpt>
<trkpt lat="" lon="">
<ele></ele>
<time>2013-10-16TZ</time>
</trkpt>
</trkseg>
</trk>
<wpt lat="42.886215" lon="-2.876272">
	<name>cuartango desp</name>
	<desc>despegue</desc>
	<cmt></cmt>
	<photoid>0</photoid>
	<type>0</type>
</wpt>
<wpt lat="
42.877505" lon="-2.874341">
	<name>cuartango1</name>
	<desc></desc>
	<cmt></cmt>
	<photoid>0</photoid>
	<type>0</type>
</wpt>
<wpt lat="
42.856084" lon="-2.873182">
	<name>cuartango2</name>
	<desc>final</desc>
	<cmt></cmt>
	<photoid>0</photoid>
	<type>0</type>
</wpt>
<wpt lat="
" lon="">
	<name></name>
	<desc></desc>
	<cmt></cmt>
	<photoid></photoid>
	<type></type>
</wpt>
</gpx>
